[[{"header":{"parameterUnit":"m.s-1","parameterCategory":1,"la1":30.6,"la2":29.2853,"lo1":-89.7004,"lo2":-87.6739,"dx":0.0162,"dy":0.0183,"nx":112,"ny":82,"refTime":"2023-01-11T06:00:00:Z","depth":0,"parameterNumber":2,"parameterNumberName":"U-component_of_WINDS"},"data":[0.0,0.0,0.0,0.0,0.0,0.0,0.0,0.0,0.0,0.0,0.0,0.0,0.0,0.0,0.0,0.0,0.0,0.0,0.0,0.0,0.0,0.0,0.0,0.0,0.0,0.0,0.0,0.0,0.0,0.0,0.0,0.0,0.0,0.0,0.0,0.0,0.0,0.0,0.0,0.0,0.0,0.0,0.0,0.0,0.0,0.0,0.0,0.0,0.0,0.0,0.0,0.0,0.0,0.0,0.0,0.0,0.0,0.0,0.0,0.0,0.0,0.0,0.0,0.0,0.0,0.0,0.0,0.0,0.0,0.0,0.0,0.0,0.0,0.0,0.0,0.0,0.0,0.0,0.0,0.0,0.0,0.0,0.0,0.0,0.0,0.0,0.0,0.0,0.0,0.0,0.0,6.4867,6.6601,6.8076,6.8811,6.8206,6.5774,6.1037,0.0,0.0,0.0,0.0,0.0,0.0,0.0,0.0,0.0,0.0,0.0,0.0,0.0,0.0,0.0,0.0,0.0,0.0,0.0,0.0,0.0,0.0,0.0,0.0,0.0,0.0,0.0,0.0,0.0,0.0,0.0,0.0,0.0,0.0,0.0,0.0,0.0,0.0,0.0,0.0,0.0,0.0,0.0,0.0,0.0,0.0,0.0,0.0,0.0,0.0,0.0,0.0,0.0,0.0,0.0,0.0,0.0,0.0,0.0,0.0,0.0,0.0,0.0,0.0,0.0,0.0,0.0,0.0,0.0,0.0,0.0,0.0,0.0,0.0,0.0,0.0,0.0,0.0,0.0,0.0,0.0,0.0,0.0,0.0,0.0,0.0,0.0,0.0,0.0,0.0,0.0,0.0,0.0,0.0,0.0,0.0,0.0,0.0,0.0,0.0,0.0,0.0,0.0,0.0,6.5543,6.884,6.9477,6.9754,6.9905,6.9754,6.7622,6.2817,0.0,0.0,0.0,0.0,0.0,0.0,0.0,0.0,0.0,0.0,0.0,0.0,0.0,0.0,0.0,0.0,0.0,0.0,0.0,0.0,0.0,0.0,0.0,0.0,0.0,0.0,0.0,0.0,0.0,0.0,0.0,0.0,0.0,0.0,0.0,0.0,0.0,0.0,0.0,0.0,0.0,0.0,0.0,0.0,0.0,0.0,0.0,0.0,0.0,0.0,0.0,0.0,0.0,0.0,0.0,0.0,0.0,0.0,0.0,0.0,0.0,0.0,0.0,0.0,0.0,0.0,0.0,0.0,0.0,0.0,0.0,0.0,0.0,0.0,0.0,0.0,0.0,0.0,0.0,0.0,0.0,0.0,0.0,0.0,0.0,0.0,0.0,0.0,0.0,0.0,0.0,0.0,0.0,0.0,0.0,0.0,0.0,0.0,0.0,0.0,0.0,0.0,0.0,6.378,6.617,7.0291,6.9724,6.9292,6.9821,6.8887,6.6356,6.1666,6.1422,0.0,0.0,0.0,0.0,0.0,0.0,0.0,0.0,0.0,0.0,0.0,0.0,0.0,0.0,0.0,0.0,0.0,0.0,0.0,0.0,0.0,0.0,0.0,0.0,0.0,0.0,0.0,0.0,0.0,0.0,0.0,0.0,0.0,0.0,0.0,0.0,0.0,0.0,0.0,0.0,0.0,0.0,0.0,0.0,0.0,0.0,0.0,0.0,0.0,0.0,0.0,0.0,0.0,0.0,0.0,0.0,0.0,0.0,0.0,0.0,0.0,0.0,0.0,0.0,0.0,0.0,0.0,0.0,0.0,0.0,0.0,0.0,0.0,0.0,0.0,0.0,0.0,0.0,0.0,0.0,0.0,0.0,0.0,0.0,0.0,0.0,0.0,0.0,0.0,0.0,0.0,0.0,0.0,0.0,0.0,0.0,0.0,0.0,0.0,0.0,0.0,0.0,6.6076,6.7858,7.1244,7.0141,6.9494,7.0332,6.8807,6.5807,6.1101,6.1189,0.0,0.0,0.0,0.0,0.0,0.0,0.0,0.0,0.0,0.0,0.0,0.0,0.0,0.0,0.0,0.0,0.0,0.0,0.0,0.0,0.0,0.0,0.0,0.0,0.0,0.0,0.0,0.0,0.0,0.0,0.0,0.0,0.0,0.0,0.0,0.0,0.0,0.0,0.0,0.0,0.0,0.0,0.0,0.0,0.0,0.0,0.0,0.0,0.0,0.0,0.0,0.0,0.0,0.0,0.0,0.0,0.0,0.0,0.0,0.0,0.0,0.0,0.0,0.0,0.0,0.0,0.0,0.0,0.0,0.0,0.0,0.0,0.0,0.0,0.0,0.0,0.0,0.0,0.0,0.0,0.0,0.0,0.0,0.0,0.0,0.0,0.0,0.0,0.0,0.0,0.0,0.0,0.0,0.0,0.0,0.0,0.0,0.0,0.0,0.0,0.0,0.0,6.8532,7.128,7.2312,7.2248,7.2226,7.2285,7.1472,6.8621,6.3137,6.2151,0.0,0.0,0.0,0.0,0.0,0.0,0.0,0.0,0.0,0.0,0.0,0.0,0.0,0.0,0.0,0.0,0.0,0.0,0.0,0.0,0.0,0.0,0.0,0.0,0.0,0.0,0.0,0.0,0.0,0.0,0.0,0.0,0.0,0.0,0.0,0.0,0.0,0.0,0.0,0.0,0.0,0.0,0.0,0.0,0.0,0.0,0.0,0.0,0.0,0.0,0.0,0.0,0.0,0.0,0.0,0.0,0.0,0.0,0.0,0.0,0.0,0.0,0.0,0.0,0.0,0.0,0.0,0.0,0.0,0.0,0.0,0.0,0.0,0.0,0.0,0.0,0.0,0.0,0.0,0.0,0.0,0.0,0.0,0.0,0.0,0.0,0.0,0.0,0.0,0.0,0.0,0.0,0.0,0.0,0.0,0.0,0.0,0.0,0.0,0.0,0.0,0.0,6.7949,7.0894,0.0,7.3508,7.3125,7.3125,7.2286,6.9261,6.3231,0.0,0.0,0.0,0.0,0.0,0.0,0.0,0.0,0.0,0.0,0.0,0.0,0.0,0.0,0.0,0.0,0.0,0.0,0.0,0.0,0.0,0.0,0.0,0.0,0.0,0.0,0.0,0.0,0.0,0.0,0.0,0.0,0.0,0.0,0.0,0.0,0.0,0.0,0.0,0.0,0.0,0.0,0.0,0.0,0.0,0.0,0.0,0.0,0.0,0.0,0.0,0.0,0.0,0.0,0.0,0.0,0.0,0.0,0.0,0.0,0.0,0.0,0.0,0.0,0.0,0.0,0.0,0.0,0.0,0.0,0.0,0.0,0.0,0.0,0.0,0.0,0.0,0.0,0.0,0.0,0.0,0.0,0.0,0.0,0.0,0.0,0.0,0.0,0.0,0.0,0.0,0.0,0.0,0.0,0.0,0.0,0.0,0.0,0.0,0.0,0.0,0.0,6.5327,6.875,7.1915,0.0,7.4322,7.397,7.397,7.3158,6.9911,6.362,0.0,0.0,0.0,0.0,0.0,0.0,0.0,0.0,0.0,0.0,0.0,0.0,0.0,0.0,0.0,0.0,0.0,0.0,0.0,0.0,0.0,0.0,0.0,0.0,0.0,0.0,0.0,0.0,0.0,0.0,0.0,0.0,0.0,0.0,0.0,0.0,0.0,0.0,0.0,0.0,0.0,0.0,0.0,0.0,0.0,0.0,0.0,0.0,0.0,0.0,0.0,0.0,0.0,0.0,0.0,0.0,0.0,0.0,0.0,0.0,0.0,0.0,0.0,0.0,0.0,0.0,0.0,0.0,0.0,0.0,0.0,0.0,0.0,0.0,0.0,0.0,0.0,0.0,0.0,0.0,0.0,0.0,0.0,0.0,0.0,0.0,0.0,0.0,0.0,0.0,0.0,0.0,0.0,0.0,0.0,0.0,0.0,0.0,0.0,0.0,0.0,0.0,6.637,7.1431,7.4918,7.4955,7.4955,7.4955,7.4955,7.4184,7.1016,0.0,0.0,0.0,0.0,0.0,0.0,0.0,0.0,0.0,0.0,0.0,0.0,0.0,0.0,0.0,0.0,0.0,0.0,0.0,0.0,0.0,0.0,0.0,0.0,0.0,0.0,0.0,0.0,0.0,0.0,0.0,0.0,0.0,0.0,0.0,0.0,0.0,0.0,0.0,0.0,0.0,0.0,0.0,0.0,0.0,0.0,0.0,0.0,0.0,0.0,0.0,0.0,0.0,0.0,0.0,0.0,0.0,0.0,0.0,0.0,0.0,0.0,0.0,0.0,0.0,0.0,0.0,0.0,0.0,0.0,0.0,0.0,0.0,0.0,0.0,0.0,0.0,0.0,0.0,0.0,0.0,0.0,0.0,0.0,0.0,0.0,0.0,0.0,0.0,0.0,0.0,0.0,0.0,0.0,0.0,0.0,0.0,0.0,0.0,0.0,0.0,0.0,0.0,6.6437,7.1911,7.5983,7.6533,7.6607,7.6607,7.6607,7.6387,7.3276,6.6271,0.0,0.0,0.0,0.0,0.0,0.0,0.0,0.0,0.0,0.0,0.0,0.0,0.0,0.0,0.0,0.0,0.0,0.0,0.0,0.0,0.0,0.0,0.0,0.0,0.0,0.0,0.0,0.0,0.0,0.0,0.0,0.0,0.0,0.0,0.0,0.0,0.0,0.0,0.0,0.0,0.0,0.0,0.0,0.0,0.0,0.0,0.0,0.0,0.0,0.0,0.0,0.0,0.0,0.0,0.0,0.0,0.0,0.0,0.0,0.0,0.0,0.0,0.0,0.0,0.0,0.0,0.0,0.0,0.0,0.0,0.0,0.0,0.0,0.0,0.0,0.0,0.0,0.0,0.0,0.0,0.0,0.0,0.0,0.0,0.0,0.0,0.0,0.0,0.0,0.0,0.0,0.0,0.0,0.0,0.0,0.0,0.0,0.0,0.0,0.0,0.0,0.0,6.6952,7.2885,7.7268,7.7781,7.8112,7.8295,7.8295,7.8295,7.5775,6.9756,0.0,0.0,0.0,0.0,0.0,0.0,0.0,0.0,0.0,0.0,0.0,0.0,0.0,0.0,0.0,0.0,0.0,0.0,0.0,0.0,0.0,0.0,0.0,0.0,0.0,0.0,0.0,0.0,0.0,0.0,0.0,0.0,0.0,0.0,0.0,0.0,0.0,0.0,0.0,0.0,0.0,0.0,0.0,0.0,0.0,0.0,0.0,0.0,0.0,0.0,0.0,0.0,0.0,0.0,0.0,0.0,0.0,0.0,0.0,0.0,0.0,0.0,0.0,0.0,0.0,0.0,0.0,0.0,0.0,0.0,0.0,0.0,0.0,0.0,0.0,0.0,0.0,0.0,0.0,0.0,0.0,0.0,0.0,0.0,0.0,0.0,0.0,0.0,0.0,0.0,0.0,0.0,0.0,0.0,0.0,0.0,0.0,0.0,0.0,0.0,0.0,0.0,6.7817,7.4221,7.8699,7.8699,7.936,7.98,7.98,7.98,7.808,7.4188,0.0,0.0,0.0,0.0,0.0,0.0,0.0,0.0,0.0,0.0,0.0,0.0,0.0,0.0,0.0,0.0,0.0,0.0,0.0,0.0,0.0,0.0,0.0,0.0,0.0,0.0,0.0,0.0,0.0,0.0,0.0,0.0,0.0,0.0,0.0,0.0,0.0,0.0,0.0,0.0,0.0,0.0,0.0,0.0,0.0,0.0,0.0,0.0,0.0,0.0,0.0,0.0,0.0,0.0,0.0,0.0,0.0,0.0,0.0,0.0,6.3613,0.0,0.0,0.0,0.0,0.0,0.0,0.0,0.0,0.0,0.0,0.0,0.0,0.0,0.0,0.0,0.0,0.0,0.0,0.0,0.0,0.0,0.0,0.0,0.0,0.0,0.0,0.0,0.0,0.0,0.0,0.0,0.0,0.0,0.0,0.0,0.0,0.0,0.0,0.0,0.0,0.0,6.9486,7.5395,7.9543,7.9543,7.969,7.98,7.98,7.98,7.8306,7.4885,7.3171,0.0,0.0,0.0,0.0,0.0,0.0,0.0,0.0,0.0,0.0,0.0,0.0,0.0,0.0,0.0,0.0,0.0,0.0,0.0,0.0,0.0,0.0,0.0,0.0,0.0,0.0,0.0,0.0,0.0,0.0,0.0,0.0,0.0,0.0,0.0,0.0,0.0,0.0,0.0,0.0,0.0,0.0,0.0,0.0,0.0,0.0,0.0,0.0,0.0,0.0,0.0,0.0,0.0,0.0,0.0,0.0,0.0,0.0,0.0,0.0,6.4053,0.0,0.0,0.0,0.0,0.0,0.0,0.0,0.0,0.0,0.0,0.0,0.0,0.0,0.0,0.0,0.0,0.0,0.0,0.0,0.0,0.0,0.0,0.0,0.0,0.0,0.0,0.0,0.0,0.0,0.0,0.0,0.0,0.0,0.0,0.0,0.0,0.0,0.0,0.0,0.0,7.0587,7.635,8.0388,8.0388,8.0718,8.0938,8.0938,8.0938,8.0204,7.8516,7.5835,0.0,0.0,0.0,0.0,0.0,0.0,0.0,0.0,0.0,0.0,0.0,0.0,0.0,0.0,0.0,0.0,0.0,0.0,0.0,0.0,0.0,0.0,0.0,0.0,0.0,0.0,0.0,0.0,0.0,0.0,0.0,0.0,0.0,0.0,0.0,0.0,0.0,0.0,0.0,0.0,0.0,0.0,0.0,0.0,0.0,0.0,0.0,0.0,0.0,0.0,0.0,0.0,0.0,6.6187,6.6488,6.6427,6.6341,6.7764,7.0296,6.7634,6.7561,6.9009,0.0,0.0,0.0,0.0,0.0,0.0,0.0,0.0,0.0,0.0,0.0,0.0,0.0,0.0,0.0,0.0,0.0,0.0,0.0,0.0,0.0,0.0,0.0,0.0,0.0,7.0356,6.9734,0.0,0.0,0.0,0.0,0.0,0.0,0.0,0.0,0.0,0.0,0.0,0.0,7.2202,7.7524,8.1232,8.1232,8.1782,8.2186,8.2186,8.2186,8.2186,8.2186,7.8442,7.5835,0.0,0.0,0.0,0.0,0.0,0.0,0.0,0.0,0.0,0.0,0.0,0.0,0.0,0.0,0.0,0.0,0.0,0.0,0.0,0.0,0.0,0.0,0.0,0.0,0.0,0.0,0.0,0.0,0.0,0.0,0.0,0.0,5.8403,5.9902,0.0,0.0,0.0,0.0,0.0,0.0,0.0,0.0,0.0,0.0,0.0,0.0,0.0,6.6524,6.8342,7.061,7.1924,7.2358,7.2318,7.2257,7.2257,7.1444,7.1232,7.1624,7.1375,0.0,7.0954,7.0293,0.0,0.0,0.0,0.0,0.0,0.0,0.0,0.0,0.0,0.0,0.0,0.0,0.0,0.0,0.0,0.0,0.0,0.0,0.0,0.0,0.0,0.0,7.4597,7.4286,7.4932,7.5062,0.0,6.8978,6.5499,6.4574,6.509,0.0,0.0,0.0,0.0,0.0,0.0,0.0,7.6166,7.9764,8.2039,8.2039,8.215,8.2186,8.2186,8.2186,8.2186,8.2186,8.1607,7.9262,7.4795,7.3221,0.0,0.0,0.0,0.0,0.0,0.0,0.0,0.0,0.0,0.0,0.0,0.0,0.0,0.0,0.0,0.0,0.0,0.0,0.0,0.0,0.0,0.0,0.0,0.0,0.0,0.0,0.0,0.0,0.0,5.6978,5.8106,5.9979,5.9284,5.8755,0.0,0.0,0.0,0.0,0.0,0.0,0.0,0.0,0.0,6.7653,6.751,6.8398,7.0445,7.2135,7.264,7.1908,7.2405,7.2726,7.3058,7.2633,7.3167,7.4482,7.4577,7.444,7.4068,7.2121,7.0051,6.7976,0.0,0.0,0.0,0.0,6.5077,6.5488,6.8027,6.9064,0.0,6.8823,0.0,0.0,0.0,0.0,0.0,0.0,0.0,0.0,0.0,0.0,0.0,7.5555,7.6432,7.6747,7.5649,7.428,7.2183,0.0,6.8099,6.7487,6.4603,0.0,0.0,0.0,0.0,7.5909,7.7781,8.0461,8.2186,8.2186,8.2186,8.2186,8.2186,8.2186,8.2186,8.2186,8.1647,8.0295,7.8024,7.4835,7.122,0.0,0.0,0.0,0.0,0.0,0.0,0.0,0.0,0.0,0.0,0.0,0.0,0.0,0.0,0.0,0.0,0.0,0.0,0.0,0.0,0.0,0.0,0.0,0.0,0.0,0.0,0.0,0.0,5.7808,5.8909,6.0529,6.0497,6.0311,0.0,0.0,0.0,0.0,0.0,0.0,6.7323,6.72,6.8291,7.07,6.9847,7.0306,7.2443,7.3583,7.3617,7.245,7.2952,7.3552,7.4132,7.3926,7.4682,7.6137,7.6419,7.634,7.59,7.356,7.219,7.1277,6.9901,6.8475,6.7317,6.848,6.8949,6.9317,7.1765,7.2458,7.2215,7.2294,0.0,7.0269,6.9241,0.0,0.0,0.0,0.0,6.8552,7.1792,7.3342,7.4597,7.6479,7.7577,7.8031,7.7006,7.7509,7.7011,0.0,7.2233,7.133,6.776,0.0,0.0,0.0,0.0,7.8112,7.936,8.1085,8.2186,8.2186,8.2186,8.2186,8.2186,8.2186,8.2186,8.2186,8.1474,8.0768,8.0182,7.6517,7.3565,7.1705,0.0,0.0,0.0,0.0,0.0,0.0,0.0,0.0,0.0,0.0,0.0,0.0,0.0,0.0,0.0,0.0,0.0,0.0,0.0,0.0,0.0,0.0,0.0,0.0,0.0,0.0,0.0,0.0,0.0,6.2401,6.2973,0.0,0.0,0.0,0.0,6.4512,6.5308,6.6067,6.6792,6.681,6.7862,7.0187,7.1744,7.2936,7.3816,7.5539,7.6859,7.7775,7.6859,7.697,7.7883,7.6965,7.5986,7.5219,7.6217,7.6057,7.51,7.5935,7.4448,7.1583,7.0784,6.8601,6.6058,6.8302,6.9118,6.956,7.2428,7.3481,7.3424,7.3424,7.2463,7.1291,7.127,6.9682,0.0,0.0,7.2887,7.2994,7.6982,7.8653,7.9096,7.8156,7.9574,8.0422,7.7841,7.6799,7.6642,0.0,7.8602,7.849,7.5922,0.0,7.6974,7.69,7.7818,7.936,8.1709,8.2113,8.2186,8.2186,8.2186,8.2186,8.2186,8.2186,8.2186,8.2186,8.2121,8.123,7.9143,7.8842,7.6384,7.1367,7.0432,0.0,0.0,0.0,0.0,0.0,0.0,0.0,0.0,0.0,0.0,0.0,0.0,0.0,0.0,0.0,0.0,0.0,0.0,0.0,0.0,0.0,0.0,0.0,0.0,0.0,0.0,0.0,0.0,6.3068,6.3837,0.0,0.0,6.5335,6.6051,6.6051,6.8234,6.9889,7.0595,7.111,7.2271,7.4264,7.3637,7.3685,7.4633,7.5213,7.5436,7.5169,7.5436,7.5715,7.5863,7.5552,7.6104,7.7354,7.7752,7.798,7.8029,7.8433,7.7097,7.4712,7.4545,7.3677,7.2833,7.4194,7.4682,7.4926,7.6496,7.6851,7.6725,7.6469,7.6096,7.5696,7.5696,7.515,7.4798,7.6188,7.6759,7.7205,7.7964,7.8878,7.9327,7.8235,7.8927,7.9683,7.8923,7.8909,7.9164,7.9365,7.852,7.7591,7.6972,7.8883,7.9947,7.8369,7.9727,8.1232,8.2076,8.2186,8.2186,8.2186,8.2663,8.2774,8.2223,8.2016,8.1704,8.1196,7.9844,7.8705,7.7907,7.7248,7.6028,7.4153,7.439,7.1853,0.0,0.0,0.0,0.0,0.0,0.0,0.0,0.0,0.0,0.0,0.0,0.0,0.0,0.0,0.0,0.0,0.0,0.0,0.0,0.0,0.0,0.0,0.0,0.0,0.0,0.0,6.2802,6.378,6.4561,6.5231,6.5677,6.6609,6.7489,6.8267,7.055,7.2244,7.3,7.3482,7.4274,7.5484,7.4432,7.4286,7.5269,7.5544,7.5639,7.5583,7.6203,7.6622,7.6781,7.6781,7.7603,7.8895,7.8895,7.9026,7.9177,7.9177,7.8266,7.7004,7.7004,7.7004,7.7039,7.7682,7.7891,7.7961,7.8449,7.8568,7.8304,7.8065,7.7976,7.7976,7.7976,7.7976,7.8044,7.828,7.8865,7.9342,7.885,7.959,8.0086,7.8982,7.9454,7.9946,7.954,8.0086,8.0657,8.054,7.9373,7.8311,7.8055,8.0121,8.1057,7.8792,8.0121,8.1387,8.1276,8.1806,8.2296,8.259,8.2983,8.3034,8.2486,8.1454,8.082,8.082,7.8941,7.7893,7.8098,7.6599,7.5739,7.5337,7.6115,7.3781,6.8301,0.0,0.0,0.0,0.0,0.0,0.0,0.0,0.0,0.0,0.0,0.0,0.0,0.0,0.0,0.0,0.0,0.0,0.0,0.0,0.0,0.0,0.0,0.0,6.1434,6.3294,6.4681,6.4749,6.5392,6.6373,6.7827,6.7996,6.8977,7.1176,7.2022,7.2766,7.3477,7.3544,7.3578,7.3671,7.4322,7.5067,7.5838,7.6555,7.7775,7.9567,7.9567,8.007,8.1118,8.1118,8.056,7.9602,7.9602,7.9025,7.8142,7.8142,7.8142,7.8044,7.801,7.7976,7.7976,7.7976,7.7976,7.7976,7.801,7.801,7.801,7.8044,7.8044,7.8044,7.8044,7.8044,7.8213,7.8923,7.916,7.9295,8.0006,8.1063,8.1535,8.0442,8.1029,8.1362,7.9559,7.9967,8.0921,8.1246,8.1555,8.1271,7.9757,8.0344,8.0393,7.8632,7.9245,0.0,7.9645,8.1141,8.2488,8.3221,8.3048,8.2857,8.2785,8.0463,7.9645,8.1047,7.9822,7.915,7.9498,7.7421,7.575,7.4762,7.5337,7.4931,7.3544,0.0,0.0,0.0,0.0,0.0,0.0,0.0,0.0,0.0,0.0,0.0,0.0,0.0,0.0,0.0,0.0,0.0,0.0,0.0,0.0,0.0,0.0,6.3869,6.441,6.5459,6.6609,6.7726,6.8504,6.9113,6.9519,7.0534,7.1413,7.2056,7.2766,7.351,7.4255,7.4796,7.5773,7.7043,7.7067,7.7577,7.8523,7.7986,7.7968,7.8394,7.8394,7.8552,7.8897,7.8897,7.9452,8.0454,8.0454,8.0617,8.0854,8.0854,8.035,7.9498,7.8416,7.7976,7.7976,7.7976,7.7976,7.8077,7.8619,7.8822,7.8889,7.9431,7.96,7.96,7.96,7.96,7.9634,7.9837,7.9904,7.9938,8.0141,8.0442,8.0641,8.0276,8.0442,8.0573,8.0039,8.0137,8.0452,8.0866,8.2079,8.2886,8.2385,8.1408,8.0978,8.1861,8.2238,0.0,8.1997,8.2396,8.2105,8.0386,8.1648,8.1835,8.0242,8.0204,8.021,8.007,7.8913,7.8298,7.849,7.7782,7.7652,7.7874,7.5371,7.4424,0.0,0.0,0.0,0.0,0.0,0.0,0.0,0.0,0.0,0.0,0.0,0.0,0.0,0.0,0.0,0.0,0.0,0.0,0.0,0.0,0.0,0.0,6.4343,6.6373,6.7421,6.7692,6.8233,6.9417,6.9925,7.0432,7.1041,7.1616,7.2326,7.324,7.3409,7.4086,7.5506,7.598,7.687,7.8211,7.8094,7.8468,7.9377,7.8808,7.8619,7.8923,7.8923,7.8923,7.8923,7.8923,7.9488,0.0,8.0569,8.081,8.1222,8.1222,8.0804,0.0,0.0,0.0,0.0,0.0,7.8923,7.8957,7.9431,7.9566,7.9634,8.0073,8.0209,8.0209,8.0209,8.0209,8.0209,8.0209,8.0209,8.0209,8.0209,8.0209,8.0209,8.0209,8.0209,8.0276,8.0581,8.1018,8.1571,8.2034,8.281,0.0,8.3826,8.3048,8.2104,8.1635,8.192,8.1889,8.1204,8.1755,8.1719,8.0587,8.15,8.1612,8.0279,7.9809,0.0,0.0,0.0,7.7841,7.7536,7.7536,0.0,0.0,0.0,0.0,0.0,0.0,0.0,0.0,7.4119,7.3646,0.0,0.0,0.0,0.0,0.0,0.0,0.0,0.0,0.0,0.0,0.0,0.0,0.0,0.0,0.0,0.0,6.6271,6.8673,7.0094,6.9823,6.9688,7.0263,7.0398,7.0906,7.2157,7.1921,7.2496,7.4458,7.4153,7.4796,7.6893,0.0,0.0,0.0,0.0,7.8551,7.9228,7.9228,7.9566,8.0209,8.0209,8.0209,8.0209,8.0209,8.0209,8.0209,8.0209,8.0209,8.0209,8.0209,8.0209,8.0209,8.0209,8.0209,8.0209,8.0209,8.0209,8.0209,8.0209,0.0,0.0,8.0209,8.0209,8.0209,8.0209,8.0209,8.0209,8.0209,8.0209,8.0209,8.0209,8.0209,8.0209,8.0209,8.0209,8.0378,8.1021,8.2026,8.3071,8.3789,8.3642,8.3566,8.4441,8.4397,8.323,7.9968,8.0381,8.0477,7.9058,8.0384,8.1577,8.1817,0.0,0.0,8.1481,7.9542,7.8923,8.0242,7.9092,7.8077,7.7435,7.7333,7.6623,7.527,7.6589,7.7976,7.9363,8.0006,8.0682,8.1291,7.6487,7.6048,0.0,0.0,0.0,0.0,0.0,0.0,0.0,0.0,0.0,0.0,0.0,0.0,0.0,0.0,0.0,6.6034,6.8199,7.006,7.0973,7.1481,7.1582,7.1142,7.1616,7.1853,7.1548,7.3003,7.4153,7.4593,7.5608,7.669,7.7705,7.8348,0.0,7.8889,7.9464,7.9837,8.0006,8.0006,8.0073,8.0209,0.0,0.0,8.0209,8.0209,8.0209,8.0209,8.0209,8.0209,8.0209,8.0209,8.0209,8.0209,8.0209,8.0209,8.0209,8.0209,8.0209,8.0209,8.0209,8.0209,8.0209,8.0209,8.0209,8.0209,8.0209,8.0209,0.0,8.0209,8.0209,8.0209,8.0209,8.0209,8.0209,8.0209,8.0209,8.0242,8.0378,8.1054,8.193,8.3037,8.4127,8.4819,8.4705,8.335,8.2453,8.2567,8.3558,8.3593,8.1457,8.2401,8.2085,7.9145,7.9824,8.0066,7.8842,7.9969,8.075,8.1054,8.0818,8.0581,8.0445,7.987,7.9431,7.9126,7.9397,8.0006,8.0851,8.1021,8.146,8.2137,7.9938,7.9295,0.0,0.0,0.0,0.0,0.0,0.0,0.0,0.0,0.0,0.0,0.0,6.3193,0.0,0.0,6.7049,6.7827,6.9823,7.1413,7.1819,7.2496,7.28,7.2428,7.2732,7.28,7.2428,7.3409,7.4356,7.51,7.5845,7.6961,7.8483,7.8923,7.9295,7.9634,8.0006,8.0209,8.0209,8.0209,8.0209,8.0209,8.0209,8.0209,8.0209,8.0209,8.0209,8.0209,8.0209,8.0209,8.0209,8.0209,8.0209,8.0209,8.0209,8.0209,8.0209,8.0209,8.0209,8.0209,8.0209,8.0209,8.0209,8.0209,8.0209,8.0209,8.0209,7.9938,7.9667,7.9667,7.9363,7.9092,7.9092,7.9092,7.9092,7.9092,7.9363,7.9769,8.0107,8.0784,8.1563,8.2474,8.3323,8.3796,8.3555,8.2755,8.2239,8.2621,8.367,8.3585,8.1283,8.1569,8.1199,7.9259,8.0073,8.0445,7.9701,8.0987,8.1832,8.1832,8.1832,8.1832,8.1832,8.1494,8.1291,8.1291,8.1291,8.1494,8.1832,8.1832,8.2035,8.2408,8.1629,8.1291,0.0,0.0,0.0,0.0,0.0,0.0,0.0,0.0,6.3328,6.3632,6.4749,6.5865,6.644,6.7658,6.8808,6.962,7.1244,7.2496,7.28,7.3341,7.3815,7.4119,7.3883,7.3578,7.3308,7.3815,7.4627,7.5845,7.6183,7.7232,7.9228,7.9329,7.96,8.0175,8.0209,8.0209,8.0209,8.0209,8.0209,8.0209,8.0209,8.0209,8.0209,8.0344,8.0412,8.0412,8.0581,8.0547,8.0412,8.0581,8.0378,8.0006,8.0141,8.0006,7.9803,8.0073,8.0209,8.0175,8.004,8.0006,8.0006,8.0006,8.0006,8.0006,8.0175,7.9803,7.9329,7.9329,7.8889,7.845,7.8585,7.8619,7.8653,7.8822,7.9194,7.9701,8.0276,8.0885,8.146,8.2069,8.2306,8.2374,8.2205,8.2377,8.2308,8.1853,8.2726,8.2656,8.0476,8.0376,8.051,8.0378,8.0953,8.1393,8.1697,8.2272,8.2678,8.2847,8.2712,8.2611,8.2611,8.2475,8.2408,8.2408,8.2408,8.2408,8.2408,8.2408,8.2408,8.2408,8.2408,8.2408,6.0588,0.0,0.0,6.2144,6.3565,6.5324,0.0,0.0,6.6711,6.8064,6.9011,6.9586,6.9654,7.0364,7.1176,7.1921,7.2225,7.2868,7.4187,7.4424,7.4999,7.6352,7.5303,7.3984,7.2665,7.4965,7.6589,7.6758,7.7976,7.9126,8.004,8.0073,8.0107,8.0209,8.0209,8.0209,8.0209,8.0209,8.0209,8.0209,8.0209,8.0209,8.0209,8.0885,8.1156,8.119,8.1866,8.1765,8.1224,8.1866,8.1021,7.9295,7.9938,7.9397,7.8382,7.9701,8.0209,8.0107,7.9464,7.9228,7.9228,7.9228,7.9228,7.9363,8.0006,8.0141,8.0073,8.0073,8.0006,8.0107,8.075,8.0919,8.1088,8.1765,8.146,8.1054,8.1156,8.1224,8.1291,8.1393,8.1934,8.2205,8.1528,8.2296,8.2583,8.1528,8.228,8.2423,8.0444,8.1029,8.1524,8.119,8.1224,8.1799,8.3152,8.3321,8.3659,8.4336,8.3761,8.3389,8.3389,8.2746,8.2408,8.2408,8.2408,8.2408,8.2408,8.2408,8.2408,8.2408,8.2408,8.2408,6.3903,0.0,0.0,0.0,6.6305,6.6745,6.8267,6.8368,6.8436,6.9519,7.0331,7.0973,7.1379,7.1718,7.2191,0.0,7.3409,7.3747,7.3916,7.51,7.5676,7.4999,7.5506,7.5709,7.5067,7.5743,7.6555,7.7468,7.8517,7.9431,8.0175,8.0209,8.0209,8.0209,8.0209,8.0209,8.0209,8.0209,8.0412,8.0818,8.0818,8.1054,8.1494,8.1799,8.1934,8.1968,8.2272,8.1968,8.1291,8.1629,8.0953,7.9769,8.0073,8.0073,7.9837,7.916,7.9194,7.96,7.9701,7.9735,7.987,8.075,8.075,8.0513,8.1257,8.119,8.0818,8.0818,8.0513,8.0276,8.0581,8.0344,8.0107,8.0412,8.0242,8.0006,8.0006,8.0344,8.0648,8.0648,8.0919,8.1021,8.0716,8.1458,8.1796,8.136,8.1845,8.1991,8.0986,8.1254,8.1796,8.2545,8.2577,8.2983,8.4065,8.4167,8.4302,8.4606,8.4336,8.4167,8.4167,8.3862,8.3693,8.3693,8.3693,8.3693,8.3693,8.3693,8.3693,8.3693,8.3693,8.3693,6.6068,0.0,0.0,6.8571,6.8571,6.8335,6.9451,6.9722,6.9857,7.0398,7.1109,7.1785,7.2293,7.2563,0.0,7.368,7.4255,7.4492,7.4153,7.5506,7.6048,7.4593,7.5709,7.6724,7.7164,7.669,7.686,7.8213,7.8991,7.9634,8.0175,8.0209,8.0209,8.0209,8.0209,8.0209,8.0209,8.0412,8.075,8.1291,8.1494,8.1866,8.2408,8.2611,8.2813,8.3016,8.2813,8.2272,8.1596,8.1596,8.0919,7.9938,8.0107,8.0276,8.0175,7.8585,7.8855,8.0073,8.0378,8.0513,8.0682,8.1765,8.1596,8.1122,8.1866,8.1562,8.0987,8.0987,8.0615,8.0242,8.0445,8.0107,7.9769,7.9972,7.987,7.9701,7.9701,7.9972,8.0209,8.0209,8.0344,8.0513,8.0513,8.1122,8.1596,8.1596,8.1825,8.1948,8.1597,8.1765,8.2306,8.3389,8.3693,8.4031,8.4573,8.464,8.464,8.464,8.464,8.4708,8.4945,8.4945,8.5046,8.5249,8.5249,8.5249,8.5249,8.5249,8.5249,8.5249,8.5046,8.4945,0.0,0.0,6.7151,6.8707,7.0161,7.121,7.1244,7.1244,7.1244,7.1278,7.1853,7.236,7.2394,7.2969,7.3713,7.4458,7.4593,7.4864,7.554,7.5676,7.598,7.6724,7.6183,7.6318,0.0,7.7942,7.8247,7.9025,7.9769,8.0175,8.0209,8.0209,8.0209,8.0209,8.0209,8.0209,8.0209,8.0885,8.1257,8.1291,8.2035,8.2408,8.2441,8.3152,8.3862,8.4505,8.3795,8.305,8.2374,8.2374,8.1088,7.9228,7.9938,7.9329,7.8077,7.801,7.9803,8.2205,8.1494,8.1257,8.1257,8.1291,8.0818,8.0378,8.1088,8.0818,8.0242,8.0242,8.0209,8.0344,8.1054,8.1224,8.1393,8.2137,8.1731,8.1224,8.1224,8.0682,8.0209,8.0209,8.0784,8.1257,8.1257,8.1866,8.2374,8.2374,8.234,8.234,8.2374,8.2983,8.3456,8.349,8.4167,8.4606,8.464,8.464,8.464,8.464,8.464,8.4945,8.5723,8.5757,8.6095,8.6839,8.6839,8.6839,8.6839,8.6839,8.6839,8.6839,8.6095,8.5757,0.0,0.0,6.8808,7.0804,7.165,7.2157,7.2665,7.2766,7.2766,7.2766,7.3341,7.4018,7.4492,7.4796,7.5202,7.6014,7.6149,7.5879,7.51,7.669,7.7333,7.5574,7.6454,0.0,0.0,0.0,0.0,7.9025,7.9329,7.9701,8.0175,8.0209,8.0209,8.0209,8.0648,8.0919,8.0919,8.1663,8.2035,8.2035,8.2272,8.2408,8.2408,8.2678,8.2915,8.3152,8.2881,8.234,8.1663,8.1663,8.0953,7.987,8.0107,8.0175,8.0175,8.0175,8.1122,8.2238,8.0987,8.0547,8.0716,8.1697,8.1528,8.1054,8.1799,8.1866,8.1663,8.1663,8.2002,8.2441,8.2678,8.2408,8.2205,8.2949,8.2171,8.1426,8.1934,8.1832,8.1663,8.1663,8.1866,8.2035,8.2035,8.2644,8.3287,8.3795,8.3456,8.3118,8.3118,8.3795,8.4234,8.4234,8.4471,8.464,8.464,8.508,8.5384,8.5384,8.5858,8.6264,8.6535,8.6535,8.667,8.6907,8.6907,8.6907,8.6907,8.6907,8.6907,8.6907,8.667,8.6535,0.0,6.9891,7.0364,7.2293,7.28,7.2902,7.3375,7.3477,7.3477,7.3477,7.4289,7.5134,7.5608,7.6149,7.669,7.7198,7.7299,7.686,7.5608,7.7096,7.7502,7.527,7.6284,7.6995,0.0,0.0,0.0,7.8991,7.9126,7.9431,8.0175,8.0209,8.031,8.0581,8.1054,8.1426,8.1697,8.2171,8.2408,8.2408,8.2408,8.2408,8.2408,8.2408,8.2408,8.2408,8.2137,8.1731,8.1257,8.1021,8.0615,8.0209,8.0209,8.0479,8.0885,8.0885,8.1224,8.1562,8.1122,8.0987,8.1156,8.2103,8.19,8.1393,8.1866,8.1832,8.1663,8.1934,8.234,8.2746,8.305,8.2949,8.2915,8.3389,8.2983,8.2611,8.3084,8.3219,8.3219,8.3219,8.3422,8.3625,8.3625,8.3998,8.4471,8.4979,8.4403,8.3896,8.3896,8.4336,8.464,8.464,8.464,8.4742,8.5012,8.5486,8.5892,8.6163,8.6636,8.7042,8.7279,8.7279,8.7414,8.7685,8.7685,8.7685,8.7685,8.7685,8.7685,8.7685,8.7414,8.7279,7.0804,7.1413,7.1751,7.3206,7.3544,7.3544,7.3578,7.3578,7.3544,7.3578,7.4728,7.5709,0.0,0.0,7.801,7.8044,7.8044,7.7773,7.6995,7.6961,7.669,0.0,0.0,0.0,0.0,0.0,0.0,7.8889,0.0,7.9497,8.0209,8.0343,8.0648,8.1257,8.1359,8.1731,8.2408,8.2408,8.2408,8.234,8.2306,8.2306,8.2306,8.2306,8.2306,8.2272,8.1528,8.1224,8.119,8.0513,8.0242,8.0242,8.031,8.031,8.031,8.031,8.031,8.0513,8.1934,8.2374,8.2306,8.2306,8.1832,8.1291,8.1291,8.0851,8.0513,8.119,8.146,8.1663,8.2408,8.3084,8.3625,8.3659,8.42,8.4708,8.4742,8.4742,8.4742,8.4742,8.5317,8.5824,8.579,8.579,8.579,8.579,8.5182,8.4708,8.464,8.464,8.464,8.4674,8.4674,8.5012,8.579,8.5858,8.6196,8.6907,8.7008,8.7347,8.8023,8.8057,8.8395,8.9072,8.9072,8.9072,8.9072,8.9072,8.9072,8.9072,8.8395,8.8125,7.2462,7.2935,7.3172,7.4086,7.4322,7.4458,7.4999,7.4728,7.4492,7.5033,7.5439,7.6048,0.0,0.0,0.0,7.872,7.8822,0.0,7.7096,7.7841,0.0,0.0,0.0,7.6352,7.5743,7.5709,0.0,0.0,7.9016,8.0028,8.0987,8.1787,8.1953,8.1257,8.2374,8.278,8.2408,8.2408,8.2137,8.1562,8.1021,8.075,8.075,8.075,8.075,8.075,8.0547,8.0479,8.0513,8.0851,8.1021,8.1054,8.1629,8.1832,8.1832,8.1832,8.1832,8.19,8.2272,8.1697,8.075,8.075,8.0987,8.1291,8.1291,8.1934,8.2712,8.2881,8.3761,8.4674,8.4877,8.5046,8.5351,8.5892,8.5757,8.5621,8.6196,8.6332,8.6332,8.6332,8.6501,8.6433,8.5892,8.579,8.579,8.579,8.6095,8.5926,8.4776,8.464,8.4843,8.5418,8.5486,8.579,8.6569,8.711,8.7516,8.7719,8.8226,8.8598,8.8801,8.8801,8.8903,8.9072,8.9072,8.9072,8.9072,8.9072,8.9072,8.9106,8.9478,8.9647,7.4052,7.4458,7.4559,7.4999,7.51,7.5202,7.5608,7.5371,7.5202,7.5608,7.598,0.0,0.0,0.0,0.0,0.0,0.0,0.0,7.8044,7.8585,7.8416,0.0,7.6623,0.0,7.5777,7.6014,7.686,0.0,7.9064,7.998,8.1292,8.2203,8.2645,8.2238,8.305,8.3152,8.2408,8.2069,8.1528,8.0818,8.0716,8.0513,8.0209,8.0547,8.0682,8.0682,0.0,8.0851,8.119,8.1596,8.1765,8.1832,8.2238,8.2611,8.2881,8.2881,8.3084,8.3389,8.3389,8.2847,8.2103,8.1765,8.1934,8.2306,8.2644,8.3321,8.4065,8.4403,8.5114,8.5858,8.6196,8.6501,8.6873,8.7279,8.7313,8.7347,8.7786,8.7854,8.7854,8.7854,8.7854,8.7719,8.7313,8.7245,8.7245,8.7245,8.7583,8.755,8.6704,8.6569,8.6738,8.7177,8.7245,8.7414,8.782,8.8226,8.8463,8.8463,8.8869,8.9072,8.9072,8.9072,8.9072,8.9072,8.941,8.941,8.9072,8.941,8.9579,8.9579,9.0019,9.0391,7.5337,7.5709,7.5709,7.5709,7.5709,7.5709,7.5709,7.5608,7.5574,7.5676,0.0,0.0,7.7807,0.0,7.9228,8.0073,0.0,7.9938,7.9228,7.9126,7.8585,7.7198,7.6961,7.6623,7.5912,7.6487,7.7502,7.8991,7.9295,8.004,8.1494,8.2275,8.292,8.3456,8.3321,8.2949,8.2408,8.1663,8.0953,8.0344,8.0885,8.0851,8.0378,8.0987,8.1291,8.1291,8.1393,0.0,8.2408,8.2509,8.2543,8.2577,8.278,8.3253,8.3828,8.393,8.437,8.4945,8.4945,8.4945,8.4776,8.393,8.3727,8.393,8.4573,8.4911,8.5215,8.5892,8.6129,8.6366,8.7042,8.7685,8.8158,8.8158,8.8632,8.9072,8.9072,8.9072,8.9072,8.9072,8.9072,8.9072,8.9072,8.9072,8.9106,8.9207,8.9309,8.941,8.9512,8.9275,8.9106,8.9241,8.9241,8.9275,8.9376,8.9376,8.9342,8.9241,8.9241,8.9241,8.9241,8.9241,8.9241,8.9241,8.9985,8.9918,8.9072,8.9951,9.029,9.0222,9.0425,9.0831,7.5642,7.5709,7.5709,7.5709,7.5709,7.5709,7.5709,7.5236,0.0,0.0,0.0,7.5608,7.7604,7.8077,0.0,7.9972,0.0,0.0,0.0,0.0,7.8788,0.0,0.0,0.0,0.0,0.0,0.0,0.0,0.0,8.1562,8.305,8.3529,8.3697,8.3456,8.2306,8.19,8.2408,8.1663,8.1224,8.1088,8.0615,8.0648,8.1088,8.1224,8.1291,8.1325,8.1934,0.0,8.2475,8.305,8.3321,8.3422,8.4708,8.5283,8.5452,8.6095,8.6399,8.6501,8.6501,8.6501,8.6298,8.4877,8.4877,8.5418,8.5554,8.6433,8.7448,8.7583,8.8057,8.8531,8.8666,8.8801,8.8903,8.8903,8.9004,8.9072,8.9072,8.9072,8.9072,8.9072,8.9072,8.9072,8.9072,8.9072,8.9309,8.9918,9.0527,9.1135,9.1778,9.0222,8.9309,8.9951,9.0019,9.0256,9.0865,9.0899,9.0662,9.0053,9.0019,9.0019,9.0019,9.0019,9.0019,9.0019,9.0729,9.0425,8.9072,9.0425,9.0797,9.0256,9.1474,9.2116,7.5236,7.5405,7.5709,7.5709,7.5709,7.5709,7.5709,0.0,0.0,0.0,0.0,7.5642,7.713,0.0,0.0,0.0,0.0,0.0,0.0,0.0,0.0,0.0,0.0,0.0,0.0,0.0,0.0,0.0,0.0,8.2171,8.2881,8.3126,8.3091,8.2915,8.1866,8.146,8.1832,8.146,8.1291,8.1291,8.1697,8.19,8.19,8.2272,8.2441,8.2441,8.2813,0.0,8.3592,8.393,8.4065,8.4167,8.4877,8.5418,8.5892,8.6636,8.7144,8.7516,8.7922,8.8023,8.7922,8.7177,8.6941,8.7008,8.738,8.7989,8.8564,8.8564,8.8801,8.9072,8.9072,8.9072,8.9072,8.9072,8.9072,8.9072,8.9072,8.9072,8.9072,8.9072,8.941,8.9681,8.9681,9.0896,9.1698,9.1419,9.2566,9.3372,9.3079,9.2083,9.1575,9.1913,9.1981,9.1947,9.188,9.188,9.1575,9.0831,9.0763,9.0763,9.0763,9.0763,9.0763,9.0763,9.1508,9.1338,9.0222,9.1338,9.1711,9.1372,9.2083,9.2624,7.4965,7.527,7.5709,7.5709,7.5845,7.5912,7.5743,7.5845,0.0,0.0,0.0,7.5946,7.6758,0.0,0.0,0.0,0.0,0.0,0.0,0.0,0.0,0.0,0.0,0.0,0.0,0.0,0.0,0.0,0.0,0.0,8.2171,8.2171,8.2171,8.2171,8.1596,8.1529,8.1969,8.1699,8.18,8.214,8.285,8.305,8.2678,8.3253,8.349,8.3524,8.3659,0.0,0.0,8.464,8.464,8.464,8.4809,8.5249,8.5892,8.6805,8.7516,8.8091,8.8835,8.9072,8.9072,8.9072,8.87,8.8328,8.8903,8.9072,8.9072,8.9072,8.9072,8.9072,8.9072,8.9072,8.9072,8.9072,8.9072,8.914,8.9275,8.9342,8.9376,8.9512,9.0053,9.0606,9.1047,9.2715,9.3759,9.3134,9.4258,9.4747,9.3689,9.3571,9.3571,9.3571,9.3571,9.3334,9.2725,9.2658,9.2353,9.1575,9.1541,9.1541,9.1541,9.1541,9.1541,9.1541,9.2286,9.2218,9.1305,9.2218,9.259,9.2421,9.259,9.2996,7.5439,7.5642,7.5709,7.5709,7.6251,7.6589,7.5879,0.0,0.0,0.0,7.5709,7.5946,7.6758,0.0,0.0,0.0,0.0,0.0,0.0,0.0,0.0,0.0,0.0,0.0,0.0,0.0,0.0,0.0,0.0,0.0,8.1426,8.1393,8.1393,8.1393,8.1325,8.2137,8.3962,8.2819,8.3194,8.4903,8.3296,8.2813,8.3389,8.3456,8.349,8.3524,8.4234,0.0,0.0,8.464,8.464,8.4708,8.5384,8.5723,8.596,8.738,8.7955,8.8091,8.8835,8.9072,8.9072,8.9072,8.9038,8.9004,8.9072,8.9072,8.9072,8.9072,8.9072,8.9072,8.9072,8.9072,8.9072,8.9072,8.9072,8.9275,8.9951,9.0121,9.029,9.0966,9.1135,9.1795,9.3675,9.3211,9.3134,9.4917,9.4409,9.3689,9.3571,9.3571,9.3571,9.3571,9.3571,9.3571,9.347,9.347,9.3131,9.2353,9.2319,9.2319,9.2319,9.2319,9.2319,9.2319,9.3064,9.2759,9.1305,9.2759,9.3098,9.2455,9.3131,9.3503,7.4424,7.4999,7.5709,7.5709,7.6284,7.669,7.5879,0.0,0.0,7.5879,7.5709,7.5811,7.6115,0.0,0.0,0.0,0.0,0.0,0.0,0.0,0.0,0.0,0.0,0.0,0.0,0.0,0.0,0.0,0.0,0.0,8.1737,8.095,8.1188,8.232,8.2418,8.2956,8.4127,8.4161,8.4211,8.4216,8.3835,8.3896,8.4167,8.4865,8.5238,8.5238,8.6275,0.0,0.0,8.6803,8.635,8.5787,8.6577,8.6434,8.596,8.7448,8.7989,8.8091,8.8835,8.9072,8.914,8.9613,8.9748,8.9681,8.9207,8.9072,8.9072,8.9072,8.9072,8.9072,8.9072,8.9072,8.9207,8.9647,8.9748,8.9951,9.0696,9.0865,9.0966,9.1237,9.1677,9.228,9.3054,9.3768,9.4292,9.4329,9.4556,9.4443,9.3689,9.3571,9.3571,9.3571,9.3571,9.3571,9.3571,9.3571,9.3436,9.3131,9.3131,9.3131,9.3131,9.3131,9.3131,9.3131,9.3436,9.33,9.2692,9.33,9.3436,9.3131,9.3436,9.3571,7.4086,7.4762,7.5439,7.5642,7.6284,7.669,0.0,0.0,0.0,7.5879,7.5709,7.5709,7.5709,7.6792,0.0,0.0,0.0,7.9938,8.0175,8.0818,8.1088,0.0,0.0,0.0,0.0,0.0,0.0,0.0,0.0,0.0,0.0,8.1914,8.1708,8.3018,8.3564,8.4144,8.5007,8.5076,8.4828,8.4352,8.4898,8.517,8.517,8.6414,8.6961,8.6961,8.7861,0.0,0.0,8.7712,8.6961,8.5921,8.6506,8.6164,8.5621,8.711,8.782,8.8125,8.9072,8.9545,8.9816,9.0357,9.0527,9.0425,8.9884,8.9748,8.9681,8.9478,8.941,8.9478,8.9681,8.9748,8.9884,9.0391,9.0527,9.0729,9.1474,9.1643,9.1711,9.1913,9.2387,9.2842,9.3236,9.4179,9.4747,9.4249,9.4635,9.4747,9.4249,9.3889,9.3772,9.4168,9.3772,9.3571,9.3571,9.3571,9.3571,9.3571,9.3571,9.3571,9.3571,9.3571,9.3571,9.3571,9.3571,9.3571,9.3571,9.3571,9.3571,9.3571,9.3571,9.3571,7.5067,7.5168,7.4796,7.5506,7.6284,7.669,0.0,0.0,0.0,7.5879,7.5709,7.5709,7.5709,7.6352,7.7164,7.7874,0.0,0.0,0.0,0.0,0.0,0.0,0.0,0.0,0.0,0.0,0.0,0.0,0.0,0.0,0.0,8.4318,8.3113,8.3113,8.4508,8.5904,8.7055,8.5408,8.524,8.6414,8.6414,8.6414,8.6414,8.7585,8.8133,0.0,0.0,0.0,0.0,8.6449,8.5753,8.4606,8.464,8.464,8.4809,8.6366,8.738,8.8192,8.9681,9.0662,9.1271,9.1271,9.1271,9.1271,9.1271,9.1271,9.1102,9.0391,9.0188,9.0357,9.1102,9.1271,9.1271,9.1271,9.1271,9.1474,9.2252,9.2421,9.2624,9.3402,9.3571,9.3937,9.5309,9.4443,9.4053,9.5309,9.4443,9.4053,9.5309,9.4363,9.4053,9.5309,9.4363,9.3571,9.3571,9.3571,9.3571,9.3571,9.3571,9.3571,9.3571,9.3571,9.3571,9.3571,9.3571,9.3571,9.3571,9.3571,9.3571,9.3571,9.3571,9.3571,7.3984,7.4762,7.5168,7.439,7.554,7.6555,7.527,0.0,0.0,0.0,7.5709,7.5709,7.5709,7.6352,7.713,7.7874,7.9025,0.0,0.0,0.0,0.0,0.0,0.0,0.0,0.0,0.0,0.0,0.0,0.0,0.0,0.0,8.6297,8.6501,8.7001,8.6719,8.6979,8.7834,8.6471,8.6053,8.6414,8.6414,8.6865,8.7677,8.8877,8.951,0.0,0.0,0.0,0.0,8.8841,8.7677,8.582,8.6404,8.6471,8.6406,8.822,8.9775,9.1123,9.2372,9.3409,9.3937,9.3576,9.3422,9.334,9.3006,9.2116,9.1237,9.1034,9.0966,9.1,9.1237,9.1305,9.144,9.1947,9.2049,9.2286,9.3064,9.3199,9.33,9.3537,9.3571,9.3689,9.4168,9.4522,9.5013,9.5383,9.5922,9.6029,9.56,9.5124,9.4747,9.4249,9.3889,9.3571,9.3571,9.3571,9.3571,9.3571,9.3571,9.3571,9.3571,9.3571,9.3571,9.3571,9.3571,9.3571,9.3571,9.3571,9.3571,9.3571,9.3571,9.3571,7.3747,7.4593,7.5134,7.4492,7.5405,0.0,0.0,0.0,0.0,0.0,0.0,7.6251,7.6521,7.6758,7.7232,7.8247,7.8957,0.0,0.0,0.0,0.0,0.0,0.0,0.0,0.0,0.0,0.0,0.0,0.0,0.0,0.0,8.7932,8.8728,8.9952,8.8385,8.7728,8.8223,8.7056,8.6414,8.6414,8.734,8.8133,8.8928,9.0123,9.0752,0.0,0.0,0.0,0.0,9.0006,8.9019,8.7675,8.8479,8.8619,8.8638,9.0698,9.208,9.309,9.4544,9.5445,9.5957,9.5052,9.4543,9.4052,9.3753,9.2725,9.1778,9.2083,9.1947,9.1778,9.2083,9.215,9.2286,9.2759,9.2861,9.2996,9.347,9.3571,9.3772,9.4249,9.4363,9.4477,9.4971,9.5743,9.6205,9.6205,9.6484,9.6622,9.631,9.5418,9.4635,9.4363,9.3889,9.3571,9.3571,9.3571,9.3571,9.3571,9.3571,9.3571,9.3571,9.3571,9.3571,9.3571,9.3571,9.3571,9.3571,9.3571,9.3571,9.3571,9.3571,9.3571,0.0,7.4492,7.4695,7.5303,7.554,7.5608,0.0,0.0,0.0,0.0,0.0,0.0,7.7705,7.7299,7.7367,7.8788,7.8517,0.0,0.0,0.0,0.0,0.0,0.0,0.0,0.0,0.0,0.0,0.0,0.0,0.0,0.0,8.9229,8.988,9.1767,8.9558,8.8313,8.8313,8.7116,8.6575,8.6672,8.8963,9.0159,9.0204,9.1249,9.1803,0.0,0.0,0.0,0.0,9.015,8.9915,8.9695,9.0474,9.0758,9.1042,9.3439,9.4291,9.4539,9.6125,9.7058,9.7399,9.5922,9.4669,9.3571,9.3571,9.3064,9.2658,9.3368,9.3064,9.2658,9.3402,9.3571,9.3571,9.3571,9.3571,9.3571,9.3571,9.3689,9.4053,9.5309,9.5635,9.6029,9.7335,9.7598,9.7598,9.7598,9.6587,9.6205,9.7299,9.5268,9.4168,9.5199,9.4363,9.3689,9.3571,9.3571,9.3571,9.3571,9.3571,9.3571,9.3571,9.3571,9.3571,9.3571,9.3571,9.3571,9.3571,9.3571,9.3571,9.3571,9.3571,9.3571,7.2834,0.0,7.3646,7.3274,7.4018,7.4864,0.0,0.0,0.0,0.0,0.0,0.0,0.0,7.6589,7.7198,7.8111,0.0,0.0,0.0,0.0,0.0,0.0,0.0,0.0,0.0,0.0,0.0,0.0,0.0,0.0,0.0,9.0228,9.0704,9.1767,9.0364,8.9558,8.9558,8.8402,8.8223,8.9185,8.976,9.048,9.136,9.1694,9.1803,0.0,0.0,0.0,9.1016,9.163,9.1362,9.0474,9.129,9.1573,9.1878,9.4661,9.597,9.6706,9.8663,9.9237,9.8597,9.6345,9.4669,9.3571,9.3571,9.347,9.3334,9.3537,9.3436,9.3334,9.3537,9.3571,9.3571,9.3571,9.3571,9.3571,9.3571,9.4363,9.5124,9.5383,9.631,9.7133,9.7435,9.8313,9.9006,9.9006,9.8785,9.8313,9.7598,9.6029,9.4747,9.4168,9.4669,9.4669,9.3689,9.3571,9.3571,9.3571,9.3571,9.3571,9.3571,9.3571,9.3571,9.3571,9.3571,9.3571,9.3571,9.3571,9.3571,9.3571,9.3571,9.3571,7.2482,7.305,7.3375,7.3003,7.3747,7.4627,7.4627,0.0,0.0,0.0,0.0,0.0,0.0,0.0,0.0,0.0,0.0,0.0,0.0,0.0,0.0,0.0,0.0,0.0,0.0,0.0,0.0,0.0,0.0,0.0,0.0,9.0959,9.1363,9.1803,9.1173,9.0559,9.0006,8.939,8.939,9.0006,9.0559,9.1173,9.1803,9.1803,9.1803,0.0,0.0,0.0,9.2139,9.2939,9.3126,9.2989,9.3782,9.4071,9.4373,9.6629,9.7751,9.8261,9.9829,9.9534,9.8217,9.624,9.4669,9.3571,9.3571,9.3971,9.4363,9.3772,9.3571,9.3571,9.3571,9.4087,9.4443,9.4443,9.4971,9.5343,9.5343,9.5922,9.6622,9.7199,9.7892,9.8597,9.9189,9.9889,10.036,10.036,9.9407,9.8503,9.8408,9.6725,9.5453,9.5343,9.6029,9.6135,9.5453,9.4859,9.4249,9.3689,9.3571,9.3571,9.3571,9.3571,9.3571,9.3571,9.3571,9.3571,9.3571,9.3571,9.3571,9.3571,9.3571,9.3571,7.2696,7.3344,7.3821,7.3776,7.4126,7.4568,7.4956,0.0,0.0,0.0,0.0,0.0,0.0,0.0,0.0,0.0,0.0,0.0,0.0,0.0,0.0,0.0,0.0,0.0,0.0,0.0,0.0,0.0,0.0,0.0,0.0,9.1363,9.1803,9.1803,9.1803,9.1324,9.0284,9.0284,9.0284,9.0284,9.1324,9.1877,9.1987,9.1987,9.206,9.2244,0.0,0.0,9.3529,9.4336,9.507,9.5768,9.6575,9.6795,9.6906,9.8521,9.9108,9.9218,9.9976,9.9134,9.7598,9.6205,9.5047,9.4168,9.4168,9.4936,9.56,9.4443,9.4168,9.4168,9.4168,9.4936,9.585,9.585,9.6622,9.7499,9.7499,9.7696,9.8121,9.928,9.9676,10.0224,10.1295,10.1494,10.1494,10.1494,9.9407,9.8217,9.9371,9.7335,9.624,9.7399,9.7696,9.7696,9.7499,9.6519,9.5234,9.3971,9.3689,9.3571,9.3571,9.3571,9.3571,9.3571,9.3571,9.3571,9.3571,9.3571,9.3571,9.3571,9.3571,9.3571,7.2982,7.4068,7.5088,7.4911,7.4412,7.4599,0.0,0.0,0.0,0.0,0.0,0.0,0.0,0.0,0.0,0.0,0.0,0.0,0.0,0.0,0.0,0.0,0.0,0.0,0.0,0.0,0.0,0.0,0.0,0.0,0.0,9.1363,9.1803,9.1803,9.1803,9.1694,9.1546,9.1509,9.1509,9.1546,9.1694,9.217,9.2905,9.2905,9.3272,9.3969,0.0,9.5144,9.5217,9.5988,9.6392,9.6612,9.7383,9.7309,9.6906,9.8521,9.9108,9.9133,9.9498,9.9389,9.9006,9.7598,9.7032,9.693,9.693,9.7032,9.7098,9.693,9.693,9.693,9.693,9.7032,9.7199,9.7199,9.7299,9.7499,9.7499,9.8408,9.928,9.9497,10.036,10.1332,10.1494,10.1494,10.1494,10.1494,10.0188,9.928,9.9497,9.8121,9.7299,9.7499,9.8503,9.8691,9.7598,9.7299,9.6622,9.5309,9.4168,9.3571,9.3571,9.3571,9.3571,9.3571,9.3571,9.3571,9.3571,9.3571,9.3571,9.3571,9.3571,9.3571,7.3654,7.4405,7.5405,7.7062,7.7082,0.0,0.0,0.0,0.0,0.0,0.0,0.0,0.0,0.0,0.0,0.0,0.0,0.0,0.0,0.0,0.0,0.0,0.0,0.0,0.0,0.0,0.0,0.0,0.0,0.0,0.0,0.0,9.1803,9.1803,9.1803,9.1803,9.1803,9.1803,9.1803,9.1803,9.1803,9.2244,9.3088,9.3088,9.3529,9.4336,0.0,9.5511,9.5584,9.6392,9.6685,9.6722,9.7126,9.7016,9.6906,9.8521,9.9402,9.9719,9.9578,9.9497,9.928,9.7927,9.7499,9.7499,9.7499,9.8024,9.8597,9.8597,9.8121,9.7499,9.7499,9.8024,9.8597,9.8597,9.9098,9.9676,9.9676,10.0064,10.0603,10.0603,10.1095,10.1494,10.1494,10.1494,10.1494,10.1494,10.0433,9.9801,10.0482,9.9407,9.8913,9.9587,10.0188,10.0274,9.9676,9.8313,9.6622,9.4635,9.3971,9.3571,9.3571,9.3571,9.3571,9.3571,9.3571,9.3571,9.3571,9.3571,9.3571,9.3571,9.3571,9.3571,7.4319,7.4935,7.5841,7.859,0.0,0.0,0.0,0.0,0.0,0.0,0.0,0.0,0.0,0.0,0.0,0.0,0.0,0.0,0.0,0.0,0.0,0.0,0.0,0.0,0.0,0.0,0.0,0.0,0.0,0.0,0.0,0.0,9.1803,9.1803,9.1803,9.1803,9.1803,9.1803,9.1803,9.1803,9.2024,9.2537,9.3382,9.3565,9.4116,9.4887,9.5511,9.5804,9.5841,9.6465,9.6685,9.6685,9.6685,9.6685,9.6906,9.8521,9.9512,9.9976,9.9947,9.9977,9.9801,9.8785,9.8408,9.8408,9.8408,9.9189,9.9977,9.9977,9.9189,9.8408,9.8408,9.9189,9.9977,9.9977,10.0808,10.1494,10.1494,10.1494,10.1494,10.1494,10.1494,10.1494,10.1494,10.1494,10.1494,10.1494,10.0567,10.0274,10.1413,10.0603,10.0433,10.1376,10.1494,10.1413,10.1131,9.9189,9.7032,9.4669,9.4283,9.4168,9.4477,9.4477,9.4363,9.4053,9.4053,9.3855,9.3571,9.3571,9.3571,9.3571,9.3571,9.3571,7.4835,7.5971,7.7327,7.8416,0.0,0.0,0.0,0.0,0.0,0.0,0.0,0.0,0.0,0.0,0.0,0.0,0.0,0.0,0.0,0.0,0.0,0.0,0.0,0.0,0.0,0.0,0.0,0.0,0.0,0.0,0.0,0.0,0.0,9.1803,9.1803,9.1803,9.1803,9.1803,9.1803,9.1803,9.2611,9.3418,9.4226,9.4997,9.5768,9.6539,9.6575,9.6612,9.6612,9.6685,9.6685,9.6685,9.6685,9.6685,9.6906,9.8521,9.9145,9.9402,10.09,10.1413,10.134,10.1222,10.1177,10.1177,10.1177,10.1295,10.1413,10.1413,10.1295,10.1177,10.1177,10.1295,10.1413,10.1413,10.1376,10.1494,10.1494,10.1494,10.1494,10.1494,10.1494,10.1494,10.1494,10.1494,10.1494,10.1494,10.1376,10.1376,10.1494,10.1376,10.1376,10.1494,10.1494,10.0975,9.9801,9.9497,9.8691,9.7335,9.5994,9.5922,9.7133,9.7234,9.6622,9.5418,9.5418,9.4713,9.3571,9.3571,9.3571,9.3571,9.3571,9.3571,7.4037,7.5689,0.0,0.0,0.0,0.0,0.0,0.0,0.0,0.0,0.0,0.0,0.0,0.0,0.0,0.0,0.0,0.0,0.0,0.0,0.0,0.0,0.0,0.0,0.0,0.0,0.0,0.0,0.0,0.0,0.0,0.0,0.0,9.1803,9.1803,9.1803,9.1803,9.2354,9.2611,9.2611,9.2941,9.3786,9.507,9.5364,9.5951,9.6685,9.6685,9.6979,9.7456,9.7456,9.775,9.819,9.819,9.8521,9.8998,9.9622,10.0209,10.0686,10.1274,10.1494,10.1494,10.1494,10.1494,10.1494,10.1494,10.1494,10.1494,10.1494,10.1494,10.1494,10.1494,10.1494,10.1494,10.1494,10.1494,10.1494,10.1494,10.1494,10.1494,10.1494,10.1494,10.1494,10.1494,10.1494,10.1494,10.1494,10.1494,10.1494,10.1494,10.1494,10.1494,10.1494,10.1494,10.1012,9.9587,9.9497,9.928,9.882,9.7499,9.6997,9.7499,9.7499,9.6895,9.5492,9.5492,9.4825,9.3571,9.3571,9.3571,9.3571,9.3571,9.3571,7.4294,7.5873,0.0,0.0,0.0,0.0,0.0,0.0,0.0,0.0,0.0,0.0,0.0,0.0,0.0,0.0,0.0,0.0,0.0,0.0,0.0,0.0,0.0,0.0,0.0,0.0,0.0,0.0,0.0,0.0,0.0,0.0,0.0,0.0,9.1803,9.1913,9.2207,9.2794,9.3235,9.3492,9.3492,9.4189,9.5511,9.5768,9.6318,9.7089,9.7089,9.7383,9.7897,9.8154,9.8594,9.9108,9.9108,9.9438,9.9952,10.0209,10.0613,10.12,10.1384,10.1494,10.1494,10.1494,10.1494,10.1494,10.1494,10.1494,10.1494,10.1494,10.1494,10.1494,10.1494,10.1494,10.1494,10.1494,10.1494,10.1494,10.1494,10.1494,10.1494,10.1494,10.1494,10.1494,10.1494,10.1494,10.1494,10.1494,10.1494,10.1494,10.1494,10.1494,10.1494,10.1494,10.1494,10.1058,10.0188,10.0064,10.0064,10.0064,9.928,9.8785,9.8785,9.8785,9.7892,9.6205,9.6344,9.5689,9.3943,9.3943,9.3943,9.3943,9.3706,9.3571,7.6093,0.0,0.0,0.0,0.0,0.0,0.0,0.0,0.0,0.0,0.0,0.0,0.0,0.0,0.0,0.0,0.0,0.0,0.0,0.0,0.0,0.0,0.0,0.0,0.0,0.0,0.0,0.0,0.0,0.0,0.0,0.0,0.0,0.0,9.1803,9.2207,9.3088,9.3088,9.3492,9.4299,9.4299,9.474,9.5547,9.6318,9.7126,9.7897,9.7897,9.7897,9.797,9.8778,9.9145,9.9145,9.9145,9.9145,9.9218,9.9989,10.0283,10.0393,10.12,10.1494,10.1494,10.1494,10.1494,10.1494,10.1494,10.1494,10.1494,10.1494,10.1494,10.1494,10.1494,10.1494,10.1494,10.1494,10.1494,10.1494,10.1494,10.1494,10.1494,10.1494,10.1494,10.1494,10.1494,10.1494,10.1494,10.1494,10.1494,10.1494,10.1494,10.1494,10.1494,10.1494,10.1494,10.1494,10.1494,10.1494,10.1494,10.1494,10.1494,10.1494,10.1494,10.1494,10.0151,9.7598,9.8313,9.7427,9.4721,9.4721,9.4721,9.4687,9.3943,9.3605,7.4551,0.0,0.0,0.0,0.0,0.0,0.0,0.0,0.0,0.0,0.0,0.0,0.0,0.0,0.0,0.0,0.0,0.0,0.0,0.0,0.0,0.0,0.0,0.0,0.0,0.0,0.0,0.0,0.0,0.0,0.0,0.0,0.0,0.0,9.1803,9.1913,9.217,9.2794,9.3235,9.3455,9.4593,9.529,9.5511,9.5768,9.6612,9.786,9.7309,9.8007,9.9659,10.0503,10.0796,10.0796,10.0796,10.0796,10.0796,10.109,10.109,10.12,10.1384,10.1494,10.1494,10.1494,10.1494,10.1494,10.1494,10.1494,10.1494,10.1494,10.1494,10.1494,10.1494,10.1494,10.1494,10.1494,10.1494,10.1494,10.1494,10.1494,10.1494,10.1494,10.1494,10.1494,10.1494,10.1494,10.1494,10.1494,10.1494,10.1494,10.1494,10.1494,10.1494,10.1494,10.1494,10.1494,10.1494,10.1494,10.1494,10.1494,10.1494,10.1494,10.1494,10.1494,10.0688,9.8913,9.8807,9.7815,9.6141,9.5637,9.5466,9.5466,9.5229,9.5127,0.0,0.0,0.0,0.0,0.0,0.0,0.0,0.0,0.0,0.0,0.0,0.0,0.0,0.0,0.0,0.0,0.0,0.0,0.0,0.0,0.0,0.0,0.0,0.0,0.0,0.0,0.0,0.0,0.0,0.0,0.0,0.0,0.0,0.0,9.1803,9.195,9.2317,9.2831,9.3272,9.3602,9.4556,9.518,9.5511,9.5841,9.6685,9.7897,9.7713,9.8484,9.9879,10.0686,10.098,10.109,10.1384,10.1494,10.1494,10.1494,10.1494,10.1494,10.1494,10.1494,10.1494,10.1494,10.1494,10.1494,10.1494,10.1494,10.1494,10.1494,10.1494,10.1494,10.1494,10.1494,10.1494,10.1494,10.1494,10.1494,10.1494,10.1494,10.1494,10.1494,10.1494,10.1494,10.1494,10.1494,10.1494,10.1494,10.1494,10.1494,10.1494,10.1494,10.1494,10.1494,10.1494,10.1494,10.1494,10.1494,10.1494,10.1494,10.1494,10.1494,10.1494,10.1494,10.1002,9.9966,9.9368,9.8621,9.7606,9.674,9.6244,9.621,9.6554,9.6299,0.0,0.0,0.0,0.0,0.0,0.0,0.0,0.0,0.0,0.0,0.0,0.0,0.0,0.0,0.0,0.0,0.0,0.0,0.0,0.0,0.0,0.0,0.0,0.0,0.0,0.0,0.0,0.0,0.0,0.0,0.0,0.0,0.0,9.1803,9.1803,9.217,9.2978,9.3051,9.3455,9.4189,9.4336,9.4777,9.5547,9.6282,9.7052,9.7933,9.8741,9.9145,9.9292,9.9989,10.0319,10.0503,10.12,10.1494,10.1494,10.1494,10.1494,10.1494,10.1494,10.1494,10.1494,10.1494,10.1494,10.1494,10.1494,10.1494,10.1494,10.1494,10.1494,10.1494,10.1494,10.1494,10.1494,10.1494,10.1494,10.1494,10.1494,10.1494,10.1494,10.1494,10.1494,10.1494,10.1494,10.1494,10.1494,10.1494,10.1494,10.1494,10.1494,10.1494,10.1494,10.1494,10.1494,10.1494,10.1494,10.1494,10.1494,10.1494,10.1494,10.1494,10.1494,10.1494,10.1257,10.0905,10.0311,9.9779,9.9403,9.7981,9.7405,9.7371,9.8065,9.7641,0.0,0.0,0.0,0.0,0.0,0.0,0.0,0.0,0.0,0.0,0.0,0.0,0.0,0.0,0.0,0.0,0.0,0.0,0.0,0.0,0.0,0.0,0.0,0.0,0.0,0.0,0.0,0.0,0.0,0.0,0.0,0.0,0.0,9.1803,9.1803,9.1877,9.206,9.2758,9.3198,0.0,9.463,9.5327,9.5511,9.5694,9.6539,9.7933,9.8741,9.9475,10.0099,10.0209,10.0686,10.1274,10.1384,10.1494,10.1494,10.1494,10.1494,10.1494,10.1494,10.1494,10.1494,10.1494,10.1494,10.1494,10.1494,10.1494,10.1494,10.1494,10.1494,10.1494,10.1494,10.1494,10.1494,10.1494,10.1494,10.1494,10.1494,10.1494,10.1494,10.1494,10.1494,10.1494,10.1494,10.1494,10.1494,10.1494,10.1494,10.1494,10.1494,10.1494,10.1494,10.1494,10.1494,10.1494,10.1494,10.1494,10.1494,10.1494,10.1494,10.1494,10.1494,10.1494,10.1743,10.2302,10.1701,10.1713,10.2176,10.1398,10.1114,10.1114,10.1152,10.1082,0.0,0.0,0.0,0.0,0.0,0.0,0.0,0.0,0.0,0.0,0.0,0.0,0.0,0.0,0.0,0.0,0.0,0.0,0.0,0.0,0.0,0.0,0.0,0.0,0.0,0.0,0.0,0.0,0.0,0.0,0.0,9.1803,9.1803,9.1803,9.1803,9.1987,9.2427,9.2868,9.3492,9.4263,9.5107,9.5694,9.6061,9.6061,9.6539,9.7383,9.819,9.8741,9.9218,9.9989,10.0503,10.098,10.131,10.1494,10.1494,10.1494,10.1494,10.1494,10.1494,10.1494,10.1494,10.1494,10.1494,10.1494,10.1494,10.1494,10.1494,10.1494,10.1494,10.1494,10.1494,10.1494,10.1494,10.1494,10.1494,10.1494,10.1494,10.1494,10.1494,10.1494,10.1494,10.1494,10.1494,10.1494,10.1494,10.1494,10.1494,10.1494,10.1494,10.1494,10.1494,10.1494,10.1494,10.1494,10.1494,10.1494,10.1494,10.1494,10.1494,10.1677,10.2081,10.2081,10.2485,10.3293,10.2439,10.2529,10.3684,10.2745,10.2172,10.2172,10.2923,10.3072,0.0,0.0,0.0,0.0,0.0,0.0,0.0,0.0,0.0,0.0,0.0,0.0,0.0,0.0,0.0,0.0,0.0,0.0,0.0,0.0,0.0,0.0,0.0,0.0,0.0,0.0,0.0,0.0,0.0,0.0,9.1803,9.1803,9.1803,9.1803,9.195,9.2354,9.3088,9.3382,9.4189,9.5511,9.5658,9.6061,9.6685,9.6685,9.6795,9.6942,9.7456,9.7933,9.8411,9.9585,10.0283,10.0576,10.12,10.1494,10.1494,10.1494,10.1494,10.1494,10.1494,10.1494,10.1494,10.1494,10.1494,10.1494,10.1494,10.1494,10.1494,10.1494,10.1494,10.1494,10.1494,10.1494,10.1494,10.1494,10.1494,10.1494,10.1494,10.1494,10.1494,10.1494,10.1494,10.1494,10.1494,10.1494,10.1494,10.1494,10.1494,10.1494,10.1494,10.1494,10.1494,10.1494,10.1494,10.1494,10.1494,10.1494,10.1494,10.1494,10.1604,10.2008,10.2705,10.2815,10.3293,10.41,10.3015,10.3166,10.4743,10.3456,10.2994,10.3238,10.4252,10.472,0.0,0.0,0.0,0.0,0.0,0.0,0.0,0.0,0.0,0.0,0.0,0.0,0.0,0.0,0.0,0.0,0.0,0.0,0.0,0.0,0.0,0.0,0.0,0.0,0.0,0.0,0.0,0.0,0.0,0.0,9.1803,9.1803,9.1803,9.1803,9.2537,9.2978,9.3088,9.4483,9.529,9.5511,9.6208,9.6612,9.6685,9.6685,9.7089,9.7713,9.7126,9.8043,9.9952,9.9475,10.0099,10.1384,10.1494,10.1494,10.1494,10.1494,10.1494,10.1494,10.1494,10.1494,10.1494,10.1494,10.1494,10.1494,10.1494,10.1494,10.1494,10.1494,10.1494,10.1494,10.1494,10.1494,10.1494,10.1494,10.1494,10.1494,10.1494,10.1494,10.1494,10.1494,10.1494,10.1494,10.1494,10.1494,10.1494,10.1494,10.1494,10.1494,10.1494,10.1494,10.1494,10.1494,10.1494,10.1494,10.1494,10.1494,10.1494,10.1494,10.2191,10.2595,10.2705,10.3403,10.41,10.4908,10.4777,10.5168,10.6084,10.5924,10.6203,10.6898,10.7109,10.7548,0.0,0.0,0.0,0.0,0.0,0.0,0.0,0.0,0.0,0.0,0.0,0.0,0.0,0.0,0.0,0.0,0.0,0.0,0.0,0.0,0.0,0.0,0.0,0.0,0.0,0.0,0.0,0.0,0.0,9.1803,9.1803,9.1803,9.1803,9.1803,9.2648,9.3308,9.3749,9.4923,9.5731,9.6171,9.6539,9.6685,9.6685,9.6685,9.6906,9.7236,9.7309,9.8227,9.9659,9.9732,10.0503,10.1494,10.1494,10.1494,10.1494,10.1494,10.1494,10.1494,10.1494,10.1494,10.1494,10.1494,10.1494,10.1494,10.1494,10.1494,10.1494,10.1494,10.1494,10.1494,10.1494,10.1494,10.1494,10.1494,10.1494,10.1494,10.1494,10.1494,10.1494,10.1494,10.1494,10.1494,10.1494,10.1494,10.1494,10.1494,10.1494,10.1494,10.1494,10.1494,10.1494,10.1494,10.1494,10.1494,10.1494,10.1494,10.1494,10.1494,10.2301,10.2889,10.3403,10.41,10.5018,10.5789,10.5311,10.5495,10.6376,10.689,10.7294,10.7587,10.8064,10.8688,0.0,0.0,0.0,0.0,0.0,0.0,0.0,0.0,0.0,0.0,0.0,0.0,0.0,0.0,0.0,0.0,0.0,0.0,0.0,0.0,0.0,0.0,0.0,0.0,0.0,0.0,0.0,0.0,0.0,9.1803,9.1803,9.1803,9.1913,9.2134,9.2978,9.3786,9.4593,9.5401,9.6098,9.6685,9.6685,9.6685,9.6685,9.6685,9.6795,9.7016,9.7419,9.8154,9.9145,9.9769,10.0613,10.1494,10.1494,10.1494,10.1494,10.1494,10.1494,10.1494,10.1494,10.1494,10.1494,10.1494,10.1494,10.1494,10.1494,10.1494,10.1494,10.1494,10.1494,10.1494,10.1494,10.1494,10.1494,10.1494,10.1494,10.1494,10.1494,10.1494,10.1494,10.1494,10.1494,10.1494,10.1494,10.1494,10.1494,10.1494,10.1494,10.1494,10.1494,10.1494,10.1494,10.1494,10.1494,10.1567,10.1788,10.1788,10.1898,10.2081,10.2889,10.3586,10.421,10.5201,10.6009,10.6706,10.6302,10.6302,10.6706,10.7477,10.7991,10.8175,10.8799,10.9496,0.0,0.0,0.0,0.0,0.0,0.0,0.0,0.0,0.0,0.0,0.0,0.0,0.0,0.0,0.0,0.0,0.0,0.0,0.0,0.0,0.0,0.0,0.0,0.0,0.0,0.0,0.0,0.0,0.0,9.1803,9.1803,9.1803,9.217,9.3015,9.3822,9.463,9.5437,9.6245,9.6649,9.6685,9.6685,9.6685,9.6685,9.6685,9.7126,9.7787,9.7089,9.764,9.9108,9.9145,10.0099,10.1494,10.1494,10.1494,10.1494,10.1494,10.1494,10.1494,10.1494,10.1494,10.1494,10.1494,10.1494,10.1494,10.1494,10.1494,10.1494,10.1494,10.1494,10.1494,10.1494,10.1494,10.1494,10.1494,10.1494,10.1494,10.1494,10.1494,10.1494,10.1494,10.1494,10.1494,10.1494,10.1494,10.1494,10.1494,10.1494,10.1494,10.1494,10.1494,10.1494,10.1494,10.1494,10.1788,10.2595,10.2595,10.2999,10.3696,10.4504,10.5018,10.5018,10.6596,10.7477,10.7477,10.8211,10.8285,10.7477,10.8285,10.9092,10.99,10.99,11.0377,0.0,0.0,0.0,0.0,0.0,0.0,0.0,0.0,0.0,0.0,0.0,0.0,0.0,0.0,0.0,0.0,0.0,0.0,0.0,0.0,0.0,0.0,0.0,0.0,0.0,0.0,0.0,0.0,0.0,0.0,9.1803,9.1803,9.2207,9.3088,9.3859,9.4923,9.6282,9.6575,9.6685,9.6685,9.6685,9.6685,9.6685,9.6685,9.6869,9.7126,9.6832,9.7897,9.9879,9.9879,10.0503,10.1494,10.1494,10.1494,10.1494,10.1494,10.1494,10.1494,10.1494,10.1494,10.1494,10.1494,10.1494,10.1494,10.1494,10.1494,10.1494,10.1494,10.1494,10.1494,10.1494,10.1494,10.1494,10.1494,10.1898,10.2301,10.2301,10.2301,10.2301,10.2301,10.2705,10.2999,10.2999,10.2999,10.2889,10.2301,10.2301,10.2081,10.1567,10.1494,10.1494,10.1494,10.1971,10.2412,10.2705,10.3182,10.3586,10.388,10.4687,10.5422,10.5899,10.7,10.7771,10.8395,10.9202,10.9202,10.8395,10.9202,10.9679,10.9973,11.0487,11.0891,7.6019,0.0,0.0,0.0,0.0,0.0,0.0,0.0,0.0,0.0,0.0,0.0,0.0,0.0,0.0,0.0,0.0,0.0,0.0,0.0,0.0,0.0,0.0,0.0,0.0,0.0,0.0,0.0,0.0,0.0,9.1803,9.1803,9.2317,9.3455,9.4556,9.5621,9.6685,9.6685,9.6685,9.6685,9.6685,9.6685,9.6685,9.6685,9.6832,9.7089,9.7089,9.8154,9.9916,9.9916,10.0503,10.1494,10.1494,10.1494,10.1494,10.1494,10.1494,10.1494,10.1494,10.1494,10.1494,10.1494,10.1494,10.1494,10.1494,10.1494,10.1494,10.1494,10.1494,10.1494,10.1494,10.1494,10.1567,10.1788,10.2301,10.2815,10.2999,10.3109,10.3109,10.3109,10.3513,10.388,10.388,10.388,10.3696,10.3182,10.3109,10.2889,10.2375,10.2301,10.2301,10.2301,10.2779,10.3219,10.3513,10.399,10.4394,10.4687,10.5495,10.6192,10.678,10.7771,10.8688,10.9202,11.001,11.012,10.9606,11.012,11.0414,11.0414,11.1001,11.1221,0.0,0.0,0.0,0.0,0.0,0.0,0.0,0.0,0.0,0.0,0.0,0.0,0.0,0.0,0.0,0.0,0.0,0.0,0.0,0.0,0.0,0.0,0.0,0.0,0.0,0.0,0.0,0.0,0.0,9.1803,9.1803,9.184,9.2611,9.4263,9.5878,9.6685,9.6685,9.6685,9.6685,9.6685,9.6685,9.6685,9.6685,9.6722,9.7163,9.7897,9.7933,9.8374,9.9145,9.9145,10.0099,10.1494,10.1494,10.1494,10.1494,10.1494,10.1494,10.1494,10.1494,10.1494,10.1494,10.1494,10.1494,10.1494,10.1494,10.1494,10.1494,10.1494,10.1494,10.1494,10.1494,10.1494,10.1677,10.2485,10.2705,10.2889,10.3696,10.388,10.388,10.388,10.399,10.399,10.399,10.399,10.399,10.3917,10.388,10.388,10.388,10.388,10.388,10.388,10.388,10.4284,10.5018,10.5128,10.5495,10.6376,10.7183,10.7587,10.7661,10.9166,10.9973,10.9973,11.0817,11.1221,11.1221,11.1221,11.1221,11.1221,11.1221,11.1221,7.5322,0.0,0.0,0.0,0.0,0.0,0.0,0.0,0.0,0.0,0.0,0.0,0.0,0.0,0.0,0.0,0.0,0.0,0.0,0.0,0.0,0.0,0.0,0.0,0.0,0.0,0.0,0.0,9.1803,9.1803,9.1803,9.2941,9.4079,9.5144,9.6171,9.6685,9.6685,9.6685,9.6685,9.6685,9.6685,9.6685,9.6722,9.7309,9.7676,9.7933,9.8521,9.9218,9.9989,9.9989,10.0576,10.1494,10.1494,10.1494,10.1494,10.1494,10.1494,10.1494,10.1494,10.1494,10.1494,10.1494,10.1494,10.1494,10.1494,10.1494,10.1494,10.1494,10.1494,10.1494,10.1494,10.1494,10.1567,10.1788,10.2301,10.2889,10.3696,10.4394,10.4798,10.4798,10.5311,10.5678,10.5678,10.5678,10.5495,10.4908,10.4798,10.4614,10.399,10.388,10.388,10.388,10.4394,10.4908,10.5128,10.6192,10.7,10.7294,10.7991,10.8688,10.9276,10.979,11.0304,11.0891,11.1111,11.1221,11.1221,11.1221,11.1221,11.1221,11.1221,11.1221,7.5873,7.6019,7.6166,0.0,0.0,0.0,0.0,0.0,0.0,0.0,0.0,0.0,0.0,0.0,0.0,0.0,0.0,0.0,0.0,0.0,0.0,0.0,0.0,0.0,0.0,0.0,0.0,9.1803,9.1803,9.195,9.2317,9.3602,9.4666,9.5474,9.6282,9.6685,9.6685,9.6685,9.6685,9.6685,9.7052,9.7199,9.7236,9.8043,9.8411,9.8447,9.9255,9.9879,10.0319,10.0686,10.109,10.1494,10.1494,10.1494,10.1494,10.1494,10.1494,10.1494,10.1494,10.1494,10.1494,10.1494,10.1494,10.1494,10.1494,10.1494,10.1494,10.1494,10.1494,10.1494,10.1494,10.1494,10.1604,10.1898,10.2595,10.3403,10.421,10.5091,10.5605,10.5605,10.6082,10.6376,10.6376,10.6376,10.6192,10.5715,10.5605,10.5495,10.4981,10.4908,10.4908,10.4908,10.5385,10.5789,10.6119,10.7,10.7697,10.8101,10.8872,10.9496,10.9973,11.0304,11.0707,11.1221,11.1221,11.1221,11.1221,11.1221,11.1221,11.1221,11.1221,11.1221,7.6717,7.6607,7.646,0.0,0.0,0.0,0.0,0.0,0.0,0.0,0.0,0.0,0.0,0.0,0.0,0.0,0.0,0.0,0.0,0.0,0.0,0.0,0.0,0.0,0.0,9.2648,9.1803,9.1803,9.1803,9.2207,9.3198,9.3896,9.4703,9.5621,9.6318,9.6685,9.6685,9.6685,9.6685,9.6722,9.753,9.7897,9.7933,9.8814,9.9255,9.9292,10.0099,10.0393,10.0503,10.12,10.1494,10.1494,10.1494,10.1494,10.1494,10.1494,10.1494,10.1494,10.1494,10.1494,10.1494,10.1494,10.1494,10.1494,10.1494,10.1494,10.1494,10.1494,10.1494,10.1494,10.1494,10.1494,10.1677,10.2412,10.3109,10.388,10.4724,10.5495,10.6082,10.6192,10.6302,10.6376,10.6376,10.6376,10.6376,10.6376,10.6376,10.6376,10.6376,10.6376,10.6413,10.6486,10.6486,10.689,10.7661,10.7771,10.8175,10.8909,10.9679,11.0083,11.0083,11.0817,11.1221,11.1221,11.1221,11.1221,11.1221,11.1221,11.1221,11.1221,11.1221,11.1221,0.0,0.0,0.0,0.0,0.0,0.0,0.0,0.0,0.0,0.0,0.0,0.0,0.0,0.0,0.0,0.0,0.0,0.0,0.0,0.0,0.0,0.0,0.0,0.0,0.0,9.1987,9.1803,9.1803,9.1803,9.2464,9.3969,9.4189,9.496,9.6428,9.6612,9.6685,9.6685,9.6685,9.6685,9.6722,9.753,9.7897,9.7933,9.9402,10.0099,10.0099,10.0907,10.1274,10.1274,10.1384,10.1494,10.1494,10.1494,10.1494,10.1494,10.1494,10.1494,10.1494,10.1494,10.1494,10.1494,10.1494,10.1494,10.1494,10.1494,10.1494,10.1494,10.1494,10.1494,10.1494,10.1494,10.1494,10.1494,10.1677,10.1898,10.2191,10.2999,10.3806,10.4614,10.5201,10.5899,10.6376,10.6376,10.6376,10.6376,10.6376,10.6376,10.6376,10.6376,10.6376,10.6596,10.7294,10.7367,10.7697,10.8505,10.9202,10.9569,10.979,11.0487,11.1001,11.1001,11.1111,11.1221,11.1221,11.1221,11.1221,11.1221,11.1221,11.1221,11.1221,11.1221,11.1221,0.0,0.0,0.0,7.6607,0.0,0.0,0.0,0.0,0.0,0.0,0.0,0.0,0.0,0.0,0.0,0.0,0.0,0.0,0.0,0.0,0.0,0.0,0.0,0.0,0.0,9.2464,9.2281,9.184,9.1803,9.2537,9.4189,9.4299,9.5034,9.6649,9.6685,9.6685,9.6685,9.6685,9.6906,9.7309,9.8117,9.8704,9.9145,10.0283,10.0907,10.0907,10.1274,10.1494,10.1494,10.1494,10.1494,10.1494,10.1494,10.1494,10.1494,10.1494,10.1494,10.1494,10.1494,10.1494,10.1494,10.1494,10.1494,10.1494,10.1494,10.1494,10.1494,10.1494,10.1494,10.1494,10.1494,10.1494,10.1494,10.1494,10.1788,10.2191,10.2595,10.3623,10.4614,10.5018,10.5789,10.6376,10.6376,10.6376,10.6376,10.6376,10.6376,10.6376,10.6376,10.678,10.7183,10.7587,10.7991,10.8505,10.9312,10.979,11.0193,11.0597,11.1001,11.1221,11.1221,11.1221,11.1221,11.1221,11.1221,11.1221,11.1221,11.1221,11.1221,11.1221,11.1221,11.1221,0.0,0.0,0.0,0.0,0.0,7.6607,0.0,0.0,0.0,0.0,0.0,0.0,0.0,0.0,0.0,0.0,0.0,0.0,0.0,0.0,0.0,0.0,0.0,0.0,0.0,9.2684,9.2648,9.2097,9.1767,9.2354,9.4189,9.4299,9.5034,9.6649,9.6685,9.6685,9.6685,9.6685,9.7089,9.7897,9.8741,9.9512,10.0319,10.109,10.1494,10.1494,10.1494,10.1494,10.1494,10.1494,10.1494,10.1494,10.1494,10.1494,10.1494,10.1494,10.1494,10.1494,10.1494,10.1494,10.1494,10.1494,10.1494,10.1494,10.1494,10.1494,10.1494,10.1494,10.1494,10.1494,10.1494,10.1494,10.1494,10.1494,10.2008,10.2485,10.2485,10.3623,10.4614,10.4614,10.5495,10.6192,10.6376,10.6376,10.6486,10.6596,10.6596,10.6706,10.6816,10.7404,10.7881,10.7991,10.8615,10.9386,11.0193,11.0193,11.0487,11.1184,11.1221,11.1221,11.1221,11.1221,11.1221,11.1221,11.1221,11.1221,11.1221,11.1221,11.1221,11.1221,11.1221,11.1221,0.0,0.0,0.0,0.0,7.6166,0.0,0.0,0.0,0.0,0.0,0.0,0.0,0.0,0.0,0.0,0.0,0.0,0.0,0.0,0.0,0.0,0.0,0.0,0.0,0.0,0.0,9.2244,9.2905,9.1583,9.1767,9.4153,9.4299,9.5034,9.6649,9.6685,9.6685,9.6685,9.6685,9.7089,9.7897,9.8741,9.9512,10.0319,10.109,10.1494,10.1494,10.1494,10.1494,10.1494,10.1494,10.1494,10.1494,10.1494,10.1494,10.1494,10.1494,10.1494,10.1494,10.1494,10.1494,10.1494,10.1494,10.1494,10.1494,10.1494,10.1494,10.1494,10.1494,10.1494,10.1494,10.1494,10.1494,10.1494,10.1494,10.1567,10.1604,10.1604,10.2301,10.2999,10.2999,10.421,10.5495,10.6302,10.6376,10.6596,10.7367,10.7477,10.7697,10.8395,10.8615,10.8909,10.9679,10.979,11.0193,11.1001,11.1111,11.1111,11.1221,11.1221,11.1221,11.1221,11.1221,11.1221,11.1221,11.1221,11.1221,11.1221,11.1221,11.1221,11.1221,11.1221,11.1221,0.0,0.0,0.0,0.0,0.0,0.0,0.0,0.0,7.668,0.0,0.0,0.0,0.0,0.0,0.0,0.0,0.0,0.0,0.0,0.0,0.0,0.0,0.0,0.0,0.0,0.0,0.0,0.0,0.0,9.1216,9.4153,9.4299,9.5034,9.6649,9.6685,9.6685,9.6685,9.6685,9.7346,9.8594,9.8961,9.9769,10.098,10.131,10.1494,10.1494,10.1494,10.1494,10.1494,10.1494,10.1494,10.1494,10.1494,10.1494,10.1494,10.1494,10.1494,10.1494,10.1494,10.1494,10.1494,10.1494,10.1494,10.1494,10.1494,10.1494,10.1494,10.1494,10.1494,10.1494,10.1494,10.1494,10.1494,10.1494,10.1494,10.1494,10.1494,10.2081,10.2705,10.2705,10.4027,10.5422,10.6192,10.678,10.7183,10.7477,10.7991,10.8395,10.8799,10.9202,10.9606,10.9973,11.0414,11.0817,11.1221,11.1221,11.1221,11.1221,11.1221,11.1221,11.1221,11.1221,11.1221,11.1221,11.1221,11.1221,11.1221,11.1221,11.1221,11.1221,11.1221,11.1221,7.8626,0.0,0.0,0.0,0.0,0.0,0.0,0.0,0.0,0.0,0.0,0.0,0.0,0.0,0.0,0.0,0.0,0.0,0.0,0.0,0.0,0.0,0.0,0.0,0.0,0.0,0.0,0.0,0.0,0.0,9.4116,9.4299,9.5034,9.6649,9.6685,9.6685,9.6685,9.6685,9.753,9.9108,9.9108,9.9952,10.1494,10.1494,10.1494,10.1494,10.1494,10.1494,10.1494,10.1494,10.1494,10.1494,10.1494,10.1494,10.1494,10.1494,10.1494,10.1494,10.1494,10.1494,10.1494,10.1494,10.1494,10.1494,10.1494,10.1494,10.1494,10.1494,10.1494,10.1494,10.1494,10.1494,10.1494,10.1494,10.1677,10.1788,10.1494,10.2301,10.2999,10.2705,10.421,10.5605,10.6009,10.689,10.7697,10.8175,10.8799,10.9202,10.9386,11.001,11.0304,11.0304,11.0891,11.1221,11.1221,11.1221,11.1221,11.1221,11.1221,11.1221,11.1221,11.1221,11.1221,11.1221,11.1221,11.1221,11.1221,11.1221,11.1221,11.1221,11.1221,11.1221,0.0,0.0,0.0,7.7708,0.0,0.0,0.0,0.0,7.7084,0.0,0.0,0.0,0.0,0.0,0.0,0.0,0.0,0.0,0.0,0.0,0.0,0.0,0.0,0.0,0.0,0.0,0.0,0.0,0.0,0.0,9.4079,9.4299,9.5034,9.6649,9.6685,9.6685,9.6685,9.6685,9.753,9.9108,9.9108,9.9952,10.1494,10.1494,10.1494,10.1494,10.1494,10.1494,10.1494,10.1494,10.1494,10.1494,10.1494,10.1494,10.1494,10.1494,10.1494,10.1494,10.1494,10.1494,10.1494,10.1494,10.1494,10.1494,10.1494,10.1494,10.1494,10.1494,10.1494,10.1494,10.1494,10.1494,10.1494,10.1494,10.2081,10.2412,10.1677,10.2705,10.3586,10.2889,10.4687,10.6082,10.5311,10.6486,10.8101,10.9679,10.99,11.0193,11.1001,11.1111,11.1184,11.1184,11.1221,11.1221,11.1221,11.1221,11.1221,11.1221,11.1221,11.1221,11.1221,11.1221,11.1221,11.1221,11.1221,11.1221,11.1221,11.1221,11.1221,11.1221,11.1221,11.1221,0.0,0.0,8.3104,8.0424,0.0,0.0,0.0,0.0,0.0,0.0,0.0,0.0,0.0,0.0,0.0,0.0,0.0,0.0,0.0,0.0,0.0,0.0,0.0,0.0,0.0,0.0,0.0,0.0,0.0,0.0,0.0,9.4593,9.529,9.7419,9.6979,9.6685,9.6685,9.6685,9.753,9.9108,9.9108,9.9952,10.1494,10.1494,10.1494,10.1494,10.1494,10.1494,10.1494,10.1494,10.1494,10.1494,10.1494,10.1494,10.1494,10.1494,10.1494,10.1494,10.1494,10.1494,10.1494,10.1494,10.1494,10.1494,10.1494,10.1494,10.1494,10.1494,10.1494,10.1494,10.1494,10.1898,10.2301,10.2301,10.2889,10.3403,10.3109,10.3513,10.3806,10.3513,10.4614,10.5789,10.6596,10.7183,10.7991,10.8982,11.012,11.0891,11.1221,11.1221,11.1221,11.1221,11.1221,11.1221,11.1221,11.1221,11.1221,11.1221,11.1221,11.1221,11.1221,11.1221,11.1221,11.1221,11.1221,11.1221,11.1221,11.1221,11.1221,11.1221,11.1221,11.1221,8.5049,8.5673,0.0,8.3287,8.2884,0.0,7.9653,0.0,0.0,0.0,0.0,0.0,0.0,0.0,0.0,0.0,0.0,0.0,0.0,0.0,0.0,0.0,0.0,0.0,0.0,0.0,0.0,0.0,0.0,0.0,0.0,0.0,9.5694,9.7823,9.7383,9.6979,9.6685,9.6685,9.753,9.9108,9.9108,9.9952,10.1494,10.1494,10.1494,10.1494,10.1494,10.1494,10.1494,10.1494,10.1494,10.1494,10.1494,10.1494,10.1494,10.1494,10.1494,10.1494,10.1494,10.1494,10.1494,10.1494,10.1494,10.1494,10.1494,10.1494,10.1494,10.1494,10.1677,10.1898,10.1898,10.2485,10.3109,10.3109,10.3696,10.421,10.399,10.4394,10.4687,10.4394,10.5201,10.6192,10.7,10.7587,10.8395,10.9496,11.0304,11.0891,11.1184,11.1221,11.1221,11.1221,11.1221,11.1221,11.1221,11.1221,11.1221,11.1221,11.1221,11.1221,11.1221,11.1221,11.1111,11.0781,11.1111,11.1111,11.0781,11.1111,11.1221,11.1221,11.1221,11.1221]},{"header":{"parameterUnit":"m.s-1","parameterCategory":1,"la1":30.6,"la2":29.2853,"lo1":-89.7004,"lo2":-87.6739,"dx":0.0162,"dy":0.0183,"nx":112,"ny":82,"refTime":"2023-01-11T06:00:00:Z","depth":0,"parameterNumber":3,"parameterNumberName":"V-component_of_WINDS"},"data":[0.0,0.0,0.0,0.0,0.0,0.0,0.0,0.0,0.0,0.0,0.0,0.0,0.0,0.0,0.0,0.0,0.0,0.0,0.0,0.0,0.0,0.0,0.0,0.0,0.0,0.0,0.0,0.0,0.0,0.0,0.0,0.0,0.0,0.0,0.0,0.0,0.0,0.0,0.0,0.0,0.0,0.0,0.0,0.0,0.0,0.0,0.0,0.0,0.0,0.0,0.0,0.0,0.0,0.0,0.0,0.0,0.0,0.0,0.0,0.0,0.0,0.0,0.0,0.0,0.0,0.0,0.0,0.0,0.0,0.0,0.0,0.0,0.0,0.0,0.0,0.0,0.0,0.0,0.0,0.0,0.0,0.0,0.0,0.0,0.0,0.0,0.0,0.0,0.0,0.0,0.0,-2.8711,-3.0002,-2.9954,-2.8327,-2.9657,-3.0496,-3.0432,0.0,0.0,0.0,0.0,0.0,0.0,0.0,0.0,0.0,0.0,0.0,0.0,0.0,0.0,0.0,0.0,0.0,0.0,0.0,0.0,0.0,0.0,0.0,0.0,0.0,0.0,0.0,0.0,0.0,0.0,0.0,0.0,0.0,0.0,0.0,0.0,0.0,0.0,0.0,0.0,0.0,0.0,0.0,0.0,0.0,0.0,0.0,0.0,0.0,0.0,0.0,0.0,0.0,0.0,0.0,0.0,0.0,0.0,0.0,0.0,0.0,0.0,0.0,0.0,0.0,0.0,0.0,0.0,0.0,0.0,0.0,0.0,0.0,0.0,0.0,0.0,0.0,0.0,0.0,0.0,0.0,0.0,0.0,0.0,0.0,0.0,0.0,0.0,0.0,0.0,0.0,0.0,0.0,0.0,0.0,0.0,0.0,0.0,0.0,0.0,0.0,0.0,0.0,0.0,-2.4018,-2.591,-2.6323,-2.6254,-2.5963,-2.6254,-2.6467,-2.6664,0.0,0.0,0.0,0.0,0.0,0.0,0.0,0.0,0.0,0.0,0.0,0.0,0.0,0.0,0.0,0.0,0.0,0.0,0.0,0.0,0.0,0.0,0.0,0.0,0.0,0.0,0.0,0.0,0.0,0.0,0.0,0.0,0.0,0.0,0.0,0.0,0.0,0.0,0.0,0.0,0.0,0.0,0.0,0.0,0.0,0.0,0.0,0.0,0.0,0.0,0.0,0.0,0.0,0.0,0.0,0.0,0.0,0.0,0.0,0.0,0.0,0.0,0.0,0.0,0.0,0.0,0.0,0.0,0.0,0.0,0.0,0.0,0.0,0.0,0.0,0.0,0.0,0.0,0.0,0.0,0.0,0.0,0.0,0.0,0.0,0.0,0.0,0.0,0.0,0.0,0.0,0.0,0.0,0.0,0.0,0.0,0.0,0.0,0.0,0.0,0.0,0.0,0.0,-2.5769,-2.6735,-2.5932,-2.8881,-3.0489,-2.9458,-3.1394,-3.2006,-3.0746,-3.0624,0.0,0.0,0.0,0.0,0.0,0.0,0.0,0.0,0.0,0.0,0.0,0.0,0.0,0.0,0.0,0.0,0.0,0.0,0.0,0.0,0.0,0.0,0.0,0.0,0.0,0.0,0.0,0.0,0.0,0.0,0.0,0.0,0.0,0.0,0.0,0.0,0.0,0.0,0.0,0.0,0.0,0.0,0.0,0.0,0.0,0.0,0.0,0.0,0.0,0.0,0.0,0.0,0.0,0.0,0.0,0.0,0.0,0.0,0.0,0.0,0.0,0.0,0.0,0.0,0.0,0.0,0.0,0.0,0.0,0.0,0.0,0.0,0.0,0.0,0.0,0.0,0.0,0.0,0.0,0.0,0.0,0.0,0.0,0.0,0.0,0.0,0.0,0.0,0.0,0.0,0.0,0.0,0.0,0.0,0.0,0.0,0.0,0.0,0.0,0.0,0.0,0.0,-2.6864,-2.8281,-2.6283,-3.0498,-3.2776,-3.113,-3.3932,-3.499,-3.3348,-3.2023,0.0,0.0,0.0,0.0,0.0,0.0,0.0,0.0,0.0,0.0,0.0,0.0,0.0,0.0,0.0,0.0,0.0,0.0,0.0,0.0,0.0,0.0,0.0,0.0,0.0,0.0,0.0,0.0,0.0,0.0,0.0,0.0,0.0,0.0,0.0,0.0,0.0,0.0,0.0,0.0,0.0,0.0,0.0,0.0,0.0,0.0,0.0,0.0,0.0,0.0,0.0,0.0,0.0,0.0,0.0,0.0,0.0,0.0,0.0,0.0,0.0,0.0,0.0,0.0,0.0,0.0,0.0,0.0,0.0,0.0,0.0,0.0,0.0,0.0,0.0,0.0,0.0,0.0,0.0,0.0,0.0,0.0,0.0,0.0,0.0,0.0,0.0,0.0,0.0,0.0,0.0,0.0,0.0,0.0,0.0,0.0,0.0,0.0,0.0,0.0,0.0,0.0,-2.5283,-2.6297,-2.6319,-2.6833,-2.7004,-2.6847,-2.69,-2.7551,-2.8939,-2.8652,0.0,0.0,0.0,0.0,0.0,0.0,0.0,0.0,0.0,0.0,0.0,0.0,0.0,0.0,0.0,0.0,0.0,0.0,0.0,0.0,0.0,0.0,0.0,0.0,0.0,0.0,0.0,0.0,0.0,0.0,0.0,0.0,0.0,0.0,0.0,0.0,0.0,0.0,0.0,0.0,0.0,0.0,0.0,0.0,0.0,0.0,0.0,0.0,0.0,0.0,0.0,0.0,0.0,0.0,0.0,0.0,0.0,0.0,0.0,0.0,0.0,0.0,0.0,0.0,0.0,0.0,0.0,0.0,0.0,0.0,0.0,0.0,0.0,0.0,0.0,0.0,0.0,0.0,0.0,0.0,0.0,0.0,0.0,0.0,0.0,0.0,0.0,0.0,0.0,0.0,0.0,0.0,0.0,0.0,0.0,0.0,0.0,0.0,0.0,0.0,0.0,0.0,-2.6595,-2.7214,0.0,-2.8033,-2.8805,-2.8805,-2.9942,-3.0656,-3.084,0.0,0.0,0.0,0.0,0.0,0.0,0.0,0.0,0.0,0.0,0.0,0.0,0.0,0.0,0.0,0.0,0.0,0.0,0.0,0.0,0.0,0.0,0.0,0.0,0.0,0.0,0.0,0.0,0.0,0.0,0.0,0.0,0.0,0.0,0.0,0.0,0.0,0.0,0.0,0.0,0.0,0.0,0.0,0.0,0.0,0.0,0.0,0.0,0.0,0.0,0.0,0.0,0.0,0.0,0.0,0.0,0.0,0.0,0.0,0.0,0.0,0.0,0.0,0.0,0.0,0.0,0.0,0.0,0.0,0.0,0.0,0.0,0.0,0.0,0.0,0.0,0.0,0.0,0.0,0.0,0.0,0.0,0.0,0.0,0.0,0.0,0.0,0.0,0.0,0.0,0.0,0.0,0.0,0.0,0.0,0.0,0.0,0.0,0.0,0.0,0.0,0.0,-2.5898,-2.6908,-2.7605,0.0,-2.8529,-2.9324,-2.9324,-3.049,-3.1309,-3.1202,0.0,0.0,0.0,0.0,0.0,0.0,0.0,0.0,0.0,0.0,0.0,0.0,0.0,0.0,0.0,0.0,0.0,0.0,0.0,0.0,0.0,0.0,0.0,0.0,0.0,0.0,0.0,0.0,0.0,0.0,0.0,0.0,0.0,0.0,0.0,0.0,0.0,0.0,0.0,0.0,0.0,0.0,0.0,0.0,0.0,0.0,0.0,0.0,0.0,0.0,0.0,0.0,0.0,0.0,0.0,0.0,0.0,0.0,0.0,0.0,0.0,0.0,0.0,0.0,0.0,0.0,0.0,0.0,0.0,0.0,0.0,0.0,0.0,0.0,0.0,0.0,0.0,0.0,0.0,0.0,0.0,0.0,0.0,0.0,0.0,0.0,0.0,0.0,0.0,0.0,0.0,0.0,0.0,0.0,0.0,0.0,0.0,0.0,0.0,0.0,0.0,0.0,-2.4485,-2.5999,-2.7268,-2.7281,-2.7281,-2.7281,-2.7281,-2.7001,-2.7438,0.0,0.0,0.0,0.0,0.0,0.0,0.0,0.0,0.0,0.0,0.0,0.0,0.0,0.0,0.0,0.0,0.0,0.0,0.0,0.0,0.0,0.0,0.0,0.0,0.0,0.0,0.0,0.0,0.0,0.0,0.0,0.0,0.0,0.0,0.0,0.0,0.0,0.0,0.0,0.0,0.0,0.0,0.0,0.0,0.0,0.0,0.0,0.0,0.0,0.0,0.0,0.0,0.0,0.0,0.0,0.0,0.0,0.0,0.0,0.0,0.0,0.0,0.0,0.0,0.0,0.0,0.0,0.0,0.0,0.0,0.0,0.0,0.0,0.0,0.0,0.0,0.0,0.0,0.0,0.0,0.0,0.0,0.0,0.0,0.0,0.0,0.0,0.0,0.0,0.0,0.0,0.0,0.0,0.0,0.0,0.0,0.0,0.0,0.0,0.0,0.0,0.0,0.0,-2.617,-2.7065,-2.7655,-2.7856,-2.7883,-2.7883,-2.7883,-2.7802,-2.7762,-2.762,0.0,0.0,0.0,0.0,0.0,0.0,0.0,0.0,0.0,0.0,0.0,0.0,0.0,0.0,0.0,0.0,0.0,0.0,0.0,0.0,0.0,0.0,0.0,0.0,0.0,0.0,0.0,0.0,0.0,0.0,0.0,0.0,0.0,0.0,0.0,0.0,0.0,0.0,0.0,0.0,0.0,0.0,0.0,0.0,0.0,0.0,0.0,0.0,0.0,0.0,0.0,0.0,0.0,0.0,0.0,0.0,0.0,0.0,0.0,0.0,0.0,0.0,0.0,0.0,0.0,0.0,0.0,0.0,0.0,0.0,0.0,0.0,0.0,0.0,0.0,0.0,0.0,0.0,0.0,0.0,0.0,0.0,0.0,0.0,0.0,0.0,0.0,0.0,0.0,0.0,0.0,0.0,0.0,0.0,0.0,0.0,0.0,0.0,0.0,0.0,0.0,0.0,-2.6036,-2.725,-2.8123,-2.831,-2.843,-2.8497,-2.8497,-2.8497,-2.8331,-2.8183,0.0,0.0,0.0,0.0,0.0,0.0,0.0,0.0,0.0,0.0,0.0,0.0,0.0,0.0,0.0,0.0,0.0,0.0,0.0,0.0,0.0,0.0,0.0,0.0,0.0,0.0,0.0,0.0,0.0,0.0,0.0,0.0,0.0,0.0,0.0,0.0,0.0,0.0,0.0,0.0,0.0,0.0,0.0,0.0,0.0,0.0,0.0,0.0,0.0,0.0,0.0,0.0,0.0,0.0,0.0,0.0,0.0,0.0,0.0,0.0,0.0,0.0,0.0,0.0,0.0,0.0,0.0,0.0,0.0,0.0,0.0,0.0,0.0,0.0,0.0,0.0,0.0,0.0,0.0,0.0,0.0,0.0,0.0,0.0,0.0,0.0,0.0,0.0,0.0,0.0,0.0,0.0,0.0,0.0,0.0,0.0,0.0,0.0,0.0,0.0,0.0,0.0,-2.4851,-2.7014,-2.8644,-2.8644,-2.8885,-2.9045,-2.9045,-2.9045,-2.9193,-2.941,0.0,0.0,0.0,0.0,0.0,0.0,0.0,0.0,0.0,0.0,0.0,0.0,0.0,0.0,0.0,0.0,0.0,0.0,0.0,0.0,0.0,0.0,0.0,0.0,0.0,0.0,0.0,0.0,0.0,0.0,0.0,0.0,0.0,0.0,0.0,0.0,0.0,0.0,0.0,0.0,0.0,0.0,0.0,0.0,0.0,0.0,0.0,0.0,0.0,0.0,0.0,0.0,0.0,0.0,0.0,0.0,0.0,0.0,0.0,0.0,-2.3153,0.0,0.0,0.0,0.0,0.0,0.0,0.0,0.0,0.0,0.0,0.0,0.0,0.0,0.0,0.0,0.0,0.0,0.0,0.0,0.0,0.0,0.0,0.0,0.0,0.0,0.0,0.0,0.0,0.0,0.0,0.0,0.0,0.0,0.0,0.0,0.0,0.0,0.0,0.0,0.0,0.0,-2.5291,-2.7442,-2.8951,-2.8951,-2.9005,-2.9045,-2.9045,-2.9045,-2.8695,-2.7812,-2.9007,0.0,0.0,0.0,0.0,0.0,0.0,0.0,0.0,0.0,0.0,0.0,0.0,0.0,0.0,0.0,0.0,0.0,0.0,0.0,0.0,0.0,0.0,0.0,0.0,0.0,0.0,0.0,0.0,0.0,0.0,0.0,0.0,0.0,0.0,0.0,0.0,0.0,0.0,0.0,0.0,0.0,0.0,0.0,0.0,0.0,0.0,0.0,0.0,0.0,0.0,0.0,0.0,0.0,0.0,0.0,0.0,0.0,0.0,0.0,0.0,-2.3313,0.0,0.0,0.0,0.0,0.0,0.0,0.0,0.0,0.0,0.0,0.0,0.0,0.0,0.0,0.0,0.0,0.0,0.0,0.0,0.0,0.0,0.0,0.0,0.0,0.0,0.0,0.0,0.0,0.0,0.0,0.0,0.0,0.0,0.0,0.0,0.0,0.0,0.0,0.0,0.0,-2.5692,-2.7789,-2.9259,-2.9259,-2.9379,-2.9459,-2.9459,-2.9459,-2.9192,-2.8577,-2.949,0.0,0.0,0.0,0.0,0.0,0.0,0.0,0.0,0.0,0.0,0.0,0.0,0.0,0.0,0.0,0.0,0.0,0.0,0.0,0.0,0.0,0.0,0.0,0.0,0.0,0.0,0.0,0.0,0.0,0.0,0.0,0.0,0.0,0.0,0.0,0.0,0.0,0.0,0.0,0.0,0.0,0.0,0.0,0.0,0.0,0.0,0.0,0.0,0.0,0.0,0.0,0.0,0.0,-2.7416,-2.771,-2.7855,-2.816,-2.7896,-2.6808,-2.5456,-2.5092,-2.5117,0.0,0.0,0.0,0.0,0.0,0.0,0.0,0.0,0.0,0.0,0.0,0.0,0.0,0.0,0.0,0.0,0.0,0.0,0.0,0.0,0.0,0.0,0.0,0.0,0.0,-3.0591,-3.3635,0.0,0.0,0.0,0.0,0.0,0.0,0.0,0.0,0.0,0.0,0.0,0.0,-2.6279,-2.8217,-2.9566,-2.9566,-2.9766,-2.9913,-2.9913,-2.9913,-2.9913,-2.9913,-3.0111,-3.0447,0.0,0.0,0.0,0.0,0.0,0.0,0.0,0.0,0.0,0.0,0.0,0.0,0.0,0.0,0.0,0.0,0.0,0.0,0.0,0.0,0.0,0.0,0.0,0.0,0.0,0.0,0.0,0.0,0.0,0.0,0.0,0.0,-2.9758,-2.8572,0.0,0.0,0.0,0.0,0.0,0.0,0.0,0.0,0.0,0.0,0.0,0.0,0.0,-2.7725,-2.8134,-2.6752,-2.6356,-2.6874,-2.9035,-3.0115,-3.0115,-3.1996,-3.2839,-3.2641,-3.0297,0.0,-2.5825,-2.5585,0.0,0.0,0.0,0.0,0.0,0.0,0.0,0.0,0.0,0.0,0.0,0.0,0.0,0.0,0.0,0.0,0.0,0.0,0.0,0.0,0.0,0.0,-3.5781,-3.7038,-3.6345,-3.5803,0.0,-3.4203,-3.0717,-3.0111,-2.8302,0.0,0.0,0.0,0.0,0.0,0.0,0.0,-2.7722,-2.9032,-2.986,-2.986,-2.99,-2.9913,-2.9913,-2.9913,-2.9913,-2.9913,-2.9904,-3.1023,-3.3497,-3.3562,0.0,0.0,0.0,0.0,0.0,0.0,0.0,0.0,0.0,0.0,0.0,0.0,0.0,0.0,0.0,0.0,0.0,0.0,0.0,0.0,0.0,0.0,0.0,0.0,0.0,0.0,0.0,0.0,0.0,-3.0296,-3.0248,-3.1724,-3.0861,-3.0099,0.0,0.0,0.0,0.0,0.0,0.0,0.0,0.0,0.0,-2.9945,-3.1301,-3.1894,-3.1549,-2.9695,-2.9903,-3.2392,-3.2237,-3.3143,-3.4651,-3.5622,-3.5686,-3.4929,-3.379,-3.2755,-3.125,-2.7504,-2.6017,-2.6094,0.0,0.0,0.0,0.0,-2.6624,-2.6959,-2.9579,-3.1474,0.0,-3.2643,0.0,0.0,0.0,0.0,0.0,0.0,0.0,0.0,0.0,0.0,0.0,-3.685,-3.79,-3.8056,-3.7101,-3.5629,-3.3851,0.0,-2.961,-2.7438,-2.5285,0.0,0.0,0.0,0.0,-2.7629,-2.831,-2.9285,-2.9913,-2.9913,-2.9913,-2.9913,-2.9913,-2.9913,-2.9913,-2.9913,-3.1137,-3.2441,-3.3723,-3.5095,-3.6093,0.0,0.0,0.0,0.0,0.0,0.0,0.0,0.0,0.0,0.0,0.0,0.0,0.0,0.0,0.0,0.0,0.0,0.0,0.0,0.0,0.0,0.0,0.0,0.0,0.0,0.0,0.0,0.0,-3.1062,-3.1322,-3.3898,-3.1661,-3.0399,0.0,0.0,0.0,0.0,0.0,0.0,-3.0681,-3.2414,-3.294,-3.2406,-3.4824,-3.5823,-3.4942,-3.2954,-3.3162,-3.5729,-3.4601,-3.4886,-3.6558,-3.706,-3.7032,-3.6724,-3.6042,-3.6208,-3.6406,-3.0846,-2.8619,-2.8798,-2.8242,-2.8014,-2.8056,-2.8716,-2.8913,-2.9245,-3.2139,-3.4367,-3.6202,-3.6044,0.0,-3.7166,-3.49,0.0,0.0,0.0,0.0,-3.6067,-3.7373,-3.6567,-3.5781,-3.7715,-3.9102,-3.9331,-3.735,-3.7386,-3.6526,0.0,-3.0475,-2.8458,-2.6862,0.0,0.0,0.0,0.0,-2.843,-2.8885,-2.9513,-2.9913,-2.9913,-2.9913,-2.9913,-2.9913,-2.9913,-2.9913,-2.9913,-3.1479,-3.3043,-3.4242,-3.6292,-3.7686,-3.8126,0.0,0.0,0.0,0.0,0.0,0.0,0.0,0.0,0.0,0.0,0.0,0.0,0.0,0.0,0.0,0.0,0.0,0.0,0.0,0.0,0.0,0.0,0.0,0.0,0.0,0.0,0.0,0.0,0.0,-3.2657,-3.4727,0.0,0.0,0.0,0.0,-3.3762,-3.4178,-3.5499,-3.7982,-3.8185,-3.8786,-3.9912,-3.855,-3.7968,-3.8222,-3.6436,-3.4622,-3.2814,-3.4622,-3.447,-3.2659,-3.467,-3.6856,-3.874,-3.6558,-3.689,-3.8886,-3.6423,-3.591,-3.667,-3.6261,-3.6476,-3.7374,-3.8644,-3.9105,-3.9355,-4.1187,-4.1785,-4.1965,-4.1965,-4.0167,-3.7906,-3.7696,-3.6856,0.0,0.0,-3.8145,-4.1298,-4.0932,-4.0944,-4.1614,-4.3994,-4.1203,-3.8359,-3.9876,-3.9766,-3.8004,0.0,-3.0566,-2.8762,-2.7821,0.0,-2.8016,-2.7989,-2.8323,-2.8885,-2.974,-2.9887,-2.9913,-2.9913,-2.9913,-2.9913,-2.9913,-2.9913,-2.9913,-2.9913,-3.0093,-3.1997,-3.6485,-3.6764,-3.8084,-4.0997,-4.0664,0.0,0.0,0.0,0.0,0.0,0.0,0.0,0.0,0.0,0.0,0.0,0.0,0.0,0.0,0.0,0.0,0.0,0.0,0.0,0.0,0.0,0.0,0.0,0.0,0.0,0.0,0.0,0.0,-3.4959,-3.5022,0.0,0.0,-3.6589,-3.699,-3.699,-3.6664,-3.6965,-3.8131,-3.8409,-3.8225,-3.7432,-3.9566,-4.0216,-3.8852,-3.8323,-3.823,-3.8922,-3.823,-3.8371,-3.9282,-3.996,-4.0253,-4.0054,-3.919,-3.9519,-4.0619,-3.9748,-3.8229,-3.644,-3.6157,-3.6333,-3.6711,-3.7397,-3.7643,-3.7766,-3.8557,-4.0006,-4.1658,-4.3485,-4.3272,-4.2392,-4.2392,-4.2086,-4.1675,-4.1582,-4.1677,-4.1919,-4.3216,-4.2604,-4.2179,-4.4489,-4.3976,-4.2591,-4.1523,-4.1297,-4.0119,-3.6378,-3.4345,-3.2139,-2.8587,-2.8711,-2.9098,-2.8524,-2.9018,-2.9566,-2.9873,-2.9913,-2.9913,-2.9913,-3.0087,-3.0127,-2.9927,-3.1483,-3.239,-3.2189,-3.4925,-3.733,-3.9055,-4.0427,-4.1711,-4.2812,-4.2949,-4.1484,0.0,0.0,0.0,0.0,0.0,0.0,0.0,0.0,0.0,0.0,0.0,0.0,0.0,0.0,0.0,0.0,0.0,0.0,0.0,0.0,0.0,0.0,0.0,0.0,0.0,0.0,-3.4633,-3.6638,-3.5971,-3.5972,-3.7728,-3.8457,-3.8965,-3.9414,-3.9107,-3.9022,-3.943,-3.969,-3.9285,-3.8047,-4.1046,-4.2029,-4.0655,-4.0804,-4.1283,-4.2112,-4.0732,-4.0526,-4.1472,-4.1472,-4.1262,-4.107,-4.107,-4.1578,-4.2543,-4.2543,-4.1178,-3.9024,-3.9024,-3.9024,-3.9042,-3.9155,-3.926,-3.9296,-3.9542,-4.0683,-4.2515,-4.4392,-4.5019,-4.5019,-4.5019,-4.5019,-4.5058,-4.5195,-4.4167,-4.3304,-4.5066,-4.3665,-4.2582,-4.4914,-4.4953,-4.4315,-4.3186,-4.2582,-4.1319,-3.82,-3.6172,-3.3847,-3.0354,-2.9757,-2.9703,-2.9852,-2.9757,-2.9824,-3.0793,-3.0383,-2.9953,-3.006,-3.1026,-3.1666,-3.1457,-3.3531,-3.4932,-3.4932,-3.7653,-3.9689,-4.0655,-4.1807,-4.2633,-4.3496,-4.3945,-4.2598,-3.9434,0.0,0.0,0.0,0.0,0.0,0.0,0.0,0.0,0.0,0.0,0.0,0.0,0.0,0.0,0.0,0.0,0.0,0.0,0.0,0.0,0.0,0.0,0.0,-3.5469,-3.6543,-3.7344,-3.7383,-3.7754,-3.832,-3.916,-3.9258,-3.9824,-4.1094,-4.1582,-4.2012,-4.2422,-4.2461,-4.248,-4.232,-4.291,-4.334,-4.3565,-4.4199,-4.3556,-4.1641,-4.1641,-4.0578,-3.8258,-3.8258,-3.9509,-4.1659,-4.1659,-4.2907,-4.4888,-4.4888,-4.4888,-4.5058,-4.5039,-4.5019,-4.5019,-4.5019,-4.5019,-4.5019,-4.5039,-4.5039,-4.5039,-4.5058,-4.5058,-4.5058,-4.5058,-4.5058,-4.5156,-4.5566,-4.5703,-4.5781,-4.6191,-4.4473,-4.3353,-4.5744,-4.4454,-4.3261,-4.5242,-4.3871,-4.1231,-3.8535,-3.5885,-3.3871,-3.3036,-3.1043,-3.0258,-3.1969,-3.0419,0.0,-3.2381,-3.1147,-3.0227,-3.0496,-3.2923,-3.4533,-3.4503,-3.6035,-3.7351,-3.8224,-3.7434,-3.839,-4.1605,-4.0518,-4.0915,-4.3164,-4.3496,-4.3262,-4.2461,0.0,0.0,0.0,0.0,0.0,0.0,0.0,0.0,0.0,0.0,0.0,0.0,0.0,0.0,0.0,0.0,0.0,0.0,0.0,0.0,0.0,0.0,-3.6875,-3.7187,-3.7793,-3.8457,-3.9101,-3.9551,-3.9902,-4.0137,-4.0723,-4.123,-4.1601,-4.2012,-4.2441,-4.2871,-4.3183,-4.2652,-4.1397,-4.3381,-4.3668,-4.2192,-4.3898,-4.4562,-4.4128,-4.4128,-4.3766,-4.3061,-4.3061,-4.2691,-4.1882,-4.1882,-4.2414,-4.3217,-4.3217,-4.431,-4.5898,-4.5273,-4.5019,-4.5019,-4.5019,-4.5019,-4.5078,-4.5391,-4.5508,-4.5547,-4.5859,-4.5957,-4.5957,-4.5957,-4.5957,-4.5976,-4.6094,-4.6133,-4.6152,-4.6269,-4.5744,-4.5392,-4.6114,-4.5744,-4.5354,-4.5978,-4.557,-4.4366,-4.1426,-3.915,-3.6255,-3.1831,-3.1863,-3.2102,-3.1014,-3.0339,0.0,-3.3546,-3.3499,-3.359,-3.4953,-3.6352,-3.7079,-3.6146,-3.8902,-4.0649,-4.0578,-4.1959,-4.3178,-4.3957,-4.3783,-4.3933,-4.4961,-4.3516,-4.2969,0.0,0.0,0.0,0.0,0.0,0.0,0.0,0.0,0.0,0.0,0.0,0.0,0.0,0.0,0.0,0.0,0.0,0.0,0.0,0.0,0.0,0.0,-3.7148,-3.832,-3.8926,-3.9082,-3.9394,-4.0078,-4.0371,-4.0664,-4.1016,-4.1348,-4.1758,-4.2285,-4.2383,-4.2773,-4.3594,-4.3867,-4.3491,-4.2686,-4.4183,-4.4395,-4.3322,-4.4587,-4.5391,-4.5566,-4.5566,-4.5566,-4.5566,-4.5566,-4.4972,0.0,-4.3746,-4.3876,-4.41,-4.41,-4.5021,0.0,0.0,0.0,0.0,0.0,-4.5566,-4.5586,-4.5859,-4.5937,-4.5976,-4.623,-4.6308,-4.6308,-4.6308,-4.6308,-4.6308,-4.6308,-4.6308,-4.6308,-4.6308,-4.6308,-4.6308,-4.6308,-4.6308,-4.6348,-4.6523,-4.5838,-4.452,-4.316,-4.174,0.0,-3.5151,-3.3133,-3.2549,-3.2983,-3.2269,-3.3085,-3.658,-3.64,-3.6384,-3.7365,-3.9092,-4.0025,-3.9372,-4.1768,0.0,0.0,0.0,-4.4941,-4.4766,-4.4766,0.0,0.0,0.0,0.0,0.0,0.0,0.0,0.0,-4.2793,-4.2519,0.0,0.0,0.0,0.0,0.0,0.0,0.0,0.0,0.0,0.0,0.0,0.0,0.0,0.0,0.0,0.0,-3.8262,-3.9648,-4.0469,-4.0312,-4.0234,-4.0566,-4.0644,-4.0937,-4.166,-4.1523,-4.1855,-4.2988,-4.2812,-4.3183,-4.4394,0.0,0.0,0.0,0.0,-4.5351,-4.5742,-4.5742,-4.5937,-4.6308,-4.6308,-4.6308,-4.6308,-4.6308,-4.6308,-4.6308,-4.6308,-4.6308,-4.6308,-4.6308,-4.6308,-4.6308,-4.6308,-4.6308,-4.6308,-4.6308,-4.6308,-4.6308,-4.6308,0.0,0.0,-4.6308,-4.6308,-4.6308,-4.6308,-4.6308,-4.6308,-4.6308,-4.6308,-4.6308,-4.6308,-4.6308,-4.6308,-4.6308,-4.6308,-4.6406,-4.6777,-4.5234,-4.3706,-4.3851,-4.3541,-4.2579,-4.0276,-3.5607,-3.3205,-3.6655,-3.5159,-3.562,-4.05,-3.9423,-3.8474,-3.9244,0.0,0.0,-4.2869,-4.4318,-4.5566,-4.6328,-4.5664,-4.5078,-4.4707,-4.4648,-4.4238,-4.3457,-4.4219,-4.5019,-4.582,-4.6191,-4.6582,-4.6933,-4.416,-4.3906,0.0,0.0,0.0,0.0,0.0,0.0,0.0,0.0,0.0,0.0,0.0,0.0,0.0,0.0,0.0,-3.8125,-3.9375,-4.0449,-4.0976,-4.1269,-4.1328,-4.1074,-4.1348,-4.1484,-4.1308,-4.2148,-4.2812,-4.3066,-4.3652,-4.4277,-4.4863,-4.5234,0.0,-4.5547,-4.5879,-4.6094,-4.6191,-4.6191,-4.623,-4.6308,0.0,0.0,-4.6308,-4.6308,-4.6308,-4.6308,-4.6308,-4.6308,-4.6308,-4.6308,-4.6308,-4.6308,-4.6308,-4.6308,-4.6308,-4.6308,-4.6308,-4.6308,-4.6308,-4.6308,-4.6308,-4.6308,-4.6308,-4.6308,-4.6308,-4.6308,0.0,-4.6308,-4.6308,-4.6308,-4.6308,-4.6308,-4.6308,-4.6308,-4.6308,-4.6328,-4.6406,-4.6326,-4.5649,-4.3688,-4.3794,-4.3218,-4.0176,-4.0203,-3.9993,-3.8941,-3.6766,-3.6782,-4.1728,-4.019,-4.0036,-4.342,-4.4933,-4.5299,-4.4607,-4.5706,-4.6621,-4.6797,-4.666,-4.6523,-4.6445,-4.6113,-4.5859,-4.5683,-4.584,-4.6191,-4.668,-4.6777,-4.7031,-4.7422,-4.6152,-4.5781,0.0,0.0,0.0,0.0,0.0,0.0,0.0,0.0,0.0,0.0,0.0,-3.6484,0.0,0.0,-3.8711,-3.916,-4.0312,-4.123,-4.1465,-4.1855,-4.2031,-4.1816,-4.1992,-4.2031,-4.1816,-4.2383,-4.293,-4.3359,-4.3789,-4.4433,-4.5312,-4.5566,-4.5781,-4.5976,-4.6191,-4.6308,-4.6308,-4.6308,-4.6308,-4.6308,-4.6308,-4.6308,-4.6308,-4.6308,-4.6308,-4.6308,-4.6308,-4.6308,-4.6308,-4.6308,-4.6308,-4.6308,-4.6308,-4.6308,-4.6308,-4.6308,-4.6308,-4.6308,-4.6308,-4.6308,-4.6308,-4.6308,-4.6308,-4.6308,-4.6308,-4.6152,-4.5996,-4.5996,-4.582,-4.5664,-4.5664,-4.5664,-4.5664,-4.5664,-4.582,-4.6055,-4.625,-4.6641,-4.6617,-4.5716,-4.5713,-4.5498,-4.396,-4.4466,-4.4189,-4.1419,-3.8794,-3.8977,-4.3904,-4.3371,-4.3402,-4.553,-4.623,-4.6445,-4.6016,-4.6758,-4.7246,-4.7246,-4.7246,-4.7246,-4.7246,-4.7051,-4.6933,-4.6933,-4.6933,-4.7051,-4.7246,-4.7246,-4.7363,-4.7578,-4.7129,-4.6933,0.0,0.0,0.0,0.0,0.0,0.0,0.0,0.0,-3.6562,-3.6738,-3.7383,-3.8027,-3.8359,-3.9062,-3.9726,-4.0195,-4.1133,-4.1855,-4.2031,-4.2344,-4.2617,-4.2793,-4.2656,-4.248,-4.2324,-4.2617,-4.3086,-4.3789,-4.3984,-4.459,-4.5742,-4.5801,-4.5957,-4.6289,-4.6308,-4.6308,-4.6308,-4.6308,-4.6308,-4.6308,-4.6308,-4.6308,-4.6308,-4.6387,-4.6426,-4.6426,-4.6523,-4.6504,-4.6426,-4.6523,-4.6406,-4.6191,-4.6269,-4.6191,-4.6074,-4.623,-4.6308,-4.6289,-4.6211,-4.6191,-4.6191,-4.6191,-4.6191,-4.6191,-4.6289,-4.6074,-4.5801,-4.5801,-4.5547,-4.5293,-4.5371,-4.5391,-4.541,-4.5508,-4.5723,-4.6016,-4.6348,-4.6699,-4.7031,-4.7383,-4.7519,-4.7558,-4.7461,-4.7082,-4.6094,-4.3751,-4.1471,-4.1436,-4.5763,-4.5939,-4.5783,-4.6406,-4.6738,-4.6992,-4.7168,-4.75,-4.7734,-4.7832,-4.7754,-4.7695,-4.7695,-4.7617,-4.7578,-4.7578,-4.7578,-4.7578,-4.7578,-4.7578,-4.7578,-4.7578,-4.7578,-4.7578,-3.498,0.0,0.0,-3.5879,-3.6699,-3.7715,0.0,0.0,-3.8516,-3.9297,-3.9844,-4.0176,-4.0215,-4.0625,-4.1094,-4.1523,-4.1699,-4.207,-4.2832,-4.2969,-4.3301,-4.4082,-4.3476,-4.2715,-4.1953,-4.3281,-4.4219,-4.4316,-4.5019,-4.5683,-4.6211,-4.623,-4.625,-4.6308,-4.6308,-4.6308,-4.6308,-4.6308,-4.6308,-4.6308,-4.6308,-4.6308,-4.6308,-4.6699,-4.6855,-4.6875,-4.7266,-4.7207,-4.6894,-4.7266,-4.6777,-4.5781,-4.6152,-4.584,-4.5254,-4.6016,-4.6308,-4.625,-4.5879,-4.5742,-4.5742,-4.5742,-4.5742,-4.582,-4.6191,-4.6269,-4.623,-4.623,-4.6191,-4.625,-4.6621,-4.6719,-4.6816,-4.7207,-4.7031,-4.6797,-4.6855,-4.6894,-4.6933,-4.6992,-4.7305,-4.7461,-4.707,-4.5149,-4.4374,-4.6126,-4.4442,-4.3595,-4.5977,-4.4454,-4.4034,-4.6639,-4.6894,-4.7226,-4.8008,-4.8105,-4.8301,-4.8691,-4.8359,-4.8144,-4.8144,-4.7773,-4.7578,-4.7578,-4.7578,-4.7578,-4.7578,-4.7578,-4.7578,-4.7578,-4.7578,-4.7578,-3.6894,0.0,0.0,0.0,-3.8281,-3.8535,-3.9414,-3.9473,-3.9512,-4.0137,-4.0605,-4.0976,-4.1211,-4.1406,-4.168,0.0,-4.2383,-4.2578,-4.2676,-4.3359,-4.3691,-4.3301,-4.3594,-4.3711,-4.334,-4.373,-4.4199,-4.4726,-4.5332,-4.5859,-4.6289,-4.6308,-4.6308,-4.6308,-4.6308,-4.6308,-4.6308,-4.6308,-4.6426,-4.666,-4.666,-4.6797,-4.7051,-4.7226,-4.7305,-4.7324,-4.75,-4.7324,-4.6933,-4.7129,-4.6738,-4.6055,-4.623,-4.623,-4.6094,-4.5703,-4.5723,-4.5957,-4.6016,-4.6035,-4.6113,-4.6621,-4.6621,-4.6484,-4.6914,-4.6875,-4.666,-4.666,-4.6484,-4.6348,-4.6523,-4.6387,-4.625,-4.6426,-4.6328,-4.6191,-4.6191,-4.6387,-4.6562,-4.6562,-4.6719,-4.6777,-4.6601,-4.5852,-4.5808,-4.6737,-4.467,-4.3825,-4.6288,-4.5737,-4.5808,-4.7418,-4.7676,-4.791,-4.8535,-4.8594,-4.8672,-4.8848,-4.8691,-4.8594,-4.8594,-4.8418,-4.832,-4.832,-4.832,-4.832,-4.832,-4.832,-4.832,-4.832,-4.832,-4.832,-3.8144,0.0,0.0,-3.959,-3.959,-3.9453,-4.0098,-4.0254,-4.0332,-4.0644,-4.1055,-4.1445,-4.1738,-4.1894,0.0,-4.2539,-4.2871,-4.3008,-4.2812,-4.3594,-4.3906,-4.3066,-4.3711,-4.4297,-4.4551,-4.4277,-4.4375,-4.5156,-4.5605,-4.5976,-4.6289,-4.6308,-4.6308,-4.6308,-4.6308,-4.6308,-4.6308,-4.6426,-4.6621,-4.6933,-4.7051,-4.7266,-4.7578,-4.7695,-4.7812,-4.793,-4.7812,-4.75,-4.7109,-4.7109,-4.6719,-4.6152,-4.625,-4.6348,-4.6289,-4.5371,-4.5527,-4.623,-4.6406,-4.6484,-4.6582,-4.7207,-4.7109,-4.6836,-4.7266,-4.709,-4.6758,-4.6758,-4.6543,-4.6328,-4.6445,-4.625,-4.6055,-4.6172,-4.6113,-4.6016,-4.6016,-4.6172,-4.6308,-4.6308,-4.6387,-4.6484,-4.6484,-4.6836,-4.7109,-4.7109,-4.5356,-4.4726,-4.6873,-4.7207,-4.7519,-4.8144,-4.832,-4.8516,-4.8828,-4.8867,-4.8867,-4.8867,-4.8867,-4.8906,-4.9043,-4.9043,-4.9101,-4.9219,-4.9219,-4.9219,-4.9219,-4.9219,-4.9219,-4.9219,-4.9101,-4.9043,0.0,0.0,-3.8769,-3.9668,-4.0508,-4.1113,-4.1133,-4.1133,-4.1133,-4.1152,-4.1484,-4.1777,-4.1797,-4.2129,-4.2558,-4.2988,-4.3066,-4.3223,-4.3613,-4.3691,-4.3867,-4.4297,-4.3984,-4.4062,0.0,-4.5,-4.5176,-4.5625,-4.6055,-4.6289,-4.6308,-4.6308,-4.6308,-4.6308,-4.6308,-4.6308,-4.6308,-4.6699,-4.6914,-4.6933,-4.7363,-4.7578,-4.7598,-4.8008,-4.8418,-4.8789,-4.8379,-4.7949,-4.7558,-4.7558,-4.6816,-4.5742,-4.6152,-4.5801,-4.5078,-4.5039,-4.6074,-4.7461,-4.7051,-4.6914,-4.6914,-4.6933,-4.666,-4.6406,-4.6816,-4.666,-4.6328,-4.6328,-4.6308,-4.6387,-4.6797,-4.6894,-4.6992,-4.7422,-4.7187,-4.6894,-4.6894,-4.6582,-4.6308,-4.6308,-4.6641,-4.6914,-4.6914,-4.7266,-4.7558,-4.7558,-4.7539,-4.7539,-4.7558,-4.791,-4.8183,-4.8203,-4.8594,-4.8848,-4.8867,-4.8867,-4.8867,-4.8867,-4.8867,-4.9043,-4.9492,-4.9512,-4.9707,-5.0137,-5.0137,-5.0137,-5.0137,-5.0137,-5.0137,-5.0137,-4.9707,-4.9512,0.0,0.0,-3.9726,-4.0879,-4.1367,-4.166,-4.1953,-4.2012,-4.2012,-4.2012,-4.2344,-4.2734,-4.3008,-4.3183,-4.3418,-4.3887,-4.3965,-4.3808,-4.3359,-4.4277,-4.4648,-4.3633,-4.4141,0.0,0.0,0.0,0.0,-4.5625,-4.5801,-4.6016,-4.6289,-4.6308,-4.6308,-4.6308,-4.6562,-4.6719,-4.6719,-4.7148,-4.7363,-4.7363,-4.75,-4.7578,-4.7578,-4.7734,-4.7871,-4.8008,-4.7851,-4.7539,-4.7148,-4.7148,-4.6738,-4.6113,-4.625,-4.6289,-4.6289,-4.6289,-4.6836,-4.748,-4.6758,-4.6504,-4.6601,-4.7168,-4.707,-4.6797,-4.7226,-4.7266,-4.7148,-4.7148,-4.7344,-4.7598,-4.7734,-4.7578,-4.7461,-4.7891,-4.7441,-4.7012,-4.7305,-4.7246,-4.7148,-4.7148,-4.7266,-4.7363,-4.7363,-4.7715,-4.8086,-4.8379,-4.8183,-4.7988,-4.7988,-4.8379,-4.8633,-4.8633,-4.8769,-4.8867,-4.8867,-4.9121,-4.9297,-4.9297,-4.957,-4.9805,-4.9961,-4.9961,-5.0039,-5.0176,-5.0176,-5.0176,-5.0176,-5.0176,-5.0176,-5.0176,-5.0039,-4.9961,0.0,-4.0351,-4.0625,-4.1738,-4.2031,-4.209,-4.2363,-4.2422,-4.2422,-4.2422,-4.2891,-4.3379,-4.3652,-4.3965,-4.4277,-4.457,-4.4629,-4.4375,-4.3652,-4.4512,-4.4746,-4.3457,-4.4043,-4.4453,0.0,0.0,0.0,-4.5605,-4.5683,-4.5859,-4.6289,-4.6308,-4.6367,-4.6523,-4.6797,-4.7012,-4.7168,-4.7441,-4.7578,-4.7578,-4.7578,-4.7578,-4.7578,-4.7578,-4.7578,-4.7578,-4.7422,-4.7187,-4.6914,-4.6777,-4.6543,-4.6308,-4.6308,-4.6465,-4.6699,-4.6699,-4.6894,-4.709,-4.6836,-4.6758,-4.6855,-4.7402,-4.7285,-4.6992,-4.7266,-4.7246,-4.7148,-4.7305,-4.7539,-4.7773,-4.7949,-4.7891,-4.7871,-4.8144,-4.791,-4.7695,-4.7969,-4.8047,-4.8047,-4.8047,-4.8164,-4.8281,-4.8281,-4.8496,-4.8769,-4.9062,-4.873,-4.8437,-4.8437,-4.8691,-4.8867,-4.8867,-4.8867,-4.8926,-4.9082,-4.9355,-4.959,-4.9746,-5.0019,-5.0254,-5.0391,-5.0391,-5.0469,-5.0625,-5.0625,-5.0625,-5.0625,-5.0625,-5.0625,-5.0625,-5.0469,-5.0391,-4.0879,-4.123,-4.1426,-4.2266,-4.2461,-4.2461,-4.248,-4.248,-4.2461,-4.248,-4.3144,-4.3711,0.0,0.0,-4.5039,-4.5058,-4.5058,-4.4902,-4.4453,-4.4433,-4.4277,0.0,0.0,0.0,0.0,0.0,0.0,-4.5547,0.0,-4.5666,-4.6308,-4.6153,-4.6328,-4.6914,-4.6973,-4.7187,-4.7578,-4.7578,-4.7578,-4.7539,-4.7519,-4.7519,-4.7519,-4.7519,-4.7519,-4.75,-4.707,-4.6894,-4.6875,-4.6484,-4.6328,-4.6328,-4.6367,-4.6367,-4.6367,-4.6367,-4.6367,-4.6484,-4.7305,-4.7558,-4.7519,-4.7519,-4.7246,-4.6933,-4.6933,-4.668,-4.6484,-4.6875,-4.7031,-4.7148,-4.7578,-4.7969,-4.8281,-4.8301,-4.8613,-4.8906,-4.8926,-4.8926,-4.8926,-4.8926,-4.9258,-4.9551,-4.9531,-4.9531,-4.9531,-4.9531,-4.918,-4.8906,-4.8867,-4.8867,-4.8867,-4.8887,-4.8887,-4.9082,-4.9531,-4.957,-4.9766,-5.0176,-5.0234,-5.043,-5.082,-5.084,-5.1035,-5.1426,-5.1426,-5.1426,-5.1426,-5.1426,-5.1426,-5.1426,-5.1035,-5.0879,-4.1836,-4.2109,-4.2246,-4.2773,-4.291,-4.2988,-4.3301,-4.3144,-4.3008,-4.332,-4.3555,-4.3906,0.0,0.0,0.0,-4.5449,-4.5508,0.0,-4.4512,-4.4941,0.0,0.0,0.0,-4.4082,-4.373,-4.3711,0.0,0.0,-4.3574,-4.3678,-4.6523,-4.5102,-4.4961,-4.6914,-4.7558,-4.7793,-4.7578,-4.7578,-4.7422,-4.709,-4.6777,-4.6621,-4.6621,-4.6621,-4.6621,-4.6621,-4.6504,-4.6465,-4.6484,-4.668,-4.6777,-4.6797,-4.7129,-4.7246,-4.7246,-4.7246,-4.7246,-4.7285,-4.75,-4.7168,-4.6621,-4.6621,-4.6758,-4.6933,-4.6933,-4.7305,-4.7754,-4.7851,-4.8359,-4.8887,-4.9004,-4.9101,-4.9277,-4.959,-4.9512,-4.9433,-4.9766,-4.9844,-4.9844,-4.9844,-4.9941,-4.9902,-4.959,-4.9531,-4.9531,-4.9531,-4.9707,-4.9609,-4.8945,-4.8867,-4.8984,-4.9316,-4.9355,-4.9531,-4.998,-5.0293,-5.0527,-5.0644,-5.0937,-5.1152,-5.1269,-5.1269,-5.1328,-5.1426,-5.1426,-5.1426,-5.1426,-5.1426,-5.1426,-5.1445,-5.166,-5.1758,-4.2754,-4.2988,-4.3047,-4.3301,-4.3359,-4.3418,-4.3652,-4.3516,-4.3418,-4.3652,-4.3867,0.0,0.0,0.0,0.0,0.0,0.0,0.0,-4.5058,-4.5371,-4.5273,0.0,-4.4238,0.0,-4.375,-4.3887,-4.4375,0.0,-4.4052,-4.4333,-4.6698,-4.5801,-4.5811,-4.748,-4.7949,-4.8008,-4.7578,-4.7383,-4.707,-4.666,-4.6601,-4.6484,-4.6308,-4.6504,-4.6582,-4.6582,0.0,-4.668,-4.6875,-4.7109,-4.7207,-4.7246,-4.748,-4.7695,-4.7851,-4.7851,-4.7969,-4.8144,-4.8144,-4.7832,-4.7402,-4.7207,-4.7305,-4.7519,-4.7715,-4.8105,-4.8535,-4.873,-4.9141,-4.957,-4.9766,-4.9941,-5.0156,-5.0391,-5.041,-5.043,-5.0683,-5.0723,-5.0723,-5.0723,-5.0723,-5.0644,-5.041,-5.0371,-5.0371,-5.0371,-5.0566,-5.0547,-5.0058,-4.998,-5.0078,-5.0332,-5.0371,-5.0469,-5.0703,-5.0937,-5.1074,-5.1074,-5.1308,-5.1426,-5.1426,-5.1426,-5.1426,-5.1426,-5.1621,-5.1621,-5.1426,-5.1621,-5.1719,-5.1719,-5.1973,-5.2187,-4.3496,-4.3711,-4.3711,-4.3711,-4.3711,-4.3711,-4.3711,-4.3652,-4.3633,-4.3691,0.0,0.0,-4.4922,0.0,-4.5742,-4.623,0.0,-4.6152,-4.5742,-4.5683,-4.5371,-4.457,-4.4433,-4.4238,-4.3828,-4.416,-4.4746,-4.5605,-4.5781,-4.6211,-4.7051,-4.7024,-4.7392,-4.8183,-4.8105,-4.7891,-4.7578,-4.7148,-4.6738,-4.6387,-4.6699,-4.668,-4.6406,-4.6758,-4.6933,-4.6933,-4.6992,0.0,-4.7578,-4.7637,-4.7656,-4.7676,-4.7793,-4.8066,-4.8398,-4.8457,-4.8711,-4.9043,-4.9043,-4.9043,-4.8945,-4.8457,-4.834,-4.8457,-4.8828,-4.9023,-4.9199,-4.959,-4.9726,-4.9863,-5.0254,-5.0625,-5.0898,-5.0898,-5.1172,-5.1426,-5.1426,-5.1426,-5.1426,-5.1426,-5.1426,-5.1426,-5.1426,-5.1426,-5.1445,-5.1504,-5.1562,-5.1621,-5.168,-5.1543,-5.1445,-5.1523,-5.1523,-5.1543,-5.1601,-5.1601,-5.1582,-5.1523,-5.1523,-5.1523,-5.1523,-5.1523,-5.1523,-5.1523,-5.1953,-5.1914,-5.1426,-5.1933,-5.2129,-5.209,-5.2207,-5.2441,-4.3672,-4.3711,-4.3711,-4.3711,-4.3711,-4.3711,-4.3711,-4.3437,0.0,0.0,0.0,-4.3652,-4.4805,-4.5078,0.0,-4.6172,0.0,0.0,0.0,0.0,-4.5488,0.0,0.0,0.0,0.0,0.0,0.0,0.0,0.0,-4.709,-4.7949,-4.5825,-4.568,-4.8183,-4.7519,-4.7285,-4.7578,-4.7148,-4.6894,-4.6816,-4.6543,-4.6562,-4.6816,-4.6894,-4.6933,-4.6953,-4.7305,0.0,-4.7617,-4.7949,-4.8105,-4.8164,-4.8906,-4.9238,-4.9336,-4.9707,-4.9883,-4.9941,-4.9941,-4.9941,-4.9824,-4.9004,-4.9004,-4.9316,-4.9394,-4.9902,-5.0488,-5.0566,-5.084,-5.1113,-5.1191,-5.1269,-5.1328,-5.1328,-5.1387,-5.1426,-5.1426,-5.1426,-5.1426,-5.1426,-5.1426,-5.1426,-5.1426,-5.1426,-5.1562,-5.1914,-5.2266,-5.2617,-5.2988,-5.209,-5.1562,-5.1933,-5.1973,-5.2109,-5.2461,-5.248,-5.2344,-5.1992,-5.1973,-5.1973,-5.1973,-5.1973,-5.1973,-5.1973,-5.2383,-5.2207,-5.1426,-5.2207,-5.2422,-5.2109,-5.2812,-5.3183,-4.3437,-4.3535,-4.3711,-4.3711,-4.3711,-4.3711,-4.3711,0.0,0.0,0.0,0.0,-4.3672,-4.4531,0.0,0.0,0.0,0.0,0.0,0.0,0.0,0.0,0.0,0.0,0.0,0.0,0.0,0.0,0.0,0.0,-4.7441,-4.7851,-4.6553,-4.6533,-4.7871,-4.7266,-4.7031,-4.7246,-4.7031,-4.6933,-4.6933,-4.7168,-4.7285,-4.7285,-4.75,-4.7598,-4.7598,-4.7812,0.0,-4.8262,-4.8457,-4.8535,-4.8594,-4.9004,-4.9316,-4.959,-5.0019,-5.0312,-5.0527,-5.0762,-5.082,-5.0762,-5.0332,-5.0195,-5.0234,-5.0449,-5.0801,-5.1133,-5.1133,-5.1269,-5.1426,-5.1426,-5.1426,-5.1426,-5.1426,-5.1426,-5.1426,-5.1426,-5.1426,-5.1426,-5.1426,-5.1621,-5.1777,-5.1777,-5.0904,-5.0829,-5.2515,-5.184,-5.1757,-5.3469,-5.3164,-5.2871,-5.3066,-5.3105,-5.3086,-5.3047,-5.3047,-5.2871,-5.2441,-5.2402,-5.2402,-5.2402,-5.2402,-5.2402,-5.2402,-5.2832,-5.2734,-5.209,-5.2734,-5.2949,-5.2754,-5.3164,-5.3476,-4.3281,-4.3457,-4.3711,-4.3711,-4.3789,-4.3828,-4.373,-4.3789,0.0,0.0,0.0,-4.3848,-4.4316,0.0,0.0,0.0,0.0,0.0,0.0,0.0,0.0,0.0,0.0,0.0,0.0,0.0,0.0,0.0,0.0,0.0,-4.7441,-4.7441,-4.7441,-4.7441,-4.7109,-4.6598,-4.614,-4.6695,-4.6753,-4.6472,-4.7593,-4.7949,-4.7734,-4.8066,-4.8203,-4.8223,-4.8301,0.0,0.0,-4.8867,-4.8867,-4.8867,-4.8965,-4.9219,-4.959,-5.0117,-5.0527,-5.0859,-5.1289,-5.1426,-5.1426,-5.1426,-5.1211,-5.0996,-5.1328,-5.1426,-5.1426,-5.1426,-5.1426,-5.1426,-5.1426,-5.1426,-5.1426,-5.1426,-5.1426,-5.1465,-5.1543,-5.1582,-5.1601,-5.168,-5.1992,-5.2048,-5.1512,-5.0602,-5.0643,-5.2425,-5.1444,-5.1444,-5.3819,-5.4023,-5.4023,-5.4023,-5.4023,-5.3887,-5.3535,-5.3496,-5.332,-5.2871,-5.2851,-5.2851,-5.2851,-5.2851,-5.2851,-5.2851,-5.3281,-5.3242,-5.2715,-5.3242,-5.3457,-5.3359,-5.3457,-5.3691,-4.3555,-4.3672,-4.3711,-4.3711,-4.4023,-4.4219,-4.3808,0.0,0.0,0.0,-4.3711,-4.3848,-4.4316,0.0,0.0,0.0,0.0,0.0,0.0,0.0,0.0,0.0,0.0,0.0,0.0,0.0,0.0,0.0,0.0,0.0,-4.7012,-4.6992,-4.6992,-4.6992,-4.6953,-4.5999,-4.3941,-4.6381,-4.6591,-4.467,-4.6648,-4.7812,-4.8144,-4.8183,-4.8203,-4.8223,-4.8633,0.0,0.0,-4.8867,-4.8867,-4.8906,-4.9297,-4.9492,-4.9629,-5.0449,-5.0781,-5.0859,-5.1289,-5.1426,-5.1426,-5.1426,-5.1406,-5.1387,-5.1426,-5.1426,-5.1426,-5.1426,-5.1426,-5.1426,-5.1426,-5.1426,-5.1426,-5.1426,-5.1426,-5.1543,-5.1933,-5.2031,-5.2129,-5.2519,-5.2617,-5.1935,-4.9808,-5.1402,-5.2425,-5.0468,-5.2063,-5.3819,-5.4023,-5.4023,-5.4023,-5.4023,-5.4023,-5.4023,-5.3965,-5.3965,-5.3769,-5.332,-5.3301,-5.3301,-5.3301,-5.3301,-5.3301,-5.3301,-5.373,-5.3555,-5.2715,-5.3555,-5.375,-5.3379,-5.3769,-5.3984,-4.2969,-4.3301,-4.3711,-4.3711,-4.4043,-4.4277,-4.3808,0.0,0.0,-4.3808,-4.3711,-4.3769,-4.3945,0.0,0.0,0.0,0.0,0.0,0.0,0.0,0.0,0.0,0.0,0.0,0.0,0.0,0.0,0.0,0.0,0.0,-4.4379,-4.5799,-4.5934,-4.4696,-4.4517,-4.4341,-4.3794,-4.4985,-4.5961,-4.6682,-4.7916,-4.8437,-4.8594,-4.7042,-4.6281,-4.6281,-4.4912,0.0,0.0,-4.4229,-4.5191,-4.6579,-4.7007,-4.8158,-4.9629,-5.0488,-5.0801,-5.0859,-5.1289,-5.1426,-5.1465,-5.1738,-5.1816,-5.1777,-5.1504,-5.1426,-5.1426,-5.1426,-5.1426,-5.1426,-5.1426,-5.1426,-5.1504,-5.1758,-5.1816,-5.1933,-5.2363,-5.2461,-5.2519,-5.2676,-5.293,-5.2742,-5.1847,-5.1443,-5.1463,-5.2287,-5.1875,-5.2081,-5.3819,-5.4023,-5.4023,-5.4023,-5.4023,-5.4023,-5.4023,-5.4023,-5.3945,-5.3769,-5.3769,-5.3769,-5.3769,-5.3769,-5.3769,-5.3769,-5.3945,-5.3867,-5.3516,-5.3867,-5.3945,-5.3769,-5.3945,-5.4023,-4.2773,-4.3164,-4.3555,-4.3672,-4.4043,-4.4277,0.0,0.0,0.0,-4.3808,-4.3711,-4.3711,-4.3711,-4.4336,0.0,0.0,0.0,-4.6152,-4.6289,-4.666,-4.6816,0.0,0.0,0.0,0.0,0.0,0.0,0.0,0.0,0.0,0.0,-4.3554,-4.4595,-4.3217,-4.3269,-4.3337,-4.2847,-4.4761,-4.6298,-4.724,-4.7545,-4.7698,-4.7698,-4.4984,-4.3832,-4.3832,-4.1907,0.0,0.0,-4.2307,-4.3832,-4.6167,-4.6481,-4.7761,-4.9433,-5.0293,-5.0703,-5.0879,-5.1426,-5.1699,-5.1855,-5.2168,-5.2266,-5.2207,-5.1894,-5.1816,-5.1777,-5.166,-5.1621,-5.166,-5.1777,-5.1816,-5.1894,-5.2187,-5.2266,-5.2383,-5.2812,-5.291,-5.2949,-5.3066,-5.334,-5.3333,-5.2482,-5.1669,-5.1444,-5.2512,-5.165,-5.1444,-5.2512,-5.339,-5.3595,-5.2737,-5.3595,-5.4023,-5.4023,-5.4023,-5.4023,-5.4023,-5.4023,-5.4023,-5.4023,-5.4023,-5.4023,-5.4023,-5.4023,-5.4023,-5.4023,-5.4023,-5.4023,-5.4023,-5.4023,-5.4023,-4.334,-4.3398,-4.3183,-4.3594,-4.4043,-4.4277,0.0,0.0,0.0,-4.3808,-4.3711,-4.3711,-4.3711,-4.4082,-4.4551,-4.4961,0.0,0.0,0.0,0.0,0.0,0.0,0.0,0.0,0.0,0.0,0.0,0.0,0.0,0.0,0.0,-4.0443,-4.3035,-4.3035,-4.3992,-4.3064,-4.0594,-4.6132,-4.7493,-4.4984,-4.4984,-4.4984,-4.4984,-4.2482,-4.1332,0.0,0.0,0.0,0.0,-4.5002,-4.656,-4.8848,-4.8867,-4.8867,-4.8965,-4.9863,-5.0449,-5.0918,-5.1777,-5.2344,-5.2695,-5.2695,-5.2695,-5.2695,-5.2695,-5.2695,-5.2598,-5.2187,-5.207,-5.2168,-5.2598,-5.2695,-5.2695,-5.2695,-5.2695,-5.2812,-5.3262,-5.3359,-5.3476,-5.3926,-5.4023,-5.3147,-5.0144,-5.2081,-5.2942,-5.0144,-5.2081,-5.2942,-5.0144,-5.2306,-5.2942,-5.0144,-5.2306,-5.4023,-5.4023,-5.4023,-5.4023,-5.4023,-5.4023,-5.4023,-5.4023,-5.4023,-5.4023,-5.4023,-5.4023,-5.4023,-5.4023,-5.4023,-5.4023,-5.4023,-5.4023,-5.4023,-4.2715,-4.3164,-4.3398,-4.2949,-4.3613,-4.4199,-4.3457,0.0,0.0,0.0,-4.3711,-4.3711,-4.3711,-4.4082,-4.4531,-4.4961,-4.5625,0.0,0.0,0.0,0.0,0.0,0.0,0.0,0.0,0.0,0.0,0.0,0.0,0.0,0.0,-3.7523,-3.8513,-3.8735,-4.0668,-4.1487,-4.0958,-4.4535,-4.5755,-4.4984,-4.4984,-4.4021,-4.229,-3.9803,-3.8457,0.0,0.0,0.0,0.0,-3.9787,-4.229,-4.6354,-4.667,-4.7932,-4.9636,-4.8399,-4.8238,-4.8451,-4.7066,-4.6572,-4.7348,-4.9494,-5.0198,-5.0679,-5.2888,-5.3183,-5.2676,-5.2558,-5.2519,-5.2539,-5.2676,-5.2715,-5.2793,-5.3086,-5.3144,-5.3281,-5.373,-5.3808,-5.3867,-5.4004,-5.4023,-5.3819,-5.2737,-5.1856,-5.0786,-4.9918,-4.8875,-4.8665,-4.9502,-5.0578,-5.1444,-5.2512,-5.339,-5.4023,-5.4023,-5.4023,-5.4023,-5.4023,-5.4023,-5.4023,-5.4023,-5.4023,-5.4023,-5.4023,-5.4023,-5.4023,-5.4023,-5.4023,-5.4023,-5.4023,-5.4023,-5.4023,-4.2578,-4.3066,-4.3379,-4.3008,-4.3535,0.0,0.0,0.0,0.0,0.0,0.0,-4.4023,-4.418,-4.4316,-4.459,-4.5176,-4.5586,0.0,0.0,0.0,0.0,0.0,0.0,0.0,0.0,0.0,0.0,0.0,0.0,0.0,0.0,-3.575,-3.6074,-3.5433,-3.889,-4.0908,-4.1139,-4.3642,-4.4984,-4.4984,-4.3071,-4.1332,-3.9593,-3.71,-3.5748,0.0,0.0,0.0,0.0,-3.7282,-3.9867,-4.3713,-4.4114,-4.5397,-4.6882,-4.5964,-4.5909,-4.616,-4.459,-4.4507,-4.5256,-4.8431,-5.0005,-5.1332,-5.3313,-5.3535,-5.2988,-5.3164,-5.3086,-5.2988,-5.3164,-5.3203,-5.3281,-5.3555,-5.3613,-5.3691,-5.3965,-5.4023,-5.3595,-5.2512,-5.2306,-5.21,-5.103,-4.9311,-4.8228,-4.8228,-4.758,-4.7387,-4.8018,-4.9936,-5.165,-5.2306,-5.339,-5.4023,-5.4023,-5.4023,-5.4023,-5.4023,-5.4023,-5.4023,-5.4023,-5.4023,-5.4023,-5.4023,-5.4023,-5.4023,-5.4023,-5.4023,-5.4023,-5.4023,-5.4023,-5.4023,0.0,-4.3008,-4.3125,-4.3476,-4.3613,-4.3652,0.0,0.0,0.0,0.0,0.0,0.0,-4.4863,-4.4629,-4.4668,-4.5488,-4.5332,0.0,0.0,0.0,0.0,0.0,0.0,0.0,0.0,0.0,0.0,0.0,0.0,0.0,0.0,-3.4924,-3.5405,-3.34,-3.8246,-4.0947,-4.0947,-4.3434,-4.4589,-4.44,-3.9609,-3.7115,-3.6903,-3.4571,-3.3414,0.0,0.0,0.0,0.0,-3.7341,-3.9096,-4.1587,-4.1949,-4.208,-4.2212,-4.3076,-4.3469,-4.3583,-4.406,-4.4744,-4.5677,-4.8875,-5.1669,-5.4023,-5.4023,-5.373,-5.3496,-5.3906,-5.373,-5.3496,-5.3926,-5.4023,-5.4023,-5.4023,-5.4023,-5.4023,-5.4023,-5.3819,-5.2942,-5.0144,-4.952,-4.8665,-4.5906,-4.5252,-4.5252,-4.5252,-4.737,-4.8228,-4.5889,-5.0389,-5.2737,-5.0352,-5.2306,-5.3819,-5.4023,-5.4023,-5.4023,-5.4023,-5.4023,-5.4023,-5.4023,-5.4023,-5.4023,-5.4023,-5.4023,-5.4023,-5.4023,-5.4023,-5.4023,-5.4023,-5.4023,-5.4023,-4.2051,0.0,-4.2519,-4.2305,-4.2734,-4.3223,0.0,0.0,0.0,0.0,0.0,0.0,0.0,-4.4219,-4.457,-4.5098,0.0,0.0,0.0,0.0,0.0,0.0,0.0,0.0,0.0,0.0,0.0,0.0,0.0,0.0,0.0,-3.3511,-3.3687,-3.34,-3.6509,-3.8246,-3.8246,-4.0754,-4.1139,-3.901,-3.787,-3.6327,-3.4386,-3.36,-3.3414,0.0,0.0,0.0,-3.77,-3.7954,-3.9489,-4.1949,-4.2327,-4.2458,-4.2356,-4.0914,-4.0737,-4.0801,-3.9113,-4.0095,-4.3127,-4.8036,-5.1669,-5.4023,-5.4023,-5.3965,-5.3887,-5.4004,-5.3945,-5.3887,-5.4004,-5.4023,-5.4023,-5.4023,-5.4023,-5.4023,-5.4023,-5.2306,-5.0578,-4.9918,-4.8018,-4.633,-4.5694,-4.3772,-4.2281,-4.2281,-4.2697,-4.3772,-4.5252,-4.8665,-5.1444,-5.2737,-5.1669,-5.1669,-5.3819,-5.4023,-5.4023,-5.4023,-5.4023,-5.4023,-5.4023,-5.4023,-5.4023,-5.4023,-5.4023,-5.4023,-5.4023,-5.4023,-5.4023,-5.4023,-5.4023,-5.4023,-3.9971,-4.112,-4.2363,-4.2148,-4.2578,-4.3086,-4.3086,0.0,0.0,0.0,0.0,0.0,0.0,0.0,0.0,0.0,0.0,0.0,0.0,0.0,0.0,0.0,0.0,0.0,0.0,0.0,0.0,0.0,0.0,0.0,0.0,-3.3106,-3.3253,-3.3414,-3.477,-3.6129,-3.7282,-3.8636,-3.8636,-3.7282,-3.6129,-3.477,-3.3414,-3.3414,-3.3414,0.0,0.0,0.0,-3.6063,-3.6376,-3.7389,-3.8755,-3.9086,-3.9206,-3.909,-3.8307,-3.8013,-3.8212,-3.6829,-3.9459,-4.3986,-4.8246,-5.1669,-5.4023,-5.4023,-5.3166,-5.2306,-5.3595,-5.4023,-5.4023,-5.4023,-5.2961,-5.2081,-5.2081,-5.103,-5.0163,-5.0163,-4.8875,-4.7387,-4.6102,-4.4612,-4.3127,-4.1848,-4.0358,-3.928,-3.928,-4.143,-4.3342,-4.3557,-4.7176,-4.9954,-5.0163,-4.8665,-4.8456,-4.9954,-5.1237,-5.2512,-5.3819,-5.4023,-5.4023,-5.4023,-5.4023,-5.4023,-5.4023,-5.4023,-5.4023,-5.4023,-5.4023,-5.4023,-5.4023,-5.4023,-5.4023,-3.724,-3.9203,-4.1342,-4.174,-4.2152,-4.2403,-4.2193,0.0,0.0,0.0,0.0,0.0,0.0,0.0,0.0,0.0,0.0,0.0,0.0,0.0,0.0,0.0,0.0,0.0,0.0,0.0,0.0,0.0,0.0,0.0,0.0,-3.3253,-3.3414,-3.3414,-3.3414,-3.4372,-3.6706,-3.6706,-3.6706,-3.6706,-3.4372,-3.344,-3.348,-3.348,-3.3507,-3.3574,0.0,0.0,-3.4042,-3.4336,-3.4603,-3.4857,-3.5151,-3.5231,-3.5271,-3.5859,-3.6072,-3.6112,-3.6883,-4.0557,-4.5252,-4.8228,-5.0804,-5.2737,-5.2737,-5.1011,-4.9502,-5.2081,-5.2737,-5.2737,-5.2737,-5.1011,-4.9102,-4.9102,-4.7387,-4.5464,-4.5464,-4.5039,-4.42,-4.1632,-4.0779,-3.9732,-3.737,-3.6941,-3.6941,-3.6941,-4.143,-4.3986,-4.1415,-4.5906,-4.8246,-4.5677,-4.5039,-4.5039,-4.5464,-4.7598,-5.037,-5.3166,-5.3819,-5.4023,-5.4023,-5.4023,-5.4023,-5.4023,-5.4023,-5.4023,-5.4023,-5.4023,-5.4023,-5.4023,-5.4023,-5.4023,-3.4811,-3.5527,-3.6826,-3.8996,-3.9358,-3.8834,0.0,0.0,0.0,0.0,0.0,0.0,0.0,0.0,0.0,0.0,0.0,0.0,0.0,0.0,0.0,0.0,0.0,0.0,0.0,0.0,0.0,0.0,0.0,0.0,0.0,-3.3253,-3.3414,-3.3414,-3.3414,-3.36,-3.4,-3.3987,-3.3987,-3.4,-3.36,-3.3547,-3.3814,-3.3814,-3.3948,-3.4202,0.0,-3.4629,-3.4656,-3.4937,-3.5084,-3.5164,-3.5444,-3.5418,-3.5271,-3.5859,-3.6072,-3.6572,-3.9444,-4.1168,-4.2281,-4.5252,-4.6542,-4.6754,-4.6754,-4.6542,-4.6313,-4.6754,-4.6754,-4.6754,-4.6754,-4.6542,-4.6102,-4.6102,-4.5889,-4.5464,-4.5464,-4.3557,-4.1632,-4.1213,-3.928,-3.7383,-3.6941,-3.6941,-3.6941,-3.6941,-3.9718,-4.1632,-4.1213,-4.42,-4.5889,-4.5464,-4.3342,-4.2912,-4.5252,-4.5889,-4.7387,-5.0144,-5.2737,-5.4023,-5.4023,-5.4023,-5.4023,-5.4023,-5.4023,-5.4023,-5.4023,-5.4023,-5.4023,-5.4023,-5.4023,-5.4023,-3.2408,-3.2739,-3.3375,-3.5119,-3.656,0.0,0.0,0.0,0.0,0.0,0.0,0.0,0.0,0.0,0.0,0.0,0.0,0.0,0.0,0.0,0.0,0.0,0.0,0.0,0.0,0.0,0.0,0.0,0.0,0.0,0.0,0.0,-3.3414,-3.3414,-3.3414,-3.3414,-3.3414,-3.3414,-3.3414,-3.3414,-3.3414,-3.3574,-3.3881,-3.3881,-3.4042,-3.4336,0.0,-3.4763,-3.479,-3.5084,-3.5191,-3.5204,-3.5351,-3.5311,-3.5271,-3.5859,-3.6179,-3.6788,-3.998,-4.1213,-4.1632,-4.4628,-4.5464,-4.5464,-4.5464,-4.4414,-4.3127,-4.3127,-4.42,-4.5464,-4.5464,-4.4414,-4.3127,-4.3127,-4.2065,-4.0779,-4.0779,-3.9922,-3.887,-3.887,-3.7798,-3.6941,-3.6941,-3.6941,-3.6941,-3.6941,-3.9309,-4.0576,-3.9075,-4.143,-4.2497,-4.0996,-3.9718,-3.9499,-4.0779,-4.3772,-4.7387,-5.165,-5.3166,-5.4023,-5.4023,-5.4023,-5.4023,-5.4023,-5.4023,-5.4023,-5.4023,-5.4023,-5.4023,-5.4023,-5.4023,-5.4023,-3.0027,-3.0276,-3.0642,-3.1553,0.0,0.0,0.0,0.0,0.0,0.0,0.0,0.0,0.0,0.0,0.0,0.0,0.0,0.0,0.0,0.0,0.0,0.0,0.0,0.0,0.0,0.0,0.0,0.0,0.0,0.0,0.0,0.0,-3.3414,-3.3414,-3.3414,-3.3414,-3.3414,-3.3414,-3.3414,-3.3414,-3.3494,-3.3681,-3.3988,-3.4055,-3.4255,-3.4536,-3.4763,-3.487,-3.4883,-3.511,-3.5191,-3.5191,-3.5191,-3.5191,-3.5271,-3.5859,-3.6219,-3.6883,-3.937,-4.014,-4.0576,-4.2697,-4.3557,-4.3557,-4.3557,-4.1848,-4.014,-4.014,-4.1848,-4.3557,-4.3557,-4.1848,-4.014,-4.014,-3.8445,-3.6941,-3.6941,-3.6941,-3.6941,-3.6941,-3.6941,-3.6941,-3.6941,-3.6941,-3.6941,-3.6941,-3.8856,-3.9499,-3.7162,-3.887,-3.9309,-3.7149,-3.6941,-3.7162,-3.7811,-4.1848,-4.6542,-5.1669,-5.2531,-5.2737,-5.21,-5.21,-5.2306,-5.2942,-5.2942,-5.3371,-5.4023,-5.4023,-5.4023,-5.4023,-5.4023,-5.4023,-2.7608,-2.8027,-2.8528,-2.8735,0.0,0.0,0.0,0.0,0.0,0.0,0.0,0.0,0.0,0.0,0.0,0.0,0.0,0.0,0.0,0.0,0.0,0.0,0.0,0.0,0.0,0.0,0.0,0.0,0.0,0.0,0.0,0.0,0.0,-3.3414,-3.3414,-3.3414,-3.3414,-3.3414,-3.3414,-3.3414,-3.3708,-3.4002,-3.4295,-3.4576,-3.4857,-3.5137,-3.5151,-3.5164,-3.5164,-3.5191,-3.5191,-3.5191,-3.5191,-3.5191,-3.5271,-3.5859,-3.6086,-3.6179,-3.6974,-3.7162,-3.7135,-3.7343,-3.7577,-3.7577,-3.7577,-3.737,-3.7162,-3.7162,-3.737,-3.7577,-3.7577,-3.737,-3.7162,-3.7162,-3.7149,-3.6941,-3.6941,-3.6941,-3.6941,-3.6941,-3.6941,-3.6941,-3.6941,-3.6941,-3.6941,-3.6941,-3.7149,-3.7149,-3.6941,-3.7149,-3.7149,-3.6941,-3.6941,-3.8004,-4.0576,-4.1213,-4.2912,-4.5906,-4.8648,-4.8875,-4.633,-4.6118,-4.7387,-4.9936,-4.9936,-5.1425,-5.4023,-5.4023,-5.4023,-5.4023,-5.4023,-5.4023,-2.6947,-2.7549,0.0,0.0,0.0,0.0,0.0,0.0,0.0,0.0,0.0,0.0,0.0,0.0,0.0,0.0,0.0,0.0,0.0,0.0,0.0,0.0,0.0,0.0,0.0,0.0,0.0,0.0,0.0,0.0,0.0,0.0,0.0,-3.3414,-3.3414,-3.3414,-3.3414,-3.3614,-3.3708,-3.3708,-3.3828,-3.4135,-3.4603,-3.471,-3.4923,-3.5191,-3.5191,-3.5297,-3.5471,-3.5471,-3.5578,-3.5738,-3.5738,-3.5859,-3.6032,-3.6259,-3.6473,-3.6647,-3.6861,-3.6941,-3.6941,-3.6941,-3.6941,-3.6941,-3.6941,-3.6941,-3.6941,-3.6941,-3.6941,-3.6941,-3.6941,-3.6941,-3.6941,-3.6941,-3.6941,-3.6941,-3.6941,-3.6941,-3.6941,-3.6941,-3.6941,-3.6941,-3.6941,-3.6941,-3.6941,-3.6941,-3.6941,-3.6941,-3.6941,-3.6941,-3.6941,-3.6941,-3.6941,-3.8018,-4.0996,-4.1213,-4.1632,-4.2712,-4.5464,-4.6525,-4.5464,-4.5464,-4.6737,-4.971,-4.971,-5.1218,-5.4023,-5.4023,-5.4023,-5.4023,-5.4023,-5.4023,-2.7041,-2.7615,0.0,0.0,0.0,0.0,0.0,0.0,0.0,0.0,0.0,0.0,0.0,0.0,0.0,0.0,0.0,0.0,0.0,0.0,0.0,0.0,0.0,0.0,0.0,0.0,0.0,0.0,0.0,0.0,0.0,0.0,0.0,0.0,-3.3414,-3.3454,-3.3561,-3.3774,-3.3935,-3.4028,-3.4028,-3.4282,-3.4763,-3.4857,-3.5057,-3.5338,-3.5338,-3.5444,-3.5631,-3.5725,-3.5885,-3.6072,-3.6072,-3.6193,-3.638,-3.6473,-3.662,-3.6834,-3.6901,-3.6941,-3.6941,-3.6941,-3.6941,-3.6941,-3.6941,-3.6941,-3.6941,-3.6941,-3.6941,-3.6941,-3.6941,-3.6941,-3.6941,-3.6941,-3.6941,-3.6941,-3.6941,-3.6941,-3.6941,-3.6941,-3.6941,-3.6941,-3.6941,-3.6941,-3.6941,-3.6941,-3.6941,-3.6941,-3.6941,-3.6941,-3.6941,-3.6941,-3.6941,-3.7784,-3.9718,-3.9922,-3.9922,-3.9922,-4.1632,-4.2697,-4.2697,-4.2697,-4.4612,-4.8228,-4.8561,-5.0344,-5.4238,-5.4238,-5.4238,-5.4238,-5.4101,-5.4023,-2.7696,0.0,0.0,0.0,0.0,0.0,0.0,0.0,0.0,0.0,0.0,0.0,0.0,0.0,0.0,0.0,0.0,0.0,0.0,0.0,0.0,0.0,0.0,0.0,0.0,0.0,0.0,0.0,0.0,0.0,0.0,0.0,0.0,0.0,-3.3414,-3.3561,-3.3881,-3.3881,-3.4028,-3.4322,-3.4322,-3.4482,-3.4776,-3.5057,-3.5351,-3.5631,-3.5631,-3.5631,-3.5658,-3.5952,-3.6086,-3.6086,-3.6086,-3.6086,-3.6112,-3.6393,-3.65,-3.654,-3.6834,-3.6941,-3.6941,-3.6941,-3.6941,-3.6941,-3.6941,-3.6941,-3.6941,-3.6941,-3.6941,-3.6941,-3.6941,-3.6941,-3.6941,-3.6941,-3.6941,-3.6941,-3.6941,-3.6941,-3.6941,-3.6941,-3.6941,-3.6941,-3.6941,-3.6941,-3.6941,-3.6941,-3.6941,-3.6941,-3.6941,-3.6941,-3.6941,-3.6941,-3.6941,-3.6941,-3.6941,-3.6941,-3.6941,-3.6941,-3.6941,-3.6941,-3.6941,-3.6941,-3.9703,-4.5252,-4.5844,-4.8841,-5.4687,-5.4687,-5.4687,-5.4668,-5.4238,-5.4043,-2.7134,0.0,0.0,0.0,0.0,0.0,0.0,0.0,0.0,0.0,0.0,0.0,0.0,0.0,0.0,0.0,0.0,0.0,0.0,0.0,0.0,0.0,0.0,0.0,0.0,0.0,0.0,0.0,0.0,0.0,0.0,0.0,0.0,0.0,-3.3414,-3.3454,-3.3547,-3.3774,-3.3935,-3.4015,-3.4429,-3.4683,-3.4763,-3.4857,-3.5164,-3.5618,-3.5418,-3.5672,-3.6273,-3.658,-3.6687,-3.6687,-3.6687,-3.6687,-3.6687,-3.6794,-3.6794,-3.6834,-3.6901,-3.6941,-3.6941,-3.6941,-3.6941,-3.6941,-3.6941,-3.6941,-3.6941,-3.6941,-3.6941,-3.6941,-3.6941,-3.6941,-3.6941,-3.6941,-3.6941,-3.6941,-3.6941,-3.6941,-3.6941,-3.6941,-3.6941,-3.6941,-3.6941,-3.6941,-3.6941,-3.6941,-3.6941,-3.6941,-3.6941,-3.6941,-3.6941,-3.6941,-3.6941,-3.6941,-3.6941,-3.6941,-3.6941,-3.6941,-3.6941,-3.6941,-3.6941,-3.6941,-3.865,-4.2497,-4.4769,-4.7972,-5.1658,-5.4109,-5.5117,-5.5117,-5.498,-5.4922,0.0,0.0,0.0,0.0,0.0,0.0,0.0,0.0,0.0,0.0,0.0,0.0,0.0,0.0,0.0,0.0,0.0,0.0,0.0,0.0,0.0,0.0,0.0,0.0,0.0,0.0,0.0,0.0,0.0,0.0,0.0,0.0,0.0,0.0,-3.3414,-3.3467,-3.3601,-3.3788,-3.3948,-3.4068,-3.4416,-3.4643,-3.4763,-3.4883,-3.5191,-3.5631,-3.5565,-3.5845,-3.6353,-3.6647,-3.6754,-3.6794,-3.6901,-3.6941,-3.6941,-3.6941,-3.6941,-3.6941,-3.6941,-3.6941,-3.6941,-3.6941,-3.6941,-3.6941,-3.6941,-3.6941,-3.6941,-3.6941,-3.6941,-3.6941,-3.6941,-3.6941,-3.6941,-3.6941,-3.6941,-3.6941,-3.6941,-3.6941,-3.6941,-3.6941,-3.6941,-3.6941,-3.6941,-3.6941,-3.6941,-3.6941,-3.6941,-3.6941,-3.6941,-3.6941,-3.6941,-3.6941,-3.6941,-3.6941,-3.6941,-3.6941,-3.6941,-3.6941,-3.6941,-3.6941,-3.6941,-3.6941,-3.8266,-4.1407,-4.4762,-4.7834,-5.081,-5.39,-5.5566,-5.5547,-5.4073,-5.4207,0.0,0.0,0.0,0.0,0.0,0.0,0.0,0.0,0.0,0.0,0.0,0.0,0.0,0.0,0.0,0.0,0.0,0.0,0.0,0.0,0.0,0.0,0.0,0.0,0.0,0.0,0.0,0.0,0.0,0.0,0.0,0.0,0.0,-3.3414,-3.3414,-3.3547,-3.3841,-3.3868,-3.4015,-3.4282,-3.4336,-3.4496,-3.4776,-3.5044,-3.5324,-3.5645,-3.5939,-3.6086,-3.6139,-3.6393,-3.6513,-3.658,-3.6834,-3.6941,-3.6941,-3.6941,-3.6941,-3.6941,-3.6941,-3.6941,-3.6941,-3.6941,-3.6941,-3.6941,-3.6941,-3.6941,-3.6941,-3.6941,-3.6941,-3.6941,-3.6941,-3.6941,-3.6941,-3.6941,-3.6941,-3.6941,-3.6941,-3.6941,-3.6941,-3.6941,-3.6941,-3.6941,-3.6941,-3.6941,-3.6941,-3.6941,-3.6941,-3.6941,-3.6941,-3.6941,-3.6941,-3.6941,-3.6941,-3.6941,-3.6941,-3.6941,-3.6941,-3.6941,-3.6941,-3.6941,-3.6941,-3.6941,-3.8363,-4.1281,-4.4661,-4.786,-5.0648,-5.3754,-5.5109,-5.509,-5.1868,-5.1917,0.0,0.0,0.0,0.0,0.0,0.0,0.0,0.0,0.0,0.0,0.0,0.0,0.0,0.0,0.0,0.0,0.0,0.0,0.0,0.0,0.0,0.0,0.0,0.0,0.0,0.0,0.0,0.0,0.0,0.0,0.0,0.0,0.0,-3.3414,-3.3414,-3.344,-3.3507,-3.3761,-3.3921,0.0,-3.4442,-3.4696,-3.4763,-3.483,-3.5137,-3.5645,-3.5939,-3.6206,-3.6433,-3.6473,-3.6647,-3.6861,-3.6901,-3.6941,-3.6941,-3.6941,-3.6941,-3.6941,-3.6941,-3.6941,-3.6941,-3.6941,-3.6941,-3.6941,-3.6941,-3.6941,-3.6941,-3.6941,-3.6941,-3.6941,-3.6941,-3.6941,-3.6941,-3.6941,-3.6941,-3.6941,-3.6941,-3.6941,-3.6941,-3.6941,-3.6941,-3.6941,-3.6941,-3.6941,-3.6941,-3.6941,-3.6941,-3.6941,-3.6941,-3.6941,-3.6941,-3.6941,-3.6941,-3.6941,-3.6941,-3.6941,-3.6941,-3.6941,-3.6941,-3.6941,-3.6941,-3.6941,-3.7283,-3.8249,-4.1607,-4.3699,-4.4693,-4.7822,-4.9317,-4.9317,-4.879,-4.8756,0.0,0.0,0.0,0.0,0.0,0.0,0.0,0.0,0.0,0.0,0.0,0.0,0.0,0.0,0.0,0.0,0.0,0.0,0.0,0.0,0.0,0.0,0.0,0.0,0.0,0.0,0.0,0.0,0.0,0.0,0.0,-3.3414,-3.3414,-3.3414,-3.3414,-3.348,-3.3641,-3.3801,-3.4028,-3.4309,-3.4616,-3.483,-3.4963,-3.4963,-3.5137,-3.5444,-3.5738,-3.5939,-3.6112,-3.6393,-3.658,-3.6754,-3.6874,-3.6941,-3.6941,-3.6941,-3.6941,-3.6941,-3.6941,-3.6941,-3.6941,-3.6941,-3.6941,-3.6941,-3.6941,-3.6941,-3.6941,-3.6941,-3.6941,-3.6941,-3.6941,-3.6941,-3.6941,-3.6941,-3.6941,-3.6941,-3.6941,-3.6941,-3.6941,-3.6941,-3.6941,-3.6941,-3.6941,-3.6941,-3.6941,-3.6941,-3.6941,-3.6941,-3.6941,-3.6941,-3.6941,-3.6941,-3.6941,-3.6941,-3.6941,-3.6941,-3.6941,-3.6941,-3.6941,-3.7008,-3.7155,-3.7155,-3.7301,-3.7595,-4.061,-4.2469,-4.2947,-4.6014,-4.7643,-4.7643,-4.6094,-4.643,0.0,0.0,0.0,0.0,0.0,0.0,0.0,0.0,0.0,0.0,0.0,0.0,0.0,0.0,0.0,0.0,0.0,0.0,0.0,0.0,0.0,0.0,0.0,0.0,0.0,0.0,0.0,0.0,0.0,0.0,-3.3414,-3.3414,-3.3414,-3.3414,-3.3467,-3.3614,-3.3881,-3.3988,-3.4282,-3.4763,-3.4817,-3.4963,-3.5191,-3.5191,-3.5231,-3.5284,-3.5471,-3.5645,-3.5819,-3.6246,-3.65,-3.6607,-3.6834,-3.6941,-3.6941,-3.6941,-3.6941,-3.6941,-3.6941,-3.6941,-3.6941,-3.6941,-3.6941,-3.6941,-3.6941,-3.6941,-3.6941,-3.6941,-3.6941,-3.6941,-3.6941,-3.6941,-3.6941,-3.6941,-3.6941,-3.6941,-3.6941,-3.6941,-3.6941,-3.6941,-3.6941,-3.6941,-3.6941,-3.6941,-3.6941,-3.6941,-3.6941,-3.6941,-3.6941,-3.6941,-3.6941,-3.6941,-3.6941,-3.6941,-3.6941,-3.6941,-3.6941,-3.6941,-3.6981,-3.7128,-3.7382,-3.7422,-3.7595,-3.7889,-4.0319,-4.1944,-4.2319,-4.4984,-4.6126,-4.5964,-4.3716,-4.3913,0.0,0.0,0.0,0.0,0.0,0.0,0.0,0.0,0.0,0.0,0.0,0.0,0.0,0.0,0.0,0.0,0.0,0.0,0.0,0.0,0.0,0.0,0.0,0.0,0.0,0.0,0.0,0.0,0.0,0.0,-3.3414,-3.3414,-3.3414,-3.3414,-3.3681,-3.3841,-3.3881,-3.4389,-3.4683,-3.4763,-3.5017,-3.5164,-3.5191,-3.5191,-3.5338,-3.5565,-3.5351,-3.5685,-3.638,-3.6206,-3.6433,-3.6901,-3.6941,-3.6941,-3.6941,-3.6941,-3.6941,-3.6941,-3.6941,-3.6941,-3.6941,-3.6941,-3.6941,-3.6941,-3.6941,-3.6941,-3.6941,-3.6941,-3.6941,-3.6941,-3.6941,-3.6941,-3.6941,-3.6941,-3.6941,-3.6941,-3.6941,-3.6941,-3.6941,-3.6941,-3.6941,-3.6941,-3.6941,-3.6941,-3.6941,-3.6941,-3.6941,-3.6941,-3.6941,-3.6941,-3.6941,-3.6941,-3.6941,-3.6941,-3.6941,-3.6941,-3.6941,-3.6941,-3.7195,-3.7342,-3.7382,-3.7635,-3.7889,-3.8183,-3.8654,-3.9059,-3.9399,-3.9603,-3.9972,-4.0233,-3.978,-3.9943,0.0,0.0,0.0,0.0,0.0,0.0,0.0,0.0,0.0,0.0,0.0,0.0,0.0,0.0,0.0,0.0,0.0,0.0,0.0,0.0,0.0,0.0,0.0,0.0,0.0,0.0,0.0,0.0,0.0,-3.3414,-3.3414,-3.3414,-3.3414,-3.3414,-3.3721,-3.3961,-3.4122,-3.4549,-3.4843,-3.5004,-3.5137,-3.5191,-3.5191,-3.5191,-3.5271,-3.5391,-3.5418,-3.5752,-3.6273,-3.6299,-3.658,-3.6941,-3.6941,-3.6941,-3.6941,-3.6941,-3.6941,-3.6941,-3.6941,-3.6941,-3.6941,-3.6941,-3.6941,-3.6941,-3.6941,-3.6941,-3.6941,-3.6941,-3.6941,-3.6941,-3.6941,-3.6941,-3.6941,-3.6941,-3.6941,-3.6941,-3.6941,-3.6941,-3.6941,-3.6941,-3.6941,-3.6941,-3.6941,-3.6941,-3.6941,-3.6941,-3.6941,-3.6941,-3.6941,-3.6941,-3.6941,-3.6941,-3.6941,-3.6941,-3.6941,-3.6941,-3.6941,-3.6941,-3.7235,-3.7448,-3.7635,-3.7889,-3.8223,-3.8504,-3.833,-3.8397,-3.8718,-3.8905,-3.9052,-3.9159,-3.9332,-3.9559,0.0,0.0,0.0,0.0,0.0,0.0,0.0,0.0,0.0,0.0,0.0,0.0,0.0,0.0,0.0,0.0,0.0,0.0,0.0,0.0,0.0,0.0,0.0,0.0,0.0,0.0,0.0,0.0,0.0,-3.3414,-3.3414,-3.3414,-3.3454,-3.3534,-3.3841,-3.4135,-3.4429,-3.4723,-3.4977,-3.5191,-3.5191,-3.5191,-3.5191,-3.5191,-3.5231,-3.5311,-3.5458,-3.5725,-3.6086,-3.6313,-3.662,-3.6941,-3.6941,-3.6941,-3.6941,-3.6941,-3.6941,-3.6941,-3.6941,-3.6941,-3.6941,-3.6941,-3.6941,-3.6941,-3.6941,-3.6941,-3.6941,-3.6941,-3.6941,-3.6941,-3.6941,-3.6941,-3.6941,-3.6941,-3.6941,-3.6941,-3.6941,-3.6941,-3.6941,-3.6941,-3.6941,-3.6941,-3.6941,-3.6941,-3.6941,-3.6941,-3.6941,-3.6941,-3.6941,-3.6941,-3.6941,-3.6941,-3.6941,-3.6967,-3.7048,-3.7048,-3.7088,-3.7155,-3.7448,-3.7702,-3.7929,-3.829,-3.8584,-3.8838,-3.8691,-3.8691,-3.8838,-3.9118,-3.9306,-3.9372,-3.9599,-3.9853,0.0,0.0,0.0,0.0,0.0,0.0,0.0,0.0,0.0,0.0,0.0,0.0,0.0,0.0,0.0,0.0,0.0,0.0,0.0,0.0,0.0,0.0,0.0,0.0,0.0,0.0,0.0,0.0,0.0,-3.3414,-3.3414,-3.3414,-3.3547,-3.3855,-3.4148,-3.4442,-3.4736,-3.503,-3.5177,-3.5191,-3.5191,-3.5191,-3.5191,-3.5191,-3.5351,-3.5591,-3.5338,-3.5538,-3.6072,-3.6086,-3.6433,-3.6941,-3.6941,-3.6941,-3.6941,-3.6941,-3.6941,-3.6941,-3.6941,-3.6941,-3.6941,-3.6941,-3.6941,-3.6941,-3.6941,-3.6941,-3.6941,-3.6941,-3.6941,-3.6941,-3.6941,-3.6941,-3.6941,-3.6941,-3.6941,-3.6941,-3.6941,-3.6941,-3.6941,-3.6941,-3.6941,-3.6941,-3.6941,-3.6941,-3.6941,-3.6941,-3.6941,-3.6941,-3.6941,-3.6941,-3.6941,-3.6941,-3.6941,-3.7048,-3.7342,-3.7342,-3.7489,-3.7742,-3.8036,-3.8223,-3.8223,-3.8798,-3.9118,-3.9118,-3.9386,-3.9412,-3.9118,-3.9412,-3.9706,-4.0,-4.0,-4.0174,0.0,0.0,0.0,0.0,0.0,0.0,0.0,0.0,0.0,0.0,0.0,0.0,0.0,0.0,0.0,0.0,0.0,0.0,0.0,0.0,0.0,0.0,0.0,0.0,0.0,0.0,0.0,0.0,0.0,0.0,-3.3414,-3.3414,-3.3561,-3.3881,-3.4162,-3.4549,-3.5044,-3.5151,-3.5191,-3.5191,-3.5191,-3.5191,-3.5191,-3.5191,-3.5257,-3.5351,-3.5244,-3.5631,-3.6353,-3.6353,-3.658,-3.6941,-3.6941,-3.6941,-3.6941,-3.6941,-3.6941,-3.6941,-3.6941,-3.6941,-3.6941,-3.6941,-3.6941,-3.6941,-3.6941,-3.6941,-3.6941,-3.6941,-3.6941,-3.6941,-3.6941,-3.6941,-3.6941,-3.6941,-3.7088,-3.7235,-3.7235,-3.7235,-3.7235,-3.7235,-3.7382,-3.7489,-3.7489,-3.7489,-3.7448,-3.7235,-3.7235,-3.7155,-3.6967,-3.6941,-3.6941,-3.6941,-3.7114,-3.7275,-3.7382,-3.7555,-3.7702,-3.7809,-3.8103,-3.837,-3.8544,-3.8945,-3.9225,-3.9452,-3.9746,-3.9746,-3.9452,-3.9746,-3.992,-4.0027,-4.0214,-4.0361,-2.7669,0.0,0.0,0.0,0.0,0.0,0.0,0.0,0.0,0.0,0.0,0.0,0.0,0.0,0.0,0.0,0.0,0.0,0.0,0.0,0.0,0.0,0.0,0.0,0.0,0.0,0.0,0.0,0.0,0.0,-3.3414,-3.3414,-3.3601,-3.4015,-3.4416,-3.4803,-3.5191,-3.5191,-3.5191,-3.5191,-3.5191,-3.5191,-3.5191,-3.5191,-3.5244,-3.5338,-3.5338,-3.5725,-3.6366,-3.6366,-3.658,-3.6941,-3.6941,-3.6941,-3.6941,-3.6941,-3.6941,-3.6941,-3.6941,-3.6941,-3.6941,-3.6941,-3.6941,-3.6941,-3.6941,-3.6941,-3.6941,-3.6941,-3.6941,-3.6941,-3.6941,-3.6941,-3.6967,-3.7048,-3.7235,-3.7422,-3.7489,-3.7529,-3.7529,-3.7529,-3.7676,-3.7809,-3.7809,-3.7809,-3.7742,-3.7555,-3.7529,-3.7448,-3.7261,-3.7235,-3.7235,-3.7235,-3.7408,-3.7569,-3.7676,-3.7849,-3.7996,-3.8103,-3.8397,-3.8651,-3.8865,-3.9225,-3.9559,-3.9746,-4.004,-4.008,-3.9893,-4.008,-4.0187,-4.0187,-4.0401,-4.0481,0.0,0.0,0.0,0.0,0.0,0.0,0.0,0.0,0.0,0.0,0.0,0.0,0.0,0.0,0.0,0.0,0.0,0.0,0.0,0.0,0.0,0.0,0.0,0.0,0.0,0.0,0.0,0.0,0.0,-3.3414,-3.3414,-3.3427,-3.3708,-3.4309,-3.4897,-3.5191,-3.5191,-3.5191,-3.5191,-3.5191,-3.5191,-3.5191,-3.5191,-3.5204,-3.5364,-3.5631,-3.5645,-3.5805,-3.6086,-3.6086,-3.6433,-3.6941,-3.6941,-3.6941,-3.6941,-3.6941,-3.6941,-3.6941,-3.6941,-3.6941,-3.6941,-3.6941,-3.6941,-3.6941,-3.6941,-3.6941,-3.6941,-3.6941,-3.6941,-3.6941,-3.6941,-3.6941,-3.7008,-3.7301,-3.7382,-3.7448,-3.7742,-3.7809,-3.7809,-3.7809,-3.7849,-3.7849,-3.7849,-3.7849,-3.7849,-3.7823,-3.7809,-3.7809,-3.7809,-3.7809,-3.7809,-3.7809,-3.7809,-3.7956,-3.8223,-3.8263,-3.8397,-3.8718,-3.9012,-3.9159,-3.9185,-3.9733,-4.0027,-4.0027,-4.0334,-4.0481,-4.0481,-4.0481,-4.0481,-4.0481,-4.0481,-4.0481,-2.7415,0.0,0.0,0.0,0.0,0.0,0.0,0.0,0.0,0.0,0.0,0.0,0.0,0.0,0.0,0.0,0.0,0.0,0.0,0.0,0.0,0.0,0.0,0.0,0.0,0.0,0.0,0.0,-3.3414,-3.3414,-3.3414,-3.3828,-3.4242,-3.4629,-3.5004,-3.5191,-3.5191,-3.5191,-3.5191,-3.5191,-3.5191,-3.5191,-3.5204,-3.5418,-3.5551,-3.5645,-3.5859,-3.6112,-3.6393,-3.6393,-3.6607,-3.6941,-3.6941,-3.6941,-3.6941,-3.6941,-3.6941,-3.6941,-3.6941,-3.6941,-3.6941,-3.6941,-3.6941,-3.6941,-3.6941,-3.6941,-3.6941,-3.6941,-3.6941,-3.6941,-3.6941,-3.6941,-3.6967,-3.7048,-3.7235,-3.7448,-3.7742,-3.7996,-3.8143,-3.8143,-3.833,-3.8464,-3.8464,-3.8464,-3.8397,-3.8183,-3.8143,-3.8076,-3.7849,-3.7809,-3.7809,-3.7809,-3.7996,-3.8183,-3.8263,-3.8651,-3.8945,-3.9052,-3.9306,-3.9559,-3.9773,-3.996,-4.0147,-4.0361,-4.0441,-4.0481,-4.0481,-4.0481,-4.0481,-4.0481,-4.0481,-4.0481,-2.7615,-2.7669,-2.7722,0.0,0.0,0.0,0.0,0.0,0.0,0.0,0.0,0.0,0.0,0.0,0.0,0.0,0.0,0.0,0.0,0.0,0.0,0.0,0.0,0.0,0.0,0.0,0.0,-3.3414,-3.3414,-3.3467,-3.3601,-3.4068,-3.4456,-3.475,-3.5044,-3.5191,-3.5191,-3.5191,-3.5191,-3.5191,-3.5324,-3.5378,-3.5391,-3.5685,-3.5819,-3.5832,-3.6126,-3.6353,-3.6513,-3.6647,-3.6794,-3.6941,-3.6941,-3.6941,-3.6941,-3.6941,-3.6941,-3.6941,-3.6941,-3.6941,-3.6941,-3.6941,-3.6941,-3.6941,-3.6941,-3.6941,-3.6941,-3.6941,-3.6941,-3.6941,-3.6941,-3.6941,-3.6981,-3.7088,-3.7342,-3.7635,-3.7929,-3.825,-3.8437,-3.8437,-3.8611,-3.8718,-3.8718,-3.8718,-3.8651,-3.8477,-3.8437,-3.8397,-3.821,-3.8183,-3.8183,-3.8183,-3.8357,-3.8504,-3.8624,-3.8945,-3.9199,-3.9346,-3.9626,-3.9853,-4.0027,-4.0147,-4.0294,-4.0481,-4.0481,-4.0481,-4.0481,-4.0481,-4.0481,-4.0481,-4.0481,-4.0481,-2.7923,-2.7883,-2.7829,0.0,0.0,0.0,0.0,0.0,0.0,0.0,0.0,0.0,0.0,0.0,0.0,0.0,0.0,0.0,0.0,0.0,0.0,0.0,0.0,0.0,0.0,-3.3721,-3.3414,-3.3414,-3.3414,-3.3561,-3.3921,-3.4175,-3.4469,-3.4803,-3.5057,-3.5191,-3.5191,-3.5191,-3.5191,-3.5204,-3.5498,-3.5631,-3.5645,-3.5965,-3.6126,-3.6139,-3.6433,-3.654,-3.658,-3.6834,-3.6941,-3.6941,-3.6941,-3.6941,-3.6941,-3.6941,-3.6941,-3.6941,-3.6941,-3.6941,-3.6941,-3.6941,-3.6941,-3.6941,-3.6941,-3.6941,-3.6941,-3.6941,-3.6941,-3.6941,-3.6941,-3.6941,-3.7008,-3.7275,-3.7529,-3.7809,-3.8116,-3.8397,-3.8611,-3.8651,-3.8691,-3.8718,-3.8718,-3.8718,-3.8718,-3.8718,-3.8718,-3.8718,-3.8718,-3.8718,-3.8731,-3.8758,-3.8758,-3.8905,-3.9185,-3.9225,-3.9372,-3.964,-3.992,-4.0067,-4.0067,-4.0334,-4.0481,-4.0481,-4.0481,-4.0481,-4.0481,-4.0481,-4.0481,-4.0481,-4.0481,-4.0481,0.0,0.0,0.0,0.0,0.0,0.0,0.0,0.0,0.0,0.0,0.0,0.0,0.0,0.0,0.0,0.0,0.0,0.0,0.0,0.0,0.0,0.0,0.0,0.0,0.0,-3.348,-3.3414,-3.3414,-3.3414,-3.3654,-3.4202,-3.4282,-3.4563,-3.5097,-3.5164,-3.5191,-3.5191,-3.5191,-3.5191,-3.5204,-3.5498,-3.5631,-3.5645,-3.6179,-3.6433,-3.6433,-3.6727,-3.6861,-3.6861,-3.6901,-3.6941,-3.6941,-3.6941,-3.6941,-3.6941,-3.6941,-3.6941,-3.6941,-3.6941,-3.6941,-3.6941,-3.6941,-3.6941,-3.6941,-3.6941,-3.6941,-3.6941,-3.6941,-3.6941,-3.6941,-3.6941,-3.6941,-3.6941,-3.7008,-3.7088,-3.7195,-3.7489,-3.7782,-3.8076,-3.829,-3.8544,-3.8718,-3.8718,-3.8718,-3.8718,-3.8718,-3.8718,-3.8718,-3.8718,-3.8718,-3.8798,-3.9052,-3.9078,-3.9199,-3.9493,-3.9746,-3.988,-3.996,-4.0214,-4.0401,-4.0401,-4.0441,-4.0481,-4.0481,-4.0481,-4.0481,-4.0481,-4.0481,-4.0481,-4.0481,-4.0481,-4.0481,0.0,0.0,0.0,-2.7883,0.0,0.0,0.0,0.0,0.0,0.0,0.0,0.0,0.0,0.0,0.0,0.0,0.0,0.0,0.0,0.0,0.0,0.0,0.0,0.0,0.0,-3.3654,-3.3587,-3.3427,-3.3414,-3.3681,-3.4282,-3.4322,-3.4589,-3.5177,-3.5191,-3.5191,-3.5191,-3.5191,-3.5271,-3.5418,-3.5712,-3.5925,-3.6086,-3.65,-3.6727,-3.6727,-3.6861,-3.6941,-3.6941,-3.6941,-3.6941,-3.6941,-3.6941,-3.6941,-3.6941,-3.6941,-3.6941,-3.6941,-3.6941,-3.6941,-3.6941,-3.6941,-3.6941,-3.6941,-3.6941,-3.6941,-3.6941,-3.6941,-3.6941,-3.6941,-3.6941,-3.6941,-3.6941,-3.6941,-3.7048,-3.7195,-3.7342,-3.7716,-3.8076,-3.8223,-3.8504,-3.8718,-3.8718,-3.8718,-3.8718,-3.8718,-3.8718,-3.8718,-3.8718,-3.8865,-3.9012,-3.9159,-3.9306,-3.9493,-3.9786,-3.996,-4.0107,-4.0254,-4.0401,-4.0481,-4.0481,-4.0481,-4.0481,-4.0481,-4.0481,-4.0481,-4.0481,-4.0481,-4.0481,-4.0481,-4.0481,-4.0481,0.0,0.0,0.0,0.0,0.0,-2.7883,0.0,0.0,0.0,0.0,0.0,0.0,0.0,0.0,0.0,0.0,0.0,0.0,0.0,0.0,0.0,0.0,0.0,0.0,0.0,-3.3734,-3.3721,-3.3521,-3.34,-3.3614,-3.4282,-3.4322,-3.4589,-3.5177,-3.5191,-3.5191,-3.5191,-3.5191,-3.5338,-3.5631,-3.5939,-3.6219,-3.6513,-3.6794,-3.6941,-3.6941,-3.6941,-3.6941,-3.6941,-3.6941,-3.6941,-3.6941,-3.6941,-3.6941,-3.6941,-3.6941,-3.6941,-3.6941,-3.6941,-3.6941,-3.6941,-3.6941,-3.6941,-3.6941,-3.6941,-3.6941,-3.6941,-3.6941,-3.6941,-3.6941,-3.6941,-3.6941,-3.6941,-3.6941,-3.7128,-3.7301,-3.7301,-3.7716,-3.8076,-3.8076,-3.8397,-3.8651,-3.8718,-3.8718,-3.8758,-3.8798,-3.8798,-3.8838,-3.8878,-3.9092,-3.9265,-3.9306,-3.9533,-3.9813,-4.0107,-4.0107,-4.0214,-4.0468,-4.0481,-4.0481,-4.0481,-4.0481,-4.0481,-4.0481,-4.0481,-4.0481,-4.0481,-4.0481,-4.0481,-4.0481,-4.0481,-4.0481,0.0,0.0,0.0,0.0,-2.7722,0.0,0.0,0.0,0.0,0.0,0.0,0.0,0.0,0.0,0.0,0.0,0.0,0.0,0.0,0.0,0.0,0.0,0.0,0.0,0.0,0.0,-3.3574,-3.3814,-3.3334,-3.34,-3.4269,-3.4322,-3.4589,-3.5177,-3.5191,-3.5191,-3.5191,-3.5191,-3.5338,-3.5631,-3.5939,-3.6219,-3.6513,-3.6794,-3.6941,-3.6941,-3.6941,-3.6941,-3.6941,-3.6941,-3.6941,-3.6941,-3.6941,-3.6941,-3.6941,-3.6941,-3.6941,-3.6941,-3.6941,-3.6941,-3.6941,-3.6941,-3.6941,-3.6941,-3.6941,-3.6941,-3.6941,-3.6941,-3.6941,-3.6941,-3.6941,-3.6941,-3.6941,-3.6941,-3.6967,-3.6981,-3.6981,-3.7235,-3.7489,-3.7489,-3.7929,-3.8397,-3.8691,-3.8718,-3.8798,-3.9078,-3.9118,-3.9199,-3.9452,-3.9533,-3.964,-3.992,-3.996,-4.0107,-4.0401,-4.0441,-4.0441,-4.0481,-4.0481,-4.0481,-4.0481,-4.0481,-4.0481,-4.0481,-4.0481,-4.0481,-4.0481,-4.0481,-4.0481,-4.0481,-4.0481,-4.0481,0.0,0.0,0.0,0.0,0.0,0.0,0.0,0.0,-2.7909,0.0,0.0,0.0,0.0,0.0,0.0,0.0,0.0,0.0,0.0,0.0,0.0,0.0,0.0,0.0,0.0,0.0,0.0,0.0,0.0,-3.32,-3.4269,-3.4322,-3.4589,-3.5177,-3.5191,-3.5191,-3.5191,-3.5191,-3.5431,-3.5885,-3.6019,-3.6313,-3.6754,-3.6874,-3.6941,-3.6941,-3.6941,-3.6941,-3.6941,-3.6941,-3.6941,-3.6941,-3.6941,-3.6941,-3.6941,-3.6941,-3.6941,-3.6941,-3.6941,-3.6941,-3.6941,-3.6941,-3.6941,-3.6941,-3.6941,-3.6941,-3.6941,-3.6941,-3.6941,-3.6941,-3.6941,-3.6941,-3.6941,-3.6941,-3.6941,-3.6941,-3.6941,-3.7155,-3.7382,-3.7382,-3.7863,-3.837,-3.8651,-3.8865,-3.9012,-3.9118,-3.9306,-3.9452,-3.9599,-3.9746,-3.9893,-4.0027,-4.0187,-4.0334,-4.0481,-4.0481,-4.0481,-4.0481,-4.0481,-4.0481,-4.0481,-4.0481,-4.0481,-4.0481,-4.0481,-4.0481,-4.0481,-4.0481,-4.0481,-4.0481,-4.0481,-4.0481,-2.8617,0.0,0.0,0.0,0.0,0.0,0.0,0.0,0.0,0.0,0.0,0.0,0.0,0.0,0.0,0.0,0.0,0.0,0.0,0.0,0.0,0.0,0.0,0.0,0.0,0.0,0.0,0.0,0.0,0.0,-3.4255,-3.4322,-3.4589,-3.5177,-3.5191,-3.5191,-3.5191,-3.5191,-3.5498,-3.6072,-3.6072,-3.638,-3.6941,-3.6941,-3.6941,-3.6941,-3.6941,-3.6941,-3.6941,-3.6941,-3.6941,-3.6941,-3.6941,-3.6941,-3.6941,-3.6941,-3.6941,-3.6941,-3.6941,-3.6941,-3.6941,-3.6941,-3.6941,-3.6941,-3.6941,-3.6941,-3.6941,-3.6941,-3.6941,-3.6941,-3.6941,-3.6941,-3.6941,-3.6941,-3.7008,-3.7048,-3.6941,-3.7235,-3.7489,-3.7382,-3.7929,-3.8437,-3.8584,-3.8905,-3.9199,-3.9372,-3.9599,-3.9746,-3.9813,-4.004,-4.0147,-4.0147,-4.0361,-4.0481,-4.0481,-4.0481,-4.0481,-4.0481,-4.0481,-4.0481,-4.0481,-4.0481,-4.0481,-4.0481,-4.0481,-4.0481,-4.0481,-4.0481,-4.0481,-4.0481,-4.0481,-4.0481,0.0,0.0,0.0,-2.8283,0.0,0.0,0.0,0.0,-2.8056,0.0,0.0,0.0,0.0,0.0,0.0,0.0,0.0,0.0,0.0,0.0,0.0,0.0,0.0,0.0,0.0,0.0,0.0,0.0,0.0,0.0,-3.4242,-3.4322,-3.4589,-3.5177,-3.5191,-3.5191,-3.5191,-3.5191,-3.5498,-3.6072,-3.6072,-3.638,-3.6941,-3.6941,-3.6941,-3.6941,-3.6941,-3.6941,-3.6941,-3.6941,-3.6941,-3.6941,-3.6941,-3.6941,-3.6941,-3.6941,-3.6941,-3.6941,-3.6941,-3.6941,-3.6941,-3.6941,-3.6941,-3.6941,-3.6941,-3.6941,-3.6941,-3.6941,-3.6941,-3.6941,-3.6941,-3.6941,-3.6941,-3.6941,-3.7155,-3.7275,-3.7008,-3.7382,-3.7702,-3.7448,-3.8103,-3.8611,-3.833,-3.8758,-3.9346,-3.992,-4.0,-4.0107,-4.0401,-4.0441,-4.0468,-4.0468,-4.0481,-4.0481,-4.0481,-4.0481,-4.0481,-4.0481,-4.0481,-4.0481,-4.0481,-4.0481,-4.0481,-4.0481,-4.0481,-4.0481,-4.0481,-4.0481,-4.0481,-4.0481,-4.0481,-4.0481,0.0,0.0,-3.0247,-2.9272,0.0,0.0,0.0,0.0,0.0,0.0,0.0,0.0,0.0,0.0,0.0,0.0,0.0,0.0,0.0,0.0,0.0,0.0,0.0,0.0,0.0,0.0,0.0,0.0,0.0,0.0,0.0,-3.4429,-3.4683,-3.5458,-3.5297,-3.5191,-3.5191,-3.5191,-3.5498,-3.6072,-3.6072,-3.638,-3.6941,-3.6941,-3.6941,-3.6941,-3.6941,-3.6941,-3.6941,-3.6941,-3.6941,-3.6941,-3.6941,-3.6941,-3.6941,-3.6941,-3.6941,-3.6941,-3.6941,-3.6941,-3.6941,-3.6941,-3.6941,-3.6941,-3.6941,-3.6941,-3.6941,-3.6941,-3.6941,-3.6941,-3.6941,-3.7088,-3.7235,-3.7235,-3.7448,-3.7635,-3.7529,-3.7676,-3.7782,-3.7676,-3.8076,-3.8504,-3.8798,-3.9012,-3.9306,-3.9666,-4.008,-4.0361,-4.0481,-4.0481,-4.0481,-4.0481,-4.0481,-4.0481,-4.0481,-4.0481,-4.0481,-4.0481,-4.0481,-4.0481,-4.0481,-4.0481,-4.0481,-4.0481,-4.0481,-4.0481,-4.0481,-4.0481,-4.0481,-4.0481,-4.0481,-4.0481,-3.0955,-3.1183,0.0,-3.0314,-3.0167,0.0,-2.8991,0.0,0.0,0.0,0.0,0.0,0.0,0.0,0.0,0.0,0.0,0.0,0.0,0.0,0.0,0.0,0.0,0.0,0.0,0.0,0.0,0.0,0.0,0.0,0.0,0.0,-3.483,-3.5605,-3.5444,-3.5297,-3.5191,-3.5191,-3.5498,-3.6072,-3.6072,-3.638,-3.6941,-3.6941,-3.6941,-3.6941,-3.6941,-3.6941,-3.6941,-3.6941,-3.6941,-3.6941,-3.6941,-3.6941,-3.6941,-3.6941,-3.6941,-3.6941,-3.6941,-3.6941,-3.6941,-3.6941,-3.6941,-3.6941,-3.6941,-3.6941,-3.6941,-3.6941,-3.7008,-3.7088,-3.7088,-3.7301,-3.7529,-3.7529,-3.7742,-3.7929,-3.7849,-3.7996,-3.8103,-3.7996,-3.829,-3.8651,-3.8945,-3.9159,-3.9452,-3.9853,-4.0147,-4.0361,-4.0468,-4.0481,-4.0481,-4.0481,-4.0481,-4.0481,-4.0481,-4.0481,-4.0481,-4.0481,-4.0481,-4.0481,-4.0481,-4.0481,-4.0441,-4.0321,-4.0441,-4.0441,-4.0321,-4.0441,-4.0481,-4.0481,-4.0481,-4.0481]}]]